GFSCGP_850_spd_006.txt.gz
Wind_Speed
6 4 6 7 6 3 1 1 2 3 4 7 3 2 8 10 10 9 7 7 10 13 9 8 11 11 9 8 11 7 8 12 12 8 6 7 8 9 8 10 18 21 24 28
4 8 4 4 3 1 1 2 2 2 1 5 2 5 8 11 13 12 13 13 12 12 10 10 9 9 8 7 8 10 11 12 12 9 12 11 10 8 12 14 22 26 31 31
5 6 2 1 6 4 2 2 4 4 4 3 4 7 6 7 11 13 15 15 15 14 14 12 11 10 8 7 7 7 8 8 6 4 6 7 9 11 12 19 23 28 30 30
8 3 2 2 5 7 1 2 8 7 6 4 3 4 5 4 8 10 11 12 12 11 10 8 6 5 4 4 4 3 1 3 6 11 14 20 14 16 23 21 19 28 30 32
4 5 5 5 4 6 5 8 5 4 6 4 2 6 8 3 7 6 9 10 10 9 8 8 7 6 7 6 6 6 7 10 15 18 23 19 17 15 15 18 22 23 23 29
6 3 4 5 3 2 6 3 1 1 2 4 2 5 7 2 4 7 10 10 9 8 6 6 7 7 8 7 6 9 10 13 18 21 27 25 21 21 22 23 25 24 27 26
3 5 2 7 3 4 8 2 2 2 4 1 1 6 7 5 7 7 7 9 9 8 7 5 4 4 4 4 9 15 21 14 20 34 33 30 27 20 21 24 25 29 28 27
3 4 8 9 5 5 6 6 3 2 2 4 3 2 6 7 7 7 7 7 7 8 8 6 4 5 6 10 16 21 18 13 20 25 22 21 19 20 23 25 31 32 29 27
2 3 3 6 6 4 3 4 1 3 1 3 1 3 7 7 6 6 6 3 4 4 4 6 8 9 9 8 11 16 21 22 20 19 17 21 22 25 31 35 33 24 25 19
2 2 1 1 3 8 4 3 1 2 3 4 3 7 7 9 5 2 3 3 2 3 6 10 13 13 12 13 15 20 21 16 15 14 17 19 26 27 30 27 23 20 16 13
4 3 2 3 2 2 3 2 2 1 2 3 4 5 5 2 3 4 10 11 9 8 11 14 17 16 15 12 11 12 13 14 13 13 18 20 21 20 20 19 17 15 14 12
4 1 2 1 2 3 2 1 1 2 2 2 4 6 4 1 1 5 16 9 7 10 14 16 16 15 12 9 10 12 13 14 17 20 19 18 17 17 17 17 15 13 13 11
1 0 2 3 4 3 5 3 2 1 1 8 4 4 3 3 12 13 12 10 7 13 17 19 17 15 11 11 13 21 19 17 16 19 16 15 16 18 16 16 17 15 16 16
1 2 4 5 6 4 6 7 7 8 5 8 13 18 16 13 14 15 9 7 12 19 18 16 14 12 11 19 19 16 12 15 21 17 17 17 17 15 16 18 15 16 15 16
2 3 4 8 11 13 12 14 12 15 15 11 15 15 15 14 13 12 7 16 22 19 16 16 14 14 18 14 12 12 13 18 21 14 17 12 10 11 14 15 15 15 16 18
2 1 4 4 8 10 12 15 15 13 13 13 15 16 7 10 9 7 17 21 20 14 13 15 17 12 13 13 16 14 17 17 13 16 11 9 11 13 14 14 17 18 18 17
1 1 1 4 9 13 6 4 4 3 4 8 10 8 8 7 12 18 21 18 10 12 15 18 14 16 17 19 16 18 20 14 12 14 10 12 13 13 14 16 17 17 18 18
3 2 1 3 5 3 3 5 9 13 13 8 9 3 6 12 21 25 6 6 9 17 15 17 16 20 22 20 19 20 19 15 15 14 14 13 13 13 15 16 17 18 19 20
2 3 2 2 4 15 12 3 2 2 11 4 3 9 17 25 23 10 8 15 19 13 16 20 21 24 25 22 21 21 19 17 16 17 16 13 13 13 15 16 17 19 20 20
5 4 2 2 4 4 3 4 5 4 8 4 11 20 22 24 12 6 20 17 13 16 18 21 24 25 23 21 19 21 20 19 18 15 12 13 13 13 15 16 18 20 21 21
2 2 4 6 6 8 6 5 1 3 3 14 12 9 11 6 8 17 13 13 15 18 20 22 23 25 24 24 23 21 19 16 13 12 14 14 13 13 14 17 19 22 23 21
3 2 4 3 4 6 2 2 2 5 12 7 7 6 10 11 11 11 14 17 19 20 22 25 27 27 26 25 22 21 18 16 15 15 16 14 12 12 15 18 21 23 22 20
4 5 4 7 6 7 13 11 7 7 7 7 2 6 9 8 11 14 16 19 21 23 25 27 27 28 27 26 24 21 20 17 15 16 16 13 12 13 16 20 22 21 18 18
5 7 4 6 11 14 14 10 5 6 4 3 6 3 5 11 14 17 21 24 24 25 26 25 26 28 29 27 22 18 17 16 16 16 15 13 13 15 17 19 17 17 16 16
10 8 11 12 18 16 7 2 5 7 5 6 4 7 9 12 17 21 24 24 25 25 24 24 26 29 30 26 22 16 20 13 15 15 13 12 12 14 16 15 14 13 13 16
15 12 5 4 5 9 4 7 9 9 5 4 6 8 11 16 21 22 24 25 25 25 25 26 28 28 29 23 20 16 11 16 15 17 10 10 14 12 12 12 13 16 19 18

GFSCGP_850_spd_009.txt.gz
Wind_Speed
5 10 5 10 7 7 5 5 5 6 4 6 3 4 5 4 4 5 4 5 6 10 11 8 5 5 4 4 6 9 11 13 6 6 7 7 9 9 8 8 9 10 13 23
9 7 4 2 2 3 3 4 2 3 2 5 4 6 6 8 7 8 9 10 11 11 9 8 8 9 7 7 8 7 5 2 2 4 3 5 6 6 9 8 13 13 18 21
9 8 2 3 3 7 4 7 6 9 4 8 7 9 11 8 13 13 14 14 14 14 13 12 13 12 10 9 8 7 6 5 5 4 3 5 7 10 13 15 17 17 22 21
7 4 2 2 4 9 6 4 7 8 7 7 11 4 8 12 10 11 11 12 12 11 9 9 9 9 9 10 9 8 6 4 6 2 5 10 10 12 14 16 19 23 21 20
5 2 2 3 5 6 7 7 7 8 9 8 10 9 10 11 9 9 9 9 9 8 8 8 8 8 7 7 6 5 3 4 6 6 10 13 14 19 25 23 20 21 19 20
8 3 5 6 4 3 7 7 6 6 5 5 3 6 10 6 8 7 8 7 6 6 6 5 5 5 4 4 4 4 6 8 8 9 13 16 25 33 18 19 20 19 21 22
7 5 4 7 7 5 9 6 3 3 4 2 4 7 10 8 7 8 5 6 5 7 5 3 2 1 2 3 5 7 12 13 12 14 15 14 15 16 17 19 19 23 24 23
3 7 6 6 6 6 5 7 3 4 2 4 9 5 8 10 10 6 5 3 3 4 4 3 3 6 8 9 11 13 13 15 17 16 17 18 17 16 17 18 21 22 22 23
3 4 5 5 6 6 3 4 3 2 1 3 5 5 9 9 9 4 2 4 3 4 4 5 8 9 13 15 15 14 15 17 17 17 19 16 15 16 17 19 20 21 22 22
3 2 2 3 4 4 8 3 3 1 3 4 2 10 7 9 7 6 5 7 10 10 10 12 14 15 17 17 18 15 16 17 19 18 15 14 17 17 18 20 21 22 21 21
7 3 5 3 2 7 2 1 3 4 4 4 5 5 8 3 3 6 11 14 14 13 11 15 16 16 16 17 18 17 16 14 15 16 16 16 17 17 18 20 20 19 22 19
6 2 2 4 3 3 4 4 4 2 2 3 3 7 7 5 2 7 11 11 12 13 13 17 18 14 17 17 18 18 14 19 14 14 16 17 18 20 21 19 22 20 18 18
6 1 3 5 6 4 4 1 2 1 2 9 6 5 5 5 12 12 14 10 11 12 17 19 18 23 22 18 15 19 18 15 14 16 18 19 19 19 18 17 18 17 17 18
2 1 3 5 9 8 8 9 9 10 7 10 11 16 14 9 10 15 15 11 14 18 20 17 17 21 20 17 17 16 16 16 18 18 19 19 18 16 16 15 15 17 18 19
3 2 5 10 12 11 12 13 13 15 14 13 15 16 15 12 11 13 10 14 18 21 17 16 23 22 17 14 15 17 17 19 20 20 20 20 17 16 16 15 17 18 19 19
2 1 4 4 7 10 14 16 18 16 10 13 13 15 9 8 9 13 19 21 20 18 16 19 21 18 17 17 20 22 19 19 21 21 21 20 18 16 15 16 17 18 18 19
2 1 4 4 11 13 6 3 1 4 7 7 10 10 8 10 16 18 16 16 13 14 18 23 18 17 19 21 23 23 22 22 22 22 22 21 17 17 16 16 18 18 19 19
4 1 2 3 7 3 5 9 13 10 9 9 8 7 9 16 18 17 6 12 14 17 18 16 19 21 23 25 26 28 25 28 27 25 23 20 17 19 17 18 18 19 19 21
1 3 2 2 5 14 10 5 6 8 13 10 6 10 14 21 19 5 5 15 15 14 16 19 21 23 26 27 29 27 29 30 28 27 20 19 20 17 17 18 19 19 21 22
4 2 3 3 3 4 2 7 5 7 9 7 7 13 13 17 10 11 18 18 16 17 19 22 23 26 27 29 29 30 31 32 29 24 17 17 17 17 16 18 19 20 22 22
2 2 5 6 5 8 8 3 5 4 3 8 12 8 13 9 14 17 15 16 17 19 21 24 25 27 28 29 30 31 33 32 27 22 14 16 17 15 15 17 19 22 23 22
6 5 4 3 3 6 4 4 3 10 15 7 7 7 8 12 13 13 15 17 20 23 25 26 28 28 29 29 30 32 35 33 24 21 15 15 15 13 15 18 20 21 23 18
4 6 3 8 6 12 9 12 14 7 5 9 6 8 11 12 13 14 17 20 23 26 28 28 27 28 29 30 30 33 31 27 17 15 16 15 12 13 16 17 20 21 17 17
6 13 7 8 7 17 13 17 3 3 2 4 10 11 9 12 14 17 21 24 26 27 29 27 28 29 30 30 31 29 23 18 21 17 13 13 13 14 15 16 17 15 16 17
10 9 10 14 20 20 15 1 1 2 6 4 6 9 11 13 18 22 25 26 27 28 27 28 27 29 30 30 29 26 21 16 15 14 12 13 12 13 15 15 13 14 13 20
15 14 10 10 11 8 8 3 8 7 4 4 7 10 13 18 23 26 26 26 27 28 29 29 30 30 30 28 26 21 14 15 11 13 11 11 12 12 11 11 12 16 18 20

GFSCGP_850_spd_012.txt.gz
Wind_Speed
9 8 6 12 9 7 9 8 7 13 6 3 10 8 9 8 4 2 3 3 6 18 21 16 10 6 2 4 1 8 10 12 6 4 8 9 7 5 7 5 9 12 14 20
5 4 8 5 7 5 5 5 4 5 6 5 7 11 11 7 7 9 9 11 19 19 18 17 13 11 12 9 6 10 9 8 7 5 3 5 6 6 6 6 9 11 17 24
13 11 5 4 4 8 4 6 9 8 6 8 9 7 13 10 9 13 19 19 18 16 15 14 13 13 10 9 8 6 3 3 5 8 2 1 4 6 11 19 29 21 28 40
8 4 3 1 5 8 4 6 5 8 7 8 13 3 13 14 11 13 17 16 15 13 14 14 12 10 10 9 9 7 7 6 4 2 7 14 9 10 14 14 20 27 19 15
6 4 4 3 7 6 6 4 6 8 9 10 10 6 13 16 13 12 14 14 12 12 11 10 9 9 9 7 6 5 3 3 5 8 13 12 11 16 19 15 16 17 14 20
8 3 7 6 3 2 6 9 9 8 9 3 12 2 5 3 12 11 12 11 10 8 7 6 6 6 6 5 3 4 5 8 11 10 9 18 15 15 15 16 16 17 21 27
7 6 6 7 9 5 8 8 4 2 3 2 6 2 10 11 10 14 11 13 9 7 7 6 6 5 2 3 6 9 11 13 13 17 11 10 14 14 13 16 19 24 26 22
7 6 5 6 7 7 5 6 2 4 5 3 4 3 8 14 13 13 11 8 7 7 4 2 2 4 5 8 11 13 13 15 15 17 15 13 13 14 15 17 23 20 20 22
4 7 6 6 6 8 6 6 3 1 2 1 5 16 13 11 9 10 7 2 2 1 3 2 5 7 9 11 11 13 16 14 14 14 16 17 14 16 19 20 20 22 17 18
4 4 4 3 3 4 5 2 2 3 2 3 8 6 7 5 4 4 3 7 8 10 12 9 11 14 14 14 15 15 13 15 16 17 20 20 19 18 18 19 19 18 23 29
6 3 4 5 6 8 1 2 2 3 0 2 3 2 6 6 6 7 7 8 10 8 11 14 16 16 13 15 18 19 19 17 18 17 15 14 16 17 17 16 19 24 30 24
4 2 1 8 6 3 2 4 3 0 2 1 1 6 3 4 7 12 8 9 8 9 14 17 17 18 20 19 16 15 16 18 14 14 15 18 18 17 17 20 23 24 21 21
5 1 3 8 5 5 1 3 2 4 2 4 3 4 5 7 16 12 11 12 12 11 13 15 14 15 20 22 21 23 21 16 17 16 18 18 19 20 20 20 19 19 19 20
3 1 1 2 6 8 8 11 10 10 4 6 7 14 14 3 4 4 8 9 11 13 12 12 15 20 21 23 21 16 17 21 21 23 19 17 20 18 16 16 20 18 20 22
3 1 5 7 9 8 10 12 12 13 12 9 10 15 10 10 7 17 15 15 15 13 14 17 17 21 20 20 20 21 23 24 24 21 26 23 23 18 14 16 17 19 20 21
4 2 3 3 5 11 14 15 14 14 14 11 11 14 8 10 15 15 13 14 13 15 17 18 20 19 19 20 23 25 28 28 18 23 27 28 23 17 13 20 14 16 20 20
2 1 2 2 11 10 2 3 7 8 8 9 6 9 14 11 13 16 11 11 13 15 18 19 17 19 20 22 25 28 28 29 35 29 23 21 24 21 15 16 11 14 19 21
4 2 2 2 5 3 4 13 11 9 7 8 9 8 8 12 17 16 9 11 14 15 16 16 19 21 21 26 26 27 29 33 35 35 32 29 19 11 15 15 10 14 18 22
3 4 2 1 3 9 9 4 6 5 11 10 7 11 13 17 16 5 10 13 13 14 17 19 23 22 27 24 26 30 33 33 34 40 31 29 19 13 16 13 11 13 21 23
4 5 1 2 2 3 2 7 5 9 7 9 9 11 12 17 5 8 21 18 17 18 20 23 24 26 25 26 28 30 31 33 34 30 30 26 22 13 15 11 12 17 20 18
3 2 4 4 4 6 9 4 5 3 2 8 5 10 11 7 10 16 16 15 17 19 23 26 26 25 25 27 28 28 29 31 28 30 27 23 18 13 11 9 16 18 19 20
7 6 4 3 3 6 1 2 2 7 14 4 6 4 4 10 10 13 14 17 20 22 25 26 28 25 26 27 27 27 27 29 27 30 27 25 21 12 9 13 16 17 19 18
4 6 4 9 5 10 9 5 7 10 9 4 8 8 8 8 11 13 16 19 22 24 26 28 26 28 30 26 26 25 26 25 24 26 22 18 17 12 13 14 18 17 16 18
4 10 3 3 9 12 12 10 2 4 3 2 3 4 7 9 11 14 18 22 23 24 27 25 29 29 27 28 26 25 24 25 21 21 20 16 15 14 13 13 15 14 17 23
6 5 6 8 14 15 3 8 11 4 3 3 5 4 6 9 13 17 21 23 24 25 24 29 27 27 28 28 27 26 25 21 19 18 14 13 13 13 15 14 14 15 19 22
9 9 7 8 11 4 2 8 1 2 3 4 3 5 8 12 16 19 22 23 24 25 28 27 27 28 27 27 27 25 19 19 22 13 13 13 14 12 13 10 13 16 19 19

GFSCGP_850_spd_015.txt.gz
Wind_Speed
9 5 4 3 2 3 4 5 10 4 5 2 3 3 6 20 10 21 27 33 33 34 24 23 23 17 14 19 20 22 22 19 14 14 10 10 9 6 3 5 8 10 15 19
3 4 3 4 2 3 4 6 5 4 4 3 2 1 7 16 14 25 31 33 31 28 24 20 14 18 15 10 6 6 6 11 8 8 8 8 6 4 5 8 10 17 19 24
7 2 3 3 8 9 7 5 5 4 6 4 2 2 8 8 25 32 31 29 25 23 21 16 14 13 10 9 4 2 1 1 4 3 4 5 5 9 12 15 20 20 21 26
6 1 4 5 7 6 4 5 5 5 4 3 5 1 4 10 13 20 28 30 30 27 22 16 12 10 8 8 6 8 10 11 10 9 11 15 14 13 15 18 18 20 23 22
3 6 8 8 4 5 2 0 3 3 4 3 6 4 3 12 12 10 20 22 21 19 17 14 8 7 7 7 8 7 7 13 18 17 18 14 10 11 7 12 17 19 20 22
4 10 4 4 4 2 5 4 5 3 2 2 7 4 2 4 12 6 18 21 17 14 9 4 5 3 5 6 9 9 3 3 11 11 9 12 13 13 14 20 23 22 25 28
5 4 3 5 3 1 4 6 3 4 4 3 6 6 2 4 9 14 18 22 16 13 13 13 12 8 2 5 5 4 7 13 15 11 11 12 15 17 19 21 23 24 24 23
5 3 6 7 5 2 5 4 4 1 1 4 5 4 0 10 24 24 19 13 13 12 11 7 2 1 2 4 4 7 10 11 12 14 16 15 16 18 19 20 23 20 20 18
4 3 3 6 4 3 5 5 1 5 1 3 2 5 5 8 9 14 10 10 14 12 12 10 13 8 3 5 8 9 10 10 14 15 16 17 17 19 18 20 15 17 16 19
5 4 3 3 2 5 5 2 5 4 1 2 2 4 3 3 5 3 7 13 16 20 19 14 12 10 9 9 13 17 18 18 16 17 19 21 21 17 17 13 14 16 21 29
5 4 3 2 5 4 4 3 4 2 4 4 1 3 3 6 5 4 15 16 18 15 15 13 12 13 14 16 17 17 19 20 22 22 24 26 24 19 19 23 26 26 31 27
3 4 3 3 2 2 1 3 4 4 3 1 4 5 5 9 16 16 15 16 13 13 10 10 11 12 16 21 23 25 24 18 15 22 26 20 24 25 26 27 25 28 25 19
3 2 3 4 4 5 1 3 5 6 3 4 4 5 5 5 9 4 7 14 13 11 11 8 10 18 19 22 25 19 19 18 24 28 25 22 19 25 25 27 26 19 20 21
3 3 5 5 3 0 2 5 4 6 3 4 6 6 11 5 3 13 16 15 16 14 10 14 20 19 19 18 18 19 23 23 27 29 28 35 37 26 20 19 15 16 22 19
3 3 4 4 5 4 4 6 7 4 5 5 7 6 5 10 8 13 11 12 12 12 15 18 19 17 16 18 19 17 23 24 25 28 32 34 26 20 23 34 25 21 16 15
4 1 2 2 7 7 4 7 7 7 6 4 4 4 13 16 16 14 14 13 13 14 16 20 15 16 18 19 21 24 19 19 25 32 33 33 28 29 33 26 19 13 13 14
3 4 3 2 5 5 4 3 5 3 3 2 2 1 12 11 15 16 15 12 11 13 16 16 16 18 21 19 16 15 21 26 29 29 33 27 33 37 30 20 13 15 15 13
4 3 3 2 4 2 4 3 4 5 4 6 10 10 14 14 16 13 8 8 11 14 15 17 17 17 19 15 19 22 26 30 30 32 30 33 37 37 29 19 17 10 12 18
5 4 3 3 1 6 5 2 3 4 3 7 8 9 10 8 8 11 9 11 8 11 13 16 16 18 18 20 23 28 31 30 26 25 29 34 35 28 24 19 15 17 16 17
7 6 4 2 4 6 5 4 6 2 3 4 9 8 7 5 2 3 12 10 7 11 14 17 18 19 21 22 28 30 29 23 22 26 29 33 32 25 25 16 8 12 15 12
3 3 4 4 3 7 8 5 5 3 6 7 7 5 2 2 5 7 8 6 11 13 15 16 19 20 21 27 32 25 19 24 25 29 32 29 27 22 17 10 11 11 15 16
7 6 4 3 3 7 11 6 7 6 5 11 8 2 4 5 5 5 6 11 13 15 16 18 20 21 26 25 20 22 23 24 27 31 32 27 22 16 12 13 13 13 14 17
2 7 6 9 6 9 14 13 14 8 5 10 2 0 3 2 4 4 10 12 14 16 19 20 21 26 22 21 22 23 26 29 33 35 24 21 14 13 11 10 10 15 18 19
3 13 3 4 7 11 10 10 10 11 11 8 2 2 2 6 5 8 9 13 14 16 16 19 23 21 22 24 23 26 29 35 34 27 25 16 12 11 12 15 18 16 17 20
6 2 1 3 3 1 6 10 15 14 8 4 4 4 3 2 4 9 10 13 16 18 22 22 22 24 26 28 32 33 30 28 28 24 18 13 14 15 13 14 12 16 19 22
6 5 3 5 4 6 11 15 11 8 9 7 7 5 2 5 6 9 13 16 19 21 24 26 27 29 29 31 34 29 24 26 25 25 16 16 12 13 11 12 15 16 18 16

GFSCGP_850_spd_018.txt.gz
Wind_Speed
6 5 3 4 5 5 4 2 6 3 2 4 5 4 5 16 24 27 28 32 40 36 30 29 28 23 21 22 19 18 9 16 14 14 14 12 8 5 4 3 3 6 12 16
6 2 3 4 6 6 4 8 4 5 6 4 7 7 6 10 14 28 34 35 35 32 29 27 26 24 21 17 11 9 12 13 16 13 8 5 4 4 3 6 10 14 18 23
6 4 2 5 7 8 5 6 3 4 2 4 11 6 7 9 21 23 27 32 29 27 26 22 20 19 16 16 13 10 7 5 2 2 2 1 5 12 13 16 20 24 23 22
5 7 6 5 5 1 2 3 3 3 3 4 3 4 2 4 10 15 21 30 29 27 23 20 17 14 11 12 10 8 8 7 5 5 10 14 19 21 23 24 23 19 22 23
2 4 7 5 0 1 3 1 1 1 3 3 3 6 4 6 9 10 16 27 25 21 18 15 11 9 9 9 9 10 12 14 12 12 15 18 18 18 20 20 21 21 20 20
5 4 3 1 3 1 2 1 6 4 3 3 4 5 5 4 6 5 11 25 22 16 12 8 7 7 7 7 6 5 4 5 9 13 15 15 16 16 15 16 17 18 21 28
5 4 5 5 4 6 7 5 3 4 4 4 5 5 1 3 8 16 18 20 16 11 9 6 4 3 5 5 3 3 4 9 10 11 12 14 14 15 17 19 20 30 28 22
4 3 4 6 2 1 4 4 4 4 2 3 5 3 4 5 21 23 20 17 15 15 12 11 8 7 4 6 5 5 9 13 13 14 15 16 18 21 23 21 27 28 27 23
4 1 2 1 2 2 3 4 4 6 3 3 1 3 3 8 6 14 7 5 4 14 18 21 17 12 8 5 7 9 12 14 15 17 20 23 25 28 27 32 30 30 25 19
3 4 1 2 5 7 6 2 4 4 2 1 3 2 4 4 6 7 13 20 21 23 18 14 11 8 9 10 11 13 15 17 19 20 19 23 26 26 31 26 25 26 23 22
2 4 4 3 3 0 5 3 5 4 3 4 2 5 4 7 7 11 16 21 17 16 14 12 8 6 8 12 16 17 14 14 14 17 21 25 27 27 28 25 25 26 24 22
2 5 3 1 3 1 2 3 4 4 2 2 4 4 4 9 18 23 20 18 20 19 16 10 8 10 14 18 16 14 13 13 16 20 22 23 26 29 29 30 34 32 27 19
3 2 3 6 6 5 4 2 5 6 3 4 5 5 10 6 9 16 22 21 18 12 7 6 10 16 17 12 12 14 15 15 18 19 15 22 24 27 29 30 29 13 16 30
2 3 5 6 4 3 1 2 4 5 3 3 6 5 5 6 10 16 20 17 12 7 6 10 13 10 9 10 14 16 14 18 20 21 20 26 30 25 23 25 25 31 35 24
3 3 1 3 4 2 0 2 2 5 4 5 6 7 3 7 9 15 19 13 7 5 8 11 8 6 9 13 12 13 16 17 18 23 28 32 32 27 30 29 29 31 23 16
4 0 2 1 4 6 3 4 4 4 3 3 4 4 4 10 14 16 13 8 5 6 7 6 5 8 10 8 13 11 15 21 25 28 29 29 31 31 33 35 26 17 17 6
3 4 3 3 4 5 5 5 3 1 3 3 5 6 9 6 13 12 9 5 2 4 4 5 8 8 9 11 12 17 20 24 24 23 24 31 30 33 38 27 24 19 17 6
4 4 3 2 3 1 4 3 4 7 3 8 9 6 9 14 12 11 6 1 1 2 5 7 6 10 9 13 16 19 23 20 20 23 29 29 32 36 32 21 23 16 5 13
4 5 3 3 3 5 2 5 5 5 5 6 9 10 9 17 13 7 2 2 1 4 7 5 10 11 13 14 19 23 19 21 25 26 28 30 32 33 26 18 10 7 9 11
6 6 4 2 4 6 5 3 9 8 4 15 14 14 10 15 3 4 3 2 2 4 4 7 10 14 17 22 25 25 22 21 25 27 27 30 31 24 17 14 9 7 11 9
3 3 4 2 2 8 7 6 7 5 7 19 18 16 14 5 5 3 2 3 2 4 7 10 15 19 20 23 24 24 22 25 25 24 30 29 22 17 10 11 10 9 9 8
7 6 4 3 2 8 14 6 7 6 14 18 15 14 10 7 6 7 4 1 2 5 8 13 16 18 20 19 21 24 26 25 27 30 28 21 20 13 12 10 9 8 10 11
2 7 6 10 7 6 23 12 18 12 14 19 19 13 9 7 7 6 3 2 4 8 11 13 18 20 18 19 24 25 25 29 33 29 26 24 17 10 9 10 12 13 13 14
4 9 2 3 6 16 14 19 13 17 14 17 14 11 11 7 7 6 3 3 8 12 17 21 22 24 23 23 24 27 29 33 26 25 23 21 13 13 12 13 12 11 13 17
6 7 5 4 5 2 6 13 15 14 13 14 8 4 9 12 9 5 3 8 12 17 19 21 23 23 24 25 26 28 31 30 20 22 21 17 14 13 12 9 10 13 16 18
7 7 4 6 8 9 10 15 17 17 15 10 11 13 11 7 5 3 8 13 17 18 22 22 22 23 23 23 27 30 28 21 18 21 17 16 13 12 11 12 13 15 17 12

GFSCGP_850_spd_021.txt.gz
Wind_Speed
6 6 2 4 2 3 2 2 3 2 2 6 6 8 9 11 23 24 23 26 23 18 15 15 14 14 18 25 25 15 5 12 6 8 8 7 5 2 1 5 8 12 14 17
7 3 0 8 6 6 6 6 1 2 7 8 9 11 10 15 11 19 26 28 32 31 29 24 20 17 16 10 5 7 5 10 7 6 5 1 9 9 11 14 16 18 22 26
5 2 5 7 7 7 4 3 3 4 5 7 7 7 8 7 16 21 24 28 28 27 25 19 14 12 14 15 13 9 9 6 4 4 5 4 7 11 17 19 21 21 20 18
6 6 5 6 5 3 3 1 2 3 4 4 3 2 3 3 6 8 18 24 25 23 21 20 20 19 18 15 12 9 8 7 5 5 6 8 11 14 15 17 18 18 18 21
2 3 5 6 1 2 3 2 3 1 3 4 3 5 3 5 3 3 11 23 23 22 20 19 18 16 13 11 9 6 4 1 2 5 9 12 13 14 15 15 13 16 20 26
3 2 3 2 1 1 2 4 6 4 3 2 1 5 4 6 7 5 12 20 22 20 19 18 16 15 14 10 5 3 1 3 7 10 10 11 11 11 9 12 18 25 27 29
5 4 5 3 2 3 5 5 2 3 3 4 5 3 5 8 11 8 15 22 20 20 19 17 15 13 12 8 4 4 3 7 9 8 9 11 12 13 16 20 22 24 25 28
4 3 4 5 2 2 3 4 4 5 3 3 5 2 4 3 20 24 21 14 13 12 12 12 11 9 7 7 4 2 6 10 11 13 13 13 14 16 23 26 28 29 28 26
4 1 3 1 2 3 1 4 3 6 3 3 2 2 5 4 7 16 18 17 15 14 13 12 12 11 8 3 2 7 10 12 13 12 12 19 21 24 26 25 28 26 26 23
5 4 1 3 2 5 5 4 3 4 2 1 2 3 4 7 11 6 9 20 23 21 19 18 13 9 4 2 8 12 12 12 11 13 15 18 20 21 22 25 26 25 23 19
3 3 4 2 3 1 4 2 6 5 3 4 1 5 5 9 8 8 14 26 25 21 18 14 10 5 3 7 8 7 7 8 11 13 14 16 15 17 20 23 22 23 21 28
2 5 3 1 5 3 1 3 4 4 2 1 3 5 3 6 15 23 24 24 22 19 16 10 5 1 2 2 4 7 10 13 13 15 19 20 18 24 27 21 21 25 29 28
2 2 3 6 6 5 3 3 5 5 3 4 4 5 2 6 9 13 23 23 22 17 11 6 1 1 1 3 6 9 11 12 15 18 17 19 26 31 26 23 25 27 27 28
3 3 5 6 4 3 3 2 4 5 3 3 6 3 5 4 7 17 21 23 17 12 7 1 1 1 2 3 7 8 12 15 15 18 22 28 29 26 26 26 30 32 24 27
4 3 2 3 4 2 1 3 5 6 5 5 5 7 5 10 9 20 23 17 12 7 2 2 2 2 4 6 8 10 13 14 20 24 27 26 27 27 28 31 35 25 21 23
4 1 1 1 4 5 3 5 7 6 4 7 5 5 3 11 14 19 20 15 9 5 3 2 2 5 8 7 9 10 15 19 24 28 25 22 23 27 29 34 30 21 18 20
3 4 3 3 4 4 6 8 8 5 4 6 6 8 11 6 16 23 18 13 9 6 4 3 5 6 7 6 10 15 19 23 24 21 18 20 24 28 33 32 24 21 20 12
5 4 2 2 3 2 6 3 4 6 4 3 2 7 15 15 16 14 12 11 8 7 5 6 6 7 7 10 13 17 22 22 19 16 19 24 29 33 32 26 19 15 8 9
3 5 3 4 3 5 4 5 7 7 7 7 6 7 12 11 9 10 14 10 9 8 8 7 6 8 10 12 17 22 21 21 17 21 26 29 32 31 25 18 15 8 8 11
5 6 4 2 4 6 6 3 8 6 5 15 16 15 15 16 3 5 20 13 12 10 8 7 7 9 13 16 20 19 17 19 23 27 27 29 27 23 22 15 12 10 10 8
2 3 5 2 4 8 6 6 8 5 7 21 24 27 23 10 13 5 15 12 11 9 8 6 8 11 15 18 17 18 21 24 25 26 27 25 22 23 18 14 13 12 10 10
7 6 4 3 1 8 12 5 8 6 8 20 25 26 31 27 11 12 13 13 10 10 7 8 12 15 17 19 20 21 22 23 25 26 24 23 22 21 14 11 9 9 10 11
3 7 5 9 6 4 20 9 22 9 10 22 23 26 23 19 14 13 14 12 11 8 7 10 15 18 19 20 19 21 23 24 26 26 21 21 21 16 13 13 13 12 10 11
4 7 2 2 6 14 14 26 16 16 20 15 21 21 19 15 14 14 15 11 8 7 9 14 17 20 20 20 21 21 23 26 27 20 17 20 19 16 15 14 12 11 11 13
4 8 5 5 10 11 14 19 24 24 19 15 17 19 18 15 16 17 14 9 6 8 13 17 20 20 21 22 21 23 25 24 23 18 18 21 17 14 13 10 10 13 15 16
9 7 4 7 14 10 10 10 14 18 20 19 19 17 15 15 18 14 8 4 9 12 16 18 19 21 21 22 24 25 26 22 21 21 20 20 16 12 12 12 13 14 17 15

GFSCGP_850_spd_027.txt.gz
Wind_Speed
1 3 3 3 2 2 5 4 4 3 2 7 5 5 8 6 8 8 8 10 10 10 10 10 11 9 14 13 13 16 17 17 11 5 5 4 7 2 7 4 6 6 10 11
4 3 2 4 5 5 4 9 4 4 2 5 4 9 8 7 3 4 9 10 11 10 9 9 9 9 9 8 9 12 9 7 7 6 6 4 5 4 4 6 7 9 10 11
3 1 3 4 4 6 3 6 3 5 6 6 4 3 3 5 6 5 7 10 12 15 18 19 17 17 18 16 15 13 12 11 9 7 7 8 4 5 7 9 11 11 12 15
3 3 4 3 4 2 4 1 5 8 2 2 3 2 1 3 4 5 9 14 17 22 21 22 24 24 23 21 20 18 15 13 11 10 7 5 7 9 11 12 11 11 14 18
1 2 3 5 1 1 4 3 4 3 4 3 1 2 1 4 6 9 11 11 14 18 23 26 26 24 23 19 17 15 13 13 9 6 6 8 10 11 10 9 9 13 17 18
2 3 2 2 3 3 9 5 6 4 2 2 1 3 4 7 10 13 13 11 14 20 24 24 23 21 20 18 17 15 12 10 8 7 8 9 9 8 8 10 12 14 16 18
4 3 2 2 4 3 3 4 1 1 0 3 1 3 5 8 7 19 19 17 18 22 24 24 23 22 21 19 16 13 11 8 6 5 7 8 8 8 10 13 15 16 19 20
3 0 3 5 2 3 3 2 4 4 3 1 1 5 1 3 11 21 22 21 21 23 23 22 20 18 16 16 15 13 9 5 4 5 5 6 8 10 11 13 16 17 19 21
4 1 2 4 1 0 3 2 2 6 2 0 2 3 5 2 7 14 19 20 22 24 24 21 19 17 16 16 14 9 5 2 2 3 5 6 7 9 11 13 16 21 23 21
5 3 1 1 2 7 1 7 3 2 3 3 2 4 6 4 11 13 17 23 23 24 23 21 19 18 18 14 10 6 1 2 4 6 7 6 8 10 14 19 23 23 20 20
3 3 2 1 1 4 3 2 5 4 1 2 2 4 4 9 14 17 23 24 27 26 23 22 21 19 16 11 7 3 2 4 6 8 8 9 10 14 20 23 21 20 21 24
1 4 3 1 1 1 1 3 4 3 4 1 0 5 1 4 10 16 19 22 21 21 22 22 20 16 12 9 5 2 4 6 10 7 9 11 15 20 22 20 20 22 26 28
5 1 3 2 2 1 2 3 4 5 2 5 3 4 1 3 7 14 17 18 20 22 22 21 19 14 12 8 3 3 9 11 6 9 10 16 20 20 17 16 21 27 30 29
3 2 4 7 3 2 4 4 4 4 3 4 6 4 3 4 6 11 17 21 23 26 24 21 17 13 10 6 4 8 9 7 9 10 15 18 17 15 15 21 27 30 29 25
2 4 2 1 1 1 2 4 8 8 4 6 3 8 5 7 11 15 14 18 24 26 24 20 16 13 8 5 7 9 9 9 9 14 17 17 16 15 20 26 29 28 24 22
2 3 2 3 1 3 3 5 7 7 4 10 5 14 9 5 6 13 20 25 27 27 24 19 15 12 10 8 9 9 8 8 13 16 16 15 15 18 24 27 26 24 22 20
2 5 3 3 3 2 5 9 12 6 6 9 10 9 6 5 10 16 21 27 28 29 24 20 16 13 9 10 9 8 8 12 15 16 15 12 17 21 24 24 23 23 20 16
5 4 2 2 2 1 4 2 3 12 7 14 5 4 7 4 7 10 18 27 30 27 23 19 16 13 10 10 9 9 11 14 16 15 14 16 19 21 23 23 22 20 16 14
3 4 3 3 3 5 5 4 6 7 6 12 14 6 3 3 1 9 14 21 26 25 20 16 13 12 12 10 9 10 13 16 16 15 16 18 20 21 23 23 22 18 14 14
5 6 3 3 3 5 5 2 3 4 4 2 12 9 10 10 2 5 13 22 24 21 18 16 13 12 9 7 8 12 15 16 16 17 17 19 20 22 23 22 20 15 13 14
2 2 3 2 3 7 6 2 3 2 5 3 12 15 17 7 11 6 5 21 23 19 16 13 10 9 7 7 11 15 15 15 17 18 19 21 22 22 21 21 18 14 13 13
5 6 3 3 1 6 6 4 4 4 4 6 14 17 14 14 13 14 10 17 22 20 17 11 9 9 8 10 14 15 15 16 17 19 22 23 24 21 19 20 18 15 15 15
3 4 3 8 5 4 14 9 9 12 10 8 12 16 17 17 19 13 13 18 17 15 10 11 9 8 9 13 14 15 15 16 18 21 23 24 23 19 17 19 18 16 16 15
4 6 3 1 3 10 19 20 23 26 28 24 20 18 16 20 17 15 19 22 17 11 11 8 8 10 12 12 13 15 16 18 21 23 24 23 22 20 18 19 18 16 14 14
3 7 3 4 12 15 12 14 12 14 17 19 19 19 18 15 16 20 23 15 13 13 10 7 9 12 11 12 14 16 18 21 24 25 22 20 21 19 21 20 17 15 14 14
9 6 4 5 13 6 12 14 18 14 14 16 15 14 10 10 19 23 18 16 9 6 6 8 10 11 12 13 15 18 21 22 23 21 20 19 18 19 18 17 16 18 16 16

GFSCGP_850_spd_030.txt.gz
Wind_Speed
6 6 7 10 5 2 6 8 11 8 4 7 6 6 4 5 11 13 14 15 14 13 9 12 13 13 14 16 17 17 15 18 14 11 6 7 5 8 6 6 6 8 9 9
6 6 4 4 5 5 6 8 7 5 4 4 9 7 6 6 9 12 14 14 13 11 10 11 12 13 14 15 16 15 14 12 7 10 10 9 9 8 8 7 8 9 8 8
13 6 4 6 8 9 4 5 11 8 8 2 10 7 8 5 6 8 9 9 10 11 11 12 13 15 15 16 16 15 13 14 15 13 12 11 9 6 6 8 8 10 11 11
4 2 4 7 7 2 6 1 7 14 12 7 9 7 9 6 6 7 9 11 11 12 14 15 16 17 18 18 17 16 16 16 14 13 8 7 6 5 6 6 7 6 10 13
3 4 5 5 4 2 4 5 6 5 5 5 10 8 8 8 9 11 13 14 16 16 17 19 19 19 17 21 20 17 16 13 14 12 9 6 5 5 4 3 4 6 8 13
3 2 3 4 6 2 11 8 6 4 3 7 3 6 5 9 12 15 18 17 18 17 19 19 18 18 17 15 16 19 17 15 14 12 9 6 5 2 1 3 6 9 12 14
6 3 4 3 9 6 6 9 3 4 4 6 2 6 12 1 2 16 21 21 20 21 21 20 19 18 15 14 15 14 13 12 11 8 5 3 1 2 2 5 8 12 14 16
9 6 4 1 3 3 6 5 4 4 4 2 3 6 1 1 4 13 22 22 23 23 21 20 19 17 15 15 13 13 12 11 8 6 3 5 6 3 5 7 10 12 14 17
6 4 4 3 2 4 6 5 3 2 1 3 5 4 8 2 7 13 22 22 24 24 22 20 18 17 15 14 13 12 10 8 6 3 2 5 6 7 6 10 12 11 13 14
4 4 3 5 3 7 3 8 3 3 3 4 3 5 2 6 10 13 20 24 25 24 22 20 18 16 15 14 15 13 9 6 4 2 3 4 6 7 10 11 9 11 12 15
5 3 5 3 5 5 4 4 1 0 2 2 3 1 3 2 8 14 22 25 25 24 22 20 18 16 16 14 14 11 9 5 5 4 7 5 5 9 9 8 10 11 15 18
2 2 4 5 3 2 2 4 7 4 4 1 2 3 3 1 3 12 18 22 23 22 21 20 19 19 17 16 13 12 10 7 5 7 4 4 9 9 9 10 11 13 17 19
6 4 4 5 4 5 7 8 5 4 1 6 3 2 3 4 5 10 15 20 21 21 21 21 21 21 19 16 14 12 10 6 7 6 5 6 8 10 10 11 13 16 19 19
3 3 6 8 1 1 6 11 11 10 4 4 9 9 7 7 7 8 14 19 22 23 23 23 23 21 19 17 15 13 8 11 10 6 6 9 10 11 11 12 15 18 18 17
3 6 4 1 1 3 4 7 13 16 13 7 8 11 9 5 8 9 11 16 21 22 24 24 23 21 19 17 16 11 12 12 10 9 9 11 11 11 11 13 16 17 16 15
2 3 2 3 2 2 7 9 11 15 15 15 18 19 15 11 9 9 12 17 22 24 24 24 23 21 19 18 15 11 12 11 11 11 10 11 11 10 12 15 17 15 15 14
4 5 4 2 2 3 7 15 17 12 12 14 14 16 3 5 9 10 12 16 20 23 25 25 23 21 18 17 14 12 12 12 11 12 12 11 11 12 13 15 14 14 14 14
5 5 1 1 2 3 1 1 3 13 16 15 18 13 9 4 4 6 9 15 19 21 22 23 21 18 16 13 12 12 12 10 13 13 10 10 12 12 14 14 14 14 14 13
1 4 3 2 4 6 11 3 3 4 6 5 12 12 7 5 4 11 10 13 15 17 19 19 17 15 15 12 13 11 9 12 12 10 11 11 12 14 14 14 14 15 13 13
4 3 1 3 3 4 3 3 1 2 5 6 5 6 9 8 4 5 2 8 11 13 17 17 18 17 14 14 10 9 10 9 11 12 12 13 14 15 16 16 14 14 11 12
2 1 3 3 4 6 1 2 3 3 3 8 5 6 11 7 8 4 5 8 12 15 17 18 18 16 17 11 8 13 9 11 11 14 16 14 15 16 16 15 15 14 12 13
5 6 3 3 3 4 6 6 3 4 6 7 8 6 12 8 7 4 5 12 16 19 19 16 20 16 6 9 12 8 8 10 14 15 15 15 16 17 15 13 15 15 13 12
3 3 1 6 1 3 9 6 5 6 10 12 10 9 11 14 10 8 8 12 15 16 17 16 13 7 9 12 10 9 9 13 14 16 17 17 15 14 13 14 16 17 14 13
4 4 3 1 1 7 8 10 12 11 14 15 14 14 14 16 12 10 12 15 18 18 18 12 7 9 7 8 11 12 12 14 16 18 17 14 13 15 15 15 17 15 13 13
2 8 4 4 11 8 5 5 6 11 12 12 11 11 12 11 9 11 14 16 16 15 12 8 7 6 8 10 11 13 14 16 18 17 16 14 13 14 15 16 16 14 14 14
3 2 2 3 8 5 8 12 13 12 12 12 11 8 6 1 7 11 13 16 17 13 9 3 6 9 12 12 12 13 15 16 17 17 15 13 15 14 15 16 15 16 17 19

GFSCGP_850_spd_033.txt.gz
Wind_Speed
12 9 11 13 6 6 8 8 9 13 4 8 10 9 8 13 16 17 18 18 18 17 16 13 13 15 17 18 17 18 20 17 14 14 10 13 9 11 8 5 7 5 6 5
6 10 6 8 9 10 9 11 7 5 8 7 9 8 8 10 15 20 19 19 20 19 16 14 15 16 17 18 19 20 17 15 11 7 8 8 9 7 4 6 6 6 5 4
6 17 6 5 9 10 7 4 7 10 11 13 9 13 13 11 11 13 19 20 20 21 18 16 16 17 17 18 19 20 15 11 11 12 12 11 10 7 6 5 3 5 6 4
5 4 8 6 12 7 8 1 5 5 14 13 17 11 16 15 13 13 17 17 18 17 17 17 17 17 18 19 17 15 14 15 15 14 11 10 7 6 7 6 7 5 7 6
2 12 10 8 2 5 9 4 7 10 14 11 18 9 14 17 15 16 19 20 19 17 18 18 18 18 18 18 17 16 17 17 16 13 11 9 7 5 3 3 5 5 7 8
12 2 4 7 3 2 6 5 7 8 11 8 15 12 6 15 14 15 16 18 18 20 19 20 21 21 20 17 18 17 18 16 14 11 10 9 9 6 4 5 6 7 9 11
10 8 4 4 7 4 7 8 7 6 5 9 3 5 11 1 2 10 16 19 20 20 22 22 22 21 19 18 18 18 17 15 13 12 10 9 7 6 5 6 7 8 9 11
12 8 10 6 6 5 9 11 7 7 7 8 7 7 2 9 3 5 18 19 19 20 22 22 21 20 18 17 17 17 16 14 13 12 10 8 6 5 4 6 7 7 9 11
10 5 6 1 3 6 4 8 5 4 1 5 10 10 9 5 5 9 18 20 20 22 22 22 21 20 18 18 18 17 17 15 14 13 11 9 5 5 7 6 6 7 9 10
2 2 3 5 4 5 8 2 4 5 3 6 3 6 6 5 6 8 15 20 21 22 23 22 22 20 19 18 18 18 18 17 16 13 10 6 6 5 6 6 7 7 8 11
5 7 7 4 10 11 7 9 6 4 3 3 4 3 7 3 5 9 13 19 21 23 24 22 21 21 20 19 19 19 18 18 15 12 8 5 5 8 7 7 7 8 10 12
3 4 5 13 5 5 9 8 9 5 5 3 3 4 5 4 2 9 12 17 21 24 25 24 23 22 21 21 20 20 19 17 14 11 9 7 9 8 9 9 9 10 12 14
6 7 8 7 7 8 8 9 8 4 1 8 3 3 6 6 4 6 10 15 20 23 24 24 23 23 23 22 21 21 19 16 15 9 6 8 10 10 10 11 11 12 14 16
0 11 9 9 6 3 8 11 11 11 6 8 10 12 7 9 7 8 9 12 19 22 23 24 24 24 23 22 22 21 19 17 11 10 9 11 12 11 12 12 12 13 15 16
4 9 13 14 5 6 8 8 11 16 15 13 12 13 10 9 6 8 9 12 16 18 21 23 24 24 24 23 22 21 18 14 14 9 11 12 12 11 12 13 13 14 15 15
5 5 3 6 8 7 10 11 13 14 16 17 17 17 15 11 11 7 11 11 14 17 20 22 23 23 24 23 22 20 18 14 10 10 13 11 11 11 12 13 14 15 15 15
5 4 4 5 3 5 6 15 17 17 17 12 15 15 9 8 7 9 9 9 11 14 17 21 23 23 23 22 21 21 16 11 11 12 11 11 11 11 12 13 15 15 15 16
5 6 1 0 2 1 2 2 4 6 12 14 13 14 12 8 8 7 7 9 9 12 15 18 20 21 21 20 21 16 13 11 11 9 10 10 11 11 12 14 16 16 15 17
4 5 2 2 6 9 11 5 1 2 4 9 8 10 12 5 6 16 11 5 7 11 13 15 17 19 19 19 16 17 11 10 10 9 10 11 11 13 14 15 17 17 17 17
4 1 4 3 3 4 4 4 2 2 5 8 10 11 11 4 5 2 2 3 5 7 10 13 15 16 18 17 16 14 12 9 7 10 11 11 13 14 15 16 17 17 16 17
3 1 5 5 3 6 5 3 2 5 3 10 11 11 10 8 5 7 8 7 8 8 10 12 15 16 16 14 11 7 3 4 8 9 12 12 12 15 16 17 17 16 16 17
6 7 3 3 2 5 6 6 2 5 8 10 11 11 11 12 12 10 10 9 7 7 7 9 10 12 12 11 4 2 5 4 9 13 11 13 14 15 16 16 16 15 17 17
4 4 1 6 1 5 5 4 4 7 9 11 12 13 13 14 16 17 12 9 4 5 6 9 12 12 6 2 2 3 6 15 11 11 14 14 15 15 15 15 17 18 17 17
3 2 2 1 3 1 4 5 3 7 10 12 14 14 14 15 15 14 4 2 4 7 9 9 7 4 3 1 5 7 8 11 13 13 13 14 14 15 15 16 17 17 18 17
3 6 4 5 9 4 1 6 8 11 11 10 11 12 10 12 11 3 4 7 9 10 11 10 7 4 2 6 8 9 14 14 12 13 14 14 15 14 16 17 17 17 17 18
2 1 3 3 5 4 8 10 9 8 9 9 9 8 10 9 8 12 14 12 13 13 11 8 6 5 6 9 14 15 12 13 15 16 15 16 17 16 17 18 17 18 20 19

GFSCGP_850_spd_036.txt.gz
Wind_Speed
15 8 11 3 4 12 8 12 11 10 7 11 15 16 16 16 19 18 18 19 20 20 18 19 17 16 18 24 23 20 25 20 19 16 17 15 13 11 7 6 5 3 4 3
9 8 4 7 12 8 10 13 5 7 5 6 11 10 15 14 18 21 20 23 22 21 19 17 18 18 20 21 20 19 21 16 17 9 9 8 8 7 5 5 5 8 5 3
8 8 0 9 8 12 14 5 6 11 7 7 11 10 13 13 18 21 24 24 24 25 25 19 19 19 22 20 22 21 20 15 14 13 11 12 9 11 13 10 6 8 5 5
4 12 9 8 12 14 8 12 9 13 8 8 7 7 5 11 12 14 21 22 24 25 25 22 19 20 21 23 22 22 21 14 17 18 15 14 14 9 8 4 8 10 9 9
10 13 15 6 6 15 3 12 13 9 8 3 9 8 18 10 14 17 16 20 25 27 27 25 20 22 23 23 23 20 15 18 20 18 13 13 10 11 16 15 12 5 7 10
12 9 11 2 10 13 10 9 10 9 6 3 19 13 7 13 17 14 19 21 19 16 16 17 19 17 19 16 18 20 19 20 18 20 15 16 15 10 8 6 5 3 7 8
11 19 12 15 12 7 9 9 2 8 6 5 11 5 7 19 18 22 25 18 17 15 17 19 22 22 26 24 22 24 21 19 17 16 15 16 17 15 15 9 6 9 11 11
9 3 6 11 11 6 18 10 2 1 2 11 3 5 4 11 8 9 19 17 16 18 18 19 22 22 21 22 22 21 23 20 19 17 15 14 15 12 10 11 11 16 13 15
3 7 13 9 3 3 7 2 4 9 6 3 6 16 8 7 7 8 17 16 19 18 21 23 23 24 23 22 23 23 22 20 19 18 18 17 16 15 13 12 12 12 11 12
5 7 18 12 5 5 5 7 3 2 2 5 7 9 8 6 7 5 13 17 18 19 21 23 25 24 23 21 21 22 21 21 21 22 20 19 15 12 8 8 9 11 13 13
11 17 10 6 8 8 5 6 5 6 4 1 4 4 6 8 6 5 7 20 21 22 24 24 25 25 21 21 21 21 22 21 24 21 19 18 13 13 10 6 10 13 13 13
10 4 3 9 3 5 7 10 11 3 5 2 1 5 5 5 4 6 8 12 21 22 24 26 25 24 22 21 21 22 22 22 21 19 19 16 17 7 8 9 12 14 13 12
1 3 5 10 6 8 8 11 10 6 3 4 3 3 5 5 1 3 5 10 14 19 22 25 27 26 24 22 24 21 22 22 19 21 20 15 8 11 13 10 12 14 14 14
4 4 9 7 10 4 13 11 10 10 3 4 8 11 7 9 8 7 10 6 9 19 20 23 24 26 25 23 23 22 23 22 21 21 13 12 15 12 12 14 14 15 15 17
2 8 11 14 16 2 10 9 7 11 11 11 10 13 11 10 9 10 4 4 9 13 18 20 20 19 21 21 23 22 23 21 21 16 20 13 9 15 15 13 15 16 17 20
5 5 4 8 10 10 12 14 13 14 13 13 14 13 10 8 8 11 11 8 7 9 13 11 13 16 17 20 23 22 21 22 21 21 13 13 13 10 13 13 15 16 17 16
7 3 2 2 6 7 5 10 16 15 14 10 11 9 7 12 10 9 5 8 4 9 9 9 13 16 18 19 22 21 22 24 20 13 10 13 12 13 12 12 13 16 18 18
5 5 2 1 2 1 7 4 5 5 7 9 8 11 14 14 15 9 9 7 7 3 6 8 10 14 15 15 14 17 19 13 12 13 8 9 12 12 12 14 15 15 18 19
3 4 2 3 4 7 10 1 2 2 5 11 10 10 11 11 11 15 4 3 4 7 9 9 10 9 10 11 14 14 11 14 7 5 9 10 11 12 19 14 17 17 19 20
2 3 3 3 2 4 2 5 3 2 2 9 10 9 12 14 4 6 11 7 6 9 9 9 7 6 8 10 8 12 9 9 10 6 7 11 14 20 16 19 18 19 19 20
2 0 4 3 1 6 6 5 1 2 3 5 6 10 11 7 8 4 8 10 10 10 6 1 5 8 8 10 13 11 7 5 2 5 5 15 14 14 17 19 20 21 21 18
6 6 3 2 2 5 6 6 2 5 6 10 9 10 9 10 13 15 12 6 9 7 8 10 10 13 13 12 12 8 8 6 4 14 15 14 17 15 17 21 23 20 16 19
3 4 3 7 3 5 4 5 5 5 5 7 10 11 12 12 13 13 11 6 7 10 10 13 14 12 9 6 3 5 5 6 8 10 17 20 15 16 18 19 18 19 21 22
4 5 2 2 2 6 5 2 10 9 9 9 9 10 9 10 11 10 9 11 13 14 15 13 11 9 9 10 8 3 4 7 11 17 17 15 17 18 19 18 17 19 20 21
2 8 5 5 4 3 15 13 10 8 8 9 9 13 13 9 13 13 17 18 16 15 11 9 9 7 5 3 3 4 8 14 14 13 17 17 17 18 19 20 16 20 23 25
6 1 3 1 8 3 14 10 9 11 12 11 12 14 16 14 15 13 14 12 11 11 11 8 4 2 3 5 9 13 14 14 17 18 17 18 18 19 20 17 21 22 23 26

GFSCGP_850_spd_039.txt.gz
Wind_Speed
6 3 0 4 3 4 1 6 11 5 8 7 11 6 10 18 19 23 26 27 29 30 28 24 22 26 29 25 28 28 27 25 27 26 29 23 15 13 11 8 10 9 7 6
6 7 7 9 7 5 7 14 7 8 4 6 9 8 10 13 15 28 29 29 29 24 31 28 27 30 31 32 36 30 28 23 26 22 19 16 15 12 10 11 11 9 7 8
4 7 11 6 6 12 14 5 14 6 3 2 5 4 5 8 16 22 31 32 33 32 32 30 29 20 30 36 35 29 22 19 22 20 14 15 12 14 15 12 9 10 10 8
5 5 8 9 9 11 8 4 5 9 2 3 3 2 2 5 10 8 23 33 37 36 29 29 27 21 25 32 28 22 18 19 16 21 22 17 16 16 11 6 10 11 9 6
7 2 5 4 11 3 7 6 5 5 4 4 2 4 7 3 3 4 10 30 35 38 37 33 31 32 25 24 25 21 19 14 23 21 23 17 13 13 14 16 14 10 6 3
5 6 6 5 8 4 8 3 4 6 3 2 6 5 4 9 17 6 18 12 26 32 36 35 30 30 27 24 24 21 20 20 23 24 23 16 18 23 19 21 17 11 8 10
4 8 4 4 6 10 4 4 3 5 5 5 9 3 13 13 8 12 21 27 17 17 29 33 30 30 28 27 27 28 25 25 22 28 22 23 22 21 21 18 18 16 15 14
6 7 2 3 10 3 4 5 4 5 2 4 10 4 4 13 12 26 27 19 13 23 23 26 27 26 24 21 22 24 25 25 30 30 27 25 23 22 22 21 20 19 19 21
3 1 3 9 6 2 1 3 5 6 4 4 5 4 5 8 5 10 14 15 18 18 19 21 23 23 22 24 22 25 26 30 27 26 27 28 28 26 23 20 18 17 17 18
4 3 3 12 12 11 4 3 4 3 4 4 3 3 4 4 6 9 12 22 21 20 21 22 24 25 28 29 24 21 22 24 25 25 26 27 25 22 19 17 13 15 12 16
6 4 5 5 6 10 1 2 3 3 4 4 0 4 1 6 8 9 14 28 29 26 25 27 27 26 26 25 24 24 22 21 23 25 26 25 23 20 17 13 11 10 12 19
8 5 4 18 17 9 5 5 2 4 4 2 5 5 2 5 8 12 13 29 30 29 29 29 29 29 28 27 24 23 27 23 24 27 28 25 21 15 14 9 9 11 16 20
3 2 3 3 3 4 3 4 4 3 3 4 5 5 4 6 3 9 10 10 28 29 29 30 31 33 33 30 29 29 28 27 22 26 24 22 19 15 10 16 14 12 18 18
4 1 6 6 6 2 5 5 5 5 4 3 5 5 12 7 7 8 11 6 17 29 29 32 35 36 38 37 33 30 29 29 26 23 22 19 14 12 15 9 10 18 16 17
4 4 1 5 5 3 4 5 6 4 6 7 8 7 13 3 6 13 7 7 5 6 16 26 31 35 34 32 29 27 24 25 29 24 23 16 15 14 13 18 14 15 26 22
1 2 3 2 6 7 3 5 8 6 5 1 4 6 4 7 9 12 12 10 9 8 11 7 5 20 27 29 26 24 24 29 29 24 21 19 16 13 6 9 14 16 16 22
6 4 3 2 4 6 6 6 6 6 4 3 4 4 7 10 12 13 12 14 8 5 5 8 2 4 14 18 17 25 25 27 26 23 18 11 8 11 14 14 13 15 19 22
6 5 3 3 3 1 9 1 5 6 6 8 9 7 9 11 24 23 15 19 17 15 15 10 6 5 8 10 16 20 22 22 20 15 13 9 7 4 4 7 10 17 19 22
4 5 2 4 4 5 6 2 2 4 4 6 8 8 16 16 15 21 20 16 15 14 11 9 6 2 6 11 18 20 19 17 17 12 8 5 7 3 6 14 14 22 24 22
7 5 5 2 4 6 6 3 5 4 2 6 13 10 12 18 5 3 10 12 12 7 6 3 9 13 17 19 19 21 22 19 17 11 7 4 3 7 9 15 19 17 23 26
3 3 5 2 2 7 5 6 2 6 5 9 13 12 12 5 4 2 4 10 10 10 9 12 15 18 20 18 18 18 17 14 7 4 1 12 9 7 13 16 19 20 24 28
6 6 3 4 3 5 10 4 6 7 13 13 12 12 11 10 13 14 18 16 12 13 12 12 14 16 14 12 10 11 9 6 6 15 20 11 9 16 17 18 20 22 23 23
2 6 6 7 6 7 14 21 21 20 18 16 15 11 8 11 13 13 18 16 15 13 13 11 9 9 7 4 5 8 14 18 14 5 7 14 19 18 17 19 20 23 22 23
2 6 3 5 3 6 24 25 20 16 16 12 9 7 5 8 11 17 17 16 15 13 11 10 10 11 11 10 8 6 4 5 7 10 16 16 17 19 19 20 19 20 21 22
5 5 5 3 12 23 19 18 18 18 15 11 10 11 12 8 14 14 14 12 12 13 12 9 7 7 8 7 7 7 10 13 16 16 17 19 20 20 21 21 22 19 18 23
2 4 4 4 8 17 12 19 16 17 16 12 9 10 11 8 12 12 16 15 13 12 11 11 12 12 9 8 10 12 15 16 20 23 23 20 22 24 25 25 27 22 22 24

GFSCGP_850_spd_042.txt.gz
Wind_Speed
3 5 3 4 4 4 4 1 4 7 8 6 9 7 9 19 20 20 29 29 35 39 39 41 42 39 34 28 33 37 36 33 28 28 27 27 26 23 16 12 10 9 12 11
3 2 6 5 7 5 3 7 10 9 5 7 6 7 6 11 17 29 31 33 37 38 38 43 43 40 34 30 30 31 33 30 28 26 26 25 24 22 16 13 12 13 13 13
6 6 1 3 5 4 6 3 8 8 2 1 6 6 4 6 9 23 29 41 41 43 47 44 44 39 34 35 32 28 27 29 28 28 26 26 23 21 20 18 17 18 16 14
4 3 4 4 3 4 5 10 16 6 5 2 3 4 4 6 8 11 22 28 38 42 45 44 43 41 40 39 33 29 29 29 26 29 29 26 25 25 23 22 19 18 16 13
7 3 3 1 6 1 7 1 6 3 3 3 3 4 6 5 6 10 20 35 41 44 45 43 42 42 40 39 36 31 29 26 19 22 28 25 19 20 19 20 19 18 16 16
4 1 4 7 5 2 4 4 6 4 2 1 1 2 4 5 16 14 11 31 35 39 43 44 40 37 36 35 33 30 29 24 22 24 31 28 23 21 22 23 23 19 18 17
2 4 2 1 5 4 3 5 3 5 4 5 5 4 8 6 8 9 11 21 28 37 40 43 40 33 31 31 30 27 27 23 23 28 29 29 26 24 24 24 27 22 21 19
6 2 3 3 3 3 2 5 5 4 2 4 3 4 5 8 14 19 15 15 12 24 40 40 37 34 31 31 28 28 28 25 24 29 29 30 28 25 24 23 25 24 21 18
4 4 4 3 3 2 2 3 4 6 3 3 4 5 5 5 6 4 7 9 11 20 34 38 36 33 32 30 26 24 25 25 27 28 28 31 29 25 23 23 23 21 17 14
7 2 3 4 4 7 6 3 2 3 3 3 4 4 4 1 3 2 4 13 19 22 27 28 32 30 25 25 26 24 22 25 28 27 30 26 22 24 23 21 19 20 18 21
5 4 4 3 7 9 1 2 1 4 4 4 1 5 5 8 8 8 10 17 23 25 24 24 25 27 26 25 27 25 24 24 26 30 31 28 26 24 22 20 19 18 14 18
7 5 4 8 6 5 1 4 5 4 4 1 4 5 4 8 8 15 18 21 28 28 26 27 26 27 28 27 28 27 28 29 29 29 30 28 28 27 25 21 19 20 25 22
7 1 2 6 6 2 5 5 4 4 3 6 5 5 3 3 4 14 20 28 30 32 32 32 32 34 34 34 32 32 32 29 29 29 29 30 28 25 23 22 24 17 16 9
11 5 7 7 7 4 3 2 1 5 3 4 6 5 7 7 7 8 12 16 28 33 34 35 37 37 39 38 37 38 31 29 29 28 31 31 27 23 24 23 22 18 9 12
4 5 5 5 4 2 3 5 3 5 4 5 9 8 8 3 3 5 14 5 4 19 26 30 33 38 39 38 38 34 30 32 32 30 31 27 22 20 18 17 12 12 8 7
2 3 2 2 3 2 2 4 4 5 3 5 5 2 6 10 14 15 10 15 16 12 9 5 7 31 31 34 35 31 33 30 28 28 26 25 24 21 19 17 9 6 5 4
6 5 3 4 3 3 5 7 7 5 3 5 5 5 2 7 9 8 14 16 15 14 13 9 6 3 8 17 20 25 31 31 28 26 23 20 18 16 10 6 6 6 6 16
6 5 3 3 3 2 7 4 5 9 5 7 8 5 8 15 20 20 17 19 17 14 10 9 8 7 11 16 21 25 26 25 27 25 22 18 15 11 10 6 6 19 19 15
5 5 3 4 3 4 5 5 6 6 1 1 7 5 12 20 23 19 15 13 11 7 7 5 3 3 7 16 20 23 27 28 26 23 19 16 15 3 11 21 20 11 16 20
7 4 4 3 4 7 7 3 9 7 2 6 12 6 7 7 3 0 11 8 9 10 10 9 9 4 6 14 20 26 27 25 22 18 14 4 12 24 15 8 13 16 16 18
3 3 5 2 3 7 7 6 6 6 6 12 16 13 9 5 5 18 13 13 12 12 13 15 15 16 16 19 19 19 17 12 7 2 8 20 16 6 9 13 16 17 19 22
7 6 3 3 3 6 9 5 7 7 14 20 17 18 22 22 22 19 16 16 15 16 17 16 17 18 16 12 6 3 5 9 12 17 13 9 7 11 16 17 16 18 20 22
1 7 6 8 5 4 3 10 24 27 25 18 19 18 14 18 19 17 17 16 16 14 15 14 13 14 13 7 3 1 2 4 4 4 5 10 14 16 16 18 20 21 22 23
2 6 4 5 5 6 19 23 25 22 22 19 16 14 10 17 18 18 17 18 18 17 15 12 10 8 8 9 9 9 8 8 8 11 13 14 17 18 19 20 22 24 24 26
6 8 6 4 2 16 14 18 23 23 20 18 16 13 13 14 17 18 20 19 16 13 12 10 12 13 11 9 9 9 9 10 12 14 16 18 19 20 23 25 27 28 28 27
5 7 5 5 19 10 10 19 20 21 18 16 15 19 16 16 21 19 19 16 16 17 16 14 12 9 8 7 8 9 10 13 16 19 21 23 25 27 29 31 33 29 28 29

GFSCGP_850_spd_045.txt.gz
Wind_Speed
2 4 2 5 3 5 4 3 5 6 4 6 7 5 7 15 19 19 25 29 31 33 30 30 29 32 34 31 32 32 30 32 32 32 30 31 29 25 23 19 14 13 15 16
4 2 7 5 4 3 3 1 3 6 5 6 3 8 3 7 11 29 30 31 33 33 32 35 34 35 33 32 33 35 34 34 34 34 32 32 29 26 22 18 15 14 15 16
5 4 2 4 2 2 1 1 5 3 6 2 4 5 5 6 8 21 28 37 35 39 39 38 41 39 37 37 35 35 37 36 35 32 31 30 30 26 25 22 17 15 15 14
4 3 2 3 3 3 1 3 6 5 2 4 4 4 5 6 11 13 26 33 39 40 43 42 44 43 41 41 38 34 37 39 37 33 34 34 32 29 25 22 18 17 17 14
7 7 4 3 5 4 5 1 4 2 5 2 0 2 7 2 7 12 23 32 39 44 46 48 49 45 42 44 41 39 40 37 36 35 33 31 31 27 23 21 20 19 18 18
4 1 4 5 4 6 3 2 7 4 3 2 3 4 5 4 11 12 9 27 37 45 47 46 46 44 45 46 43 42 39 36 33 30 30 29 33 28 22 19 22 21 20 20
2 3 2 3 3 2 4 5 3 4 3 5 1 1 8 6 8 8 13 31 37 43 46 48 45 45 45 45 43 40 39 38 33 33 25 26 29 25 22 20 24 25 24 24
5 5 6 3 3 5 2 5 4 3 2 4 2 4 5 5 11 9 15 22 31 36 43 46 48 47 46 42 39 39 37 39 33 33 29 27 28 25 22 23 25 27 28 29
5 5 1 2 2 5 2 2 3 6 2 3 3 6 9 7 5 7 6 14 17 27 38 44 45 46 43 39 37 36 32 30 28 30 27 27 29 27 28 29 29 28 29 27
7 1 3 2 2 4 5 4 1 3 1 2 4 4 5 6 5 2 4 10 15 20 31 37 42 41 37 34 32 32 26 25 25 30 28 28 29 28 31 29 27 31 32 27
5 5 4 2 5 7 2 2 3 4 4 4 1 5 6 7 5 5 3 7 13 15 16 19 24 31 31 32 29 29 26 24 26 27 26 30 29 31 30 28 30 31 31 32
7 6 5 9 3 1 3 5 5 4 4 2 4 6 3 6 7 7 11 10 15 17 15 17 16 21 27 28 27 29 29 28 28 28 30 27 28 27 27 30 30 30 29 23
8 1 2 7 4 2 4 4 4 4 3 6 5 6 3 4 4 12 16 13 15 21 22 23 25 22 22 25 29 28 30 28 29 29 28 29 30 29 29 28 25 22 20 15
9 4 8 9 9 4 3 4 4 5 3 4 6 6 5 7 6 9 17 16 17 19 24 25 27 27 27 31 30 27 31 32 29 28 29 28 28 28 24 23 22 20 15 12
6 4 4 4 4 3 4 4 7 6 6 6 8 7 6 5 5 7 11 4 6 11 18 23 26 28 30 32 32 30 30 30 30 30 29 29 28 24 22 21 14 11 10 9
3 4 3 2 3 4 4 5 6 6 3 6 5 5 3 4 4 14 14 15 14 12 9 2 10 24 30 33 31 28 25 27 27 27 28 26 24 21 19 18 18 17 14 7
5 6 4 4 2 2 5 8 8 6 5 6 6 8 3 3 7 10 15 15 14 11 8 5 4 3 4 14 21 26 25 25 25 25 23 24 23 22 20 18 11 3 13 22
7 6 3 3 3 3 7 3 4 5 2 4 5 6 5 10 15 15 13 13 13 11 10 7 4 1 3 6 13 17 20 22 21 22 25 25 26 23 14 2 14 19 15 12
3 5 3 5 4 5 3 3 7 6 2 3 7 8 14 19 19 12 9 9 8 8 7 6 4 2 2 6 11 16 19 19 21 24 23 18 12 3 7 20 21 10 10 14
6 6 5 3 5 7 8 4 7 6 2 5 7 9 13 6 3 3 4 7 7 5 5 4 5 5 5 7 11 15 18 21 22 18 12 4 4 16 25 11 7 12 16 18
3 3 6 3 3 7 7 6 11 6 7 18 20 20 17 5 5 14 11 10 8 7 7 7 8 9 10 11 10 13 15 13 9 3 10 18 17 9 7 9 14 18 20 21
7 7 4 3 3 6 6 6 8 6 13 25 19 16 13 15 19 19 15 13 12 12 14 14 16 18 17 14 9 9 4 3 7 9 9 6 6 10 14 16 17 18 21 24
3 7 6 8 6 3 5 6 7 25 31 21 24 21 19 24 22 20 17 17 18 18 17 16 15 15 12 8 5 2 2 2 3 4 6 9 11 14 16 19 20 21 23 27
2 4 4 4 1 1 3 13 28 25 28 25 23 24 23 24 23 22 22 21 19 17 16 14 11 10 10 9 8 7 4 2 4 7 9 11 13 15 17 19 22 26 29 31
5 9 7 3 2 4 4 16 25 24 24 25 23 22 21 22 25 25 24 21 18 16 14 12 12 13 11 7 5 3 4 5 8 10 13 17 20 23 27 28 30 32 35 32
7 7 6 5 20 8 15 22 22 25 24 22 23 22 20 22 26 24 23 20 18 18 16 14 12 10 8 4 2 3 7 10 13 16 19 23 26 29 31 34 40 38 39 40

GFSCGP_850_spd_048.txt.gz
Wind_Speed
3 4 3 7 5 3 2 3 5 3 5 4 6 6 8 12 13 17 23 27 28 28 25 26 27 27 28 27 28 27 26 23 25 29 30 30 28 25 25 19 18 18 15 16
4 4 6 3 3 3 2 3 4 4 3 3 4 4 4 10 16 23 29 30 29 28 27 28 28 30 31 31 30 29 27 26 27 28 29 29 27 26 24 21 21 19 16 16
5 4 5 3 3 2 2 3 2 2 5 0 1 5 5 5 14 19 25 33 32 33 31 30 30 31 33 35 34 32 31 30 30 30 30 31 29 31 28 24 25 22 18 17
5 3 4 3 3 5 2 3 3 4 5 3 2 4 4 4 8 9 24 32 35 36 35 33 34 34 36 35 33 31 29 30 31 32 33 34 32 34 29 23 23 19 19 18
6 3 4 4 5 5 6 1 1 1 3 1 1 3 7 2 6 12 19 32 38 39 37 36 38 38 38 35 34 31 31 34 34 35 35 35 33 33 27 23 20 20 22 22
4 2 4 6 3 6 2 3 5 4 3 1 3 5 5 4 7 5 13 26 37 41 42 40 39 38 37 38 37 36 35 35 35 37 37 36 33 32 29 25 22 22 23 23
2 3 2 4 2 3 2 5 3 4 3 4 2 2 9 5 6 7 10 30 41 45 43 43 42 42 41 40 40 39 38 38 37 36 38 38 37 33 27 24 21 22 24 25
6 5 5 4 5 7 3 6 5 2 2 3 1 4 5 3 5 12 15 17 29 37 41 44 44 43 42 42 41 38 38 39 37 38 35 39 41 35 29 26 22 20 23 27
5 5 3 2 0 4 3 2 4 6 3 2 3 6 10 4 3 7 5 7 16 26 36 41 43 43 42 42 41 37 34 40 40 39 37 39 36 36 30 25 24 24 27 30
8 1 2 2 2 2 3 6 3 3 2 3 4 4 5 7 4 3 4 2 5 12 21 30 36 40 40 39 39 34 34 31 34 39 39 40 34 35 28 25 26 28 28 33
5 5 3 1 4 6 2 1 4 5 4 4 1 5 7 6 4 5 5 2 3 8 13 17 22 26 30 32 32 30 34 33 31 31 34 33 31 28 25 24 26 27 28 32
6 5 5 9 1 2 4 7 6 4 4 1 3 6 4 7 6 7 7 4 2 5 9 11 12 13 15 19 25 29 33 32 28 28 25 25 25 25 25 28 26 27 27 26
7 1 1 7 5 2 3 5 4 5 4 6 5 6 2 5 6 6 10 7 6 10 12 14 16 18 20 22 25 26 21 18 19 22 24 24 26 26 23 22 22 20 22 19
10 4 8 9 8 5 4 5 5 6 4 5 6 6 7 6 6 9 10 10 11 12 15 16 17 18 19 22 23 20 19 19 20 21 24 27 25 21 20 20 20 19 18 14
6 8 6 3 3 5 5 5 8 6 6 6 7 7 9 5 5 9 11 6 6 9 10 14 15 14 17 18 19 20 21 21 22 24 23 21 21 21 20 19 18 19 20 17
2 4 3 3 3 1 4 4 7 4 3 5 4 6 6 2 2 6 5 9 14 13 10 4 1 5 8 12 15 18 18 17 17 17 16 18 20 19 20 19 19 18 15 14
8 7 3 4 3 3 5 8 7 6 5 7 7 10 6 2 6 6 10 13 14 13 11 10 10 7 5 4 5 8 10 12 14 15 16 17 18 19 16 14 14 11 7 11
7 7 3 3 3 2 6 2 3 8 6 5 4 4 6 11 13 12 10 12 15 14 13 12 10 9 6 3 2 4 7 10 12 14 14 16 17 17 16 9 3 14 20 26
1 6 3 5 4 5 3 5 7 7 9 6 5 6 14 21 15 10 9 11 12 11 11 9 7 5 3 2 1 3 6 8 9 12 16 17 15 10 4 7 17 24 15 10
6 6 5 3 5 8 8 5 8 5 5 8 11 9 14 14 4 3 8 9 10 8 7 6 6 6 5 5 4 4 8 9 14 16 14 10 4 5 15 18 7 9 13 16
3 3 5 3 3 7 7 4 11 5 8 18 26 26 21 5 4 17 13 11 9 8 8 9 10 10 11 12 9 12 13 12 10 6 3 9 11 10 7 9 12 15 17 20
7 7 3 3 3 7 11 6 9 7 3 28 31 30 20 11 16 19 15 13 12 13 14 15 17 18 18 15 11 14 10 6 0 4 5 4 4 7 9 12 14 17 20 23
3 6 6 9 7 4 16 6 16 6 10 27 29 24 23 22 22 20 19 17 17 17 18 17 17 19 16 12 8 7 7 5 3 2 2 4 7 10 13 16 19 22 24 28
3 4 4 4 5 5 11 16 14 15 20 28 27 26 25 24 24 23 22 22 21 20 19 17 15 14 14 10 7 6 5 2 2 4 7 9 13 16 18 21 24 27 29 31
4 8 6 3 4 2 12 17 18 20 23 24 25 25 24 25 26 25 25 23 22 20 17 14 12 12 11 7 5 4 2 3 5 8 11 15 19 22 25 27 29 30 30 30
7 7 6 8 16 14 11 22 22 26 27 28 29 26 23 24 26 26 25 23 21 19 16 14 12 9 9 5 3 1 3 7 10 13 17 20 24 26 27 30 33 32 33 33

GFSCGP_850_spd_051.txt.gz
Wind_Speed
1 2 5 7 4 1 1 0 4 1 4 2 3 6 9 17 14 13 14 15 18 25 25 26 26 30 34 35 29 28 26 24 25 27 27 28 29 28 27 23 21 18 16 15
1 4 6 3 2 3 3 2 3 2 2 2 4 4 5 16 21 21 19 19 22 22 22 29 29 30 32 32 32 30 27 26 25 26 26 28 28 27 26 25 25 23 18 18
5 2 3 4 2 3 3 3 2 2 2 2 3 3 2 5 10 15 19 20 20 24 27 30 33 33 32 34 34 31 30 28 26 26 26 28 28 28 31 28 26 21 20 20
4 2 5 3 4 6 3 4 4 4 2 2 2 3 3 4 10 13 23 24 28 28 29 28 31 33 35 35 33 32 31 30 29 29 28 29 31 32 31 28 24 20 21 21
4 5 5 4 5 5 4 3 0 2 3 0 0 2 3 1 6 15 22 30 30 31 31 32 33 34 33 31 31 30 31 31 31 31 31 31 32 33 31 28 22 21 22 23
4 2 3 5 4 4 3 2 5 4 2 1 1 3 4 4 3 3 13 24 30 36 36 34 34 32 32 31 32 31 31 32 32 31 31 32 31 32 32 31 27 24 25 26
1 3 2 3 3 2 2 2 1 0 1 3 4 3 7 4 7 6 10 13 26 38 40 38 36 36 35 34 33 34 33 32 32 31 30 30 30 35 35 36 28 26 27 27
6 4 7 5 5 5 5 5 3 3 2 0 1 4 3 3 9 10 11 12 12 24 38 42 41 39 37 35 34 34 34 34 32 32 31 30 27 34 35 37 29 25 27 23
5 4 1 3 3 5 4 4 2 6 2 1 2 3 8 2 2 5 9 7 4 11 23 33 38 40 39 36 34 34 33 32 32 31 31 31 30 32 33 35 34 28 29 28
7 2 2 1 3 4 2 6 3 1 4 3 2 3 3 4 3 4 5 5 5 5 9 16 23 28 31 33 31 31 31 28 28 25 25 32 33 32 34 33 31 29 29 27
5 3 1 2 5 8 3 2 5 3 1 2 1 3 5 4 2 3 3 3 1 2 2 5 8 11 15 20 22 23 26 25 28 28 26 26 28 31 33 30 27 27 26 30
6 4 4 6 1 1 3 6 5 3 4 0 1 5 3 5 6 8 7 3 3 6 5 4 6 5 6 9 12 15 18 20 22 23 24 24 23 20 23 25 20 24 24 26
8 2 2 1 1 2 3 4 4 4 3 7 4 4 1 3 3 7 9 6 4 8 10 9 9 9 10 11 14 14 14 15 16 18 20 20 21 21 21 20 17 15 16 20
14 4 6 9 7 5 4 6 7 5 3 5 6 6 6 7 7 8 8 8 7 6 8 8 7 8 10 10 11 13 15 15 17 18 19 20 19 17 13 12 11 14 16 17
5 7 6 5 5 6 6 6 11 10 7 8 8 9 9 6 6 5 9 7 1 4 5 6 6 7 7 7 8 9 11 14 15 14 14 11 10 9 9 10 12 13 16 19
2 4 5 4 4 7 6 5 8 10 4 9 7 6 9 4 3 1 2 6 10 12 12 11 9 8 7 5 3 3 4 4 5 6 7 6 6 8 10 11 13 15 18 19
3 6 4 5 2 3 3 8 10 6 5 7 8 11 6 6 7 7 8 12 14 15 17 18 17 14 12 9 6 4 3 3 3 3 4 6 7 9 10 11 12 12 7 7
5 5 1 3 1 5 2 2 3 8 5 9 5 4 6 5 8 10 11 14 16 16 17 17 15 13 11 9 8 7 6 6 6 8 9 10 11 12 12 10 8 3 6 13
3 5 3 4 4 4 1 4 7 7 15 9 13 7 8 16 12 5 12 14 16 16 16 15 13 12 12 11 11 9 11 11 11 12 14 15 14 11 10 6 7 13 13 8
4 3 4 3 5 8 6 4 7 4 12 9 12 11 19 17 8 6 15 15 16 15 14 14 15 15 13 14 13 12 16 16 16 14 12 10 6 5 9 11 8 7 9 13
3 2 7 3 4 6 6 5 12 5 10 9 19 19 27 10 3 23 21 18 16 16 16 16 16 16 16 16 15 18 18 17 14 9 5 3 6 6 5 5 8 11 14 17
7 7 4 3 2 7 11 8 9 8 6 11 19 24 24 16 21 27 23 21 19 19 19 18 20 21 20 18 14 16 13 10 6 2 1 0 1 2 5 8 11 14 18 21
5 5 5 9 7 3 26 9 23 10 8 9 23 30 32 26 28 28 27 24 22 21 22 22 22 23 20 16 12 11 11 7 4 3 2 0 3 6 9 13 16 18 21 23
5 4 4 3 5 7 16 24 14 18 15 11 24 36 33 29 31 29 28 27 26 24 24 23 21 20 19 14 11 8 8 6 4 2 1 4 7 10 13 16 18 19 21 23
5 6 5 4 5 3 16 25 25 21 15 14 24 33 31 29 31 31 31 29 28 26 25 22 20 19 18 14 11 10 7 4 1 2 5 8 12 14 17 18 19 20 20 22
7 6 6 7 13 11 15 28 26 21 21 22 30 30 28 29 32 32 30 29 29 27 24 21 19 17 16 13 10 8 4 1 3 6 9 12 15 17 18 19 20 21 22 22

GFSCGP_850_spd_054.txt.gz
Wind_Speed
10 8 10 5 3 9 5 8 8 5 3 5 5 9 5 15 16 15 14 17 18 19 19 19 24 27 28 29 30 27 25 23 20 19 19 20 21 21 24 27 25 22 23 23
7 11 4 3 4 5 6 8 8 3 7 5 6 10 2 13 17 16 16 18 19 19 21 22 24 29 31 31 30 27 26 23 22 19 19 19 19 21 25 29 27 27 27 24
12 3 3 7 8 9 9 10 4 6 6 6 10 13 5 8 13 14 16 16 18 22 24 26 27 29 31 33 32 29 26 24 23 21 19 19 17 19 27 30 30 31 27 25
11 7 8 9 11 10 11 5 7 7 7 8 2 5 3 6 10 15 18 20 21 23 24 25 28 30 32 33 31 30 28 26 24 24 22 22 21 21 24 30 31 27 25 23
9 9 10 10 10 7 4 2 3 6 9 6 7 7 4 3 8 13 19 23 24 24 27 29 31 32 31 30 30 29 28 27 26 25 25 23 23 21 20 26 26 25 24 25
8 3 5 4 4 8 6 5 4 5 6 9 10 8 4 5 4 2 5 19 24 26 28 29 29 27 28 28 29 29 29 29 28 28 29 29 27 26 23 26 26 26 25 25
14 13 6 6 7 7 10 7 6 6 6 7 3 6 9 6 3 6 8 9 13 26 28 28 28 29 29 30 30 30 31 30 29 29 29 29 30 30 29 25 27 28 29 28
14 13 15 11 13 9 14 12 6 5 4 2 4 6 3 3 4 9 9 10 12 17 26 31 29 30 28 29 29 31 31 30 29 29 29 29 27 28 29 29 27 30 31 29
15 13 5 7 5 10 7 9 4 2 1 4 5 6 8 1 1 2 4 4 4 9 16 23 29 27 25 25 26 27 26 25 25 29 27 27 26 27 28 27 26 25 26 29
7 9 5 7 6 4 7 10 6 5 5 6 3 5 1 4 2 2 4 4 3 2 6 11 17 23 23 22 20 21 22 22 21 22 23 23 22 21 23 24 24 22 23 24
10 9 6 7 11 11 6 7 4 3 3 4 4 4 1 3 1 2 2 3 4 2 1 4 8 11 14 15 16 16 16 16 16 16 16 17 16 15 18 21 21 18 20 20
16 9 9 13 3 5 9 11 11 7 6 3 4 8 4 7 4 4 6 5 3 1 4 5 7 9 10 11 11 12 11 12 12 12 12 13 16 16 17 16 18 18 17 18
13 9 10 9 6 4 9 11 12 7 3 11 7 5 5 4 6 8 7 7 5 3 4 7 8 8 10 10 10 10 9 9 8 9 11 14 15 17 17 16 14 13 14 15
21 14 16 13 13 11 11 13 15 14 8 11 11 12 9 12 10 10 7 6 7 6 7 7 7 7 7 8 7 7 10 11 11 12 13 13 14 13 10 9 9 10 11 13
11 16 17 17 16 15 16 14 15 16 16 13 13 15 13 12 10 4 5 4 6 8 8 9 10 10 9 8 9 10 9 9 10 10 10 7 5 4 5 6 8 10 11 11
6 10 10 12 13 13 16 17 18 18 17 12 16 17 13 13 7 6 5 6 7 8 8 8 11 11 11 10 9 8 7 6 6 5 6 5 5 5 6 8 7 9 10 12
4 9 8 13 8 8 6 15 16 16 14 14 14 14 12 11 12 10 7 9 11 11 12 12 13 13 14 13 12 11 10 9 8 7 9 8 8 8 9 8 8 8 7 8
5 9 5 5 4 7 10 3 17 18 15 14 15 13 13 12 4 8 6 11 14 14 15 14 15 16 16 15 14 14 13 12 11 12 11 11 11 11 9 7 6 4 5 7
14 7 4 4 9 10 3 5 8 13 15 16 18 18 12 7 10 6 9 13 15 15 15 15 16 17 17 16 16 15 17 16 15 16 14 13 10 7 4 1 2 6 6 3
7 8 7 3 7 8 9 12 14 4 14 11 13 13 10 15 8 7 18 17 18 17 17 17 17 18 18 18 18 19 19 18 17 15 14 11 9 5 2 3 2 2 2 5
5 4 11 11 7 6 4 10 14 10 15 5 10 10 17 13 6 20 24 19 17 18 19 19 18 18 18 19 19 20 19 17 15 13 9 7 4 3 1 1 1 4 6 9
8 8 5 7 6 11 13 11 12 14 6 9 12 14 20 14 14 23 24 22 21 20 20 18 19 19 18 18 17 18 17 15 12 8 6 5 5 3 1 2 5 8 11 13
6 6 4 7 6 4 27 19 24 10 11 10 13 15 20 20 21 24 24 23 21 21 21 20 21 21 18 17 16 17 15 13 10 8 7 6 3 1 3 6 8 8 9 10
6 5 4 5 10 13 17 23 10 12 12 9 11 17 24 27 27 26 24 23 22 22 22 22 22 21 20 17 16 14 13 11 10 9 6 4 2 3 5 6 7 7 9 11
10 10 13 14 14 15 17 19 20 15 15 14 12 19 25 28 28 28 26 25 24 23 22 21 21 20 20 19 17 15 13 11 9 7 4 2 3 3 4 6 6 7 10 13
10 8 8 10 16 12 20 8 17 21 22 17 18 21 24 28 31 29 27 26 25 25 24 22 21 22 21 20 17 15 13 10 7 4 3 2 4 5 4 4 4 12 11 13

GFSCGP_850_spd_057.txt.gz
Wind_Speed
20 13 14 17 8 10 13 14 12 16 17 14 7 9 8 16 13 13 15 16 19 18 17 19 22 22 24 25 28 29 30 28 22 19 20 20 17 16 17 18 21 24 22 21
14 15 17 4 5 9 11 13 14 6 5 8 11 12 11 12 14 16 15 18 18 18 21 22 25 26 27 28 29 29 27 24 22 19 18 18 17 17 19 20 19 22 25 19
16 10 5 7 10 10 11 14 12 9 6 12 14 17 2 9 16 15 17 18 20 23 24 24 26 28 28 30 30 29 26 25 23 20 19 18 18 19 20 21 21 28 29 26
16 14 8 11 11 11 13 14 11 10 10 9 9 8 8 12 13 14 18 18 22 24 25 27 28 30 31 31 30 29 26 25 23 22 20 20 20 20 20 20 22 28 30 26
17 15 11 15 15 12 12 1 7 12 14 15 15 8 11 7 10 15 17 21 21 24 27 30 32 32 32 31 33 30 27 26 24 23 23 21 23 20 18 18 21 26 27 28
18 14 13 16 7 7 8 7 10 11 11 11 14 13 4 14 9 9 12 19 22 24 27 29 29 29 30 30 31 31 30 29 27 27 26 27 24 23 20 19 25 24 25 24
19 15 14 7 11 9 10 13 8 6 8 10 5 7 6 13 3 2 3 9 21 24 26 29 30 31 31 32 32 32 30 30 30 31 30 29 27 25 23 23 25 19 19 22
16 18 21 14 16 11 16 16 6 6 6 4 5 7 6 8 3 5 6 6 9 16 27 30 31 31 31 32 32 31 30 29 28 29 30 25 25 28 29 26 23 23 23 24
18 21 17 19 16 15 13 14 16 11 7 6 7 7 12 7 4 3 2 4 4 11 20 27 30 31 30 29 30 31 28 27 27 29 25 28 27 31 28 24 26 28 23 27
9 13 13 12 10 13 14 9 10 8 4 10 10 9 4 7 6 4 3 5 3 2 7 14 25 30 28 27 26 26 26 25 26 27 25 27 27 32 26 25 28 27 24 23
19 13 10 11 14 16 11 11 10 9 12 4 6 5 9 8 4 2 1 1 3 2 4 8 14 19 26 24 23 23 22 23 23 22 25 24 27 24 17 16 20 20 20 18
23 11 11 17 18 20 9 17 18 10 13 9 8 11 2 6 5 4 8 4 2 2 3 6 9 13 17 21 22 21 20 20 19 18 19 19 16 18 19 18 19 19 19 17
21 13 12 15 11 10 12 15 15 16 11 11 4 8 2 2 4 6 8 7 8 6 7 8 10 12 14 16 17 17 16 16 16 15 20 21 20 20 17 15 15 15 15 15
23 17 20 14 18 15 19 17 16 14 9 12 14 16 12 10 13 13 14 10 12 11 10 11 12 13 14 15 16 16 18 19 18 23 23 19 17 14 10 9 10 10 12 13
16 22 20 21 19 16 17 23 21 20 18 17 15 17 12 11 13 12 6 9 10 12 12 13 13 13 14 15 16 15 19 21 20 17 13 12 9 7 7 7 7 7 9 10
17 15 21 22 19 19 18 18 18 20 18 17 19 20 11 14 15 7 5 8 11 12 13 13 14 14 15 15 16 14 13 14 13 12 10 10 8 9 10 9 8 7 6 5
13 13 16 16 17 19 16 17 18 18 17 15 17 15 15 9 11 11 15 9 11 11 12 13 15 15 15 15 15 16 13 12 12 12 14 14 14 13 12 11 10 8 5 1
7 14 11 9 2 13 10 14 20 21 20 18 17 17 15 14 15 6 4 11 10 11 14 16 17 17 17 17 18 18 17 16 16 17 16 15 14 14 12 11 8 4 2 2
10 10 8 8 13 13 18 9 12 15 16 16 16 15 17 10 2 6 8 12 15 15 15 17 18 19 19 19 19 19 19 18 18 17 17 16 13 11 10 8 6 3 2 2
14 12 10 6 14 18 14 15 14 14 14 15 15 12 7 7 7 11 20 18 19 18 18 19 19 19 19 18 19 19 19 18 18 17 15 13 12 10 8 5 6 4 4 2
6 7 13 12 8 8 10 15 16 12 16 14 8 8 10 9 10 7 21 21 21 21 20 19 19 19 19 19 20 20 19 17 16 16 14 12 10 8 7 7 6 4 2 1
12 7 6 10 11 15 4 10 15 16 22 11 12 12 12 11 12 20 23 25 25 23 21 19 19 19 19 19 19 18 17 17 16 14 12 11 9 8 7 6 4 2 1 3
15 8 8 9 6 6 14 18 22 24 16 10 14 14 15 19 20 23 25 27 26 25 23 21 21 21 19 18 18 19 18 17 16 14 12 10 9 7 6 4 2 1 1 4
8 4 13 13 15 15 17 16 19 14 18 15 12 13 17 23 23 26 27 28 28 27 25 24 24 23 22 20 19 18 18 17 15 14 12 11 9 6 4 2 1 1 4 5
10 10 10 15 15 15 20 16 13 18 17 14 11 15 20 22 26 29 30 29 28 28 26 26 25 24 22 21 20 18 17 16 15 14 12 10 8 6 3 5 5 4 7 7
15 15 10 8 12 13 15 16 13 16 21 19 17 17 20 23 28 30 30 30 30 30 28 26 25 24 23 21 20 18 16 15 15 14 12 10 8 7 5 4 6 7 8 9

GFSCGP_850_spd_060.txt.gz
Wind_Speed
20 12 15 19 18 22 13 14 17 14 6 8 12 12 14 9 21 12 23 20 17 19 20 19 21 20 21 24 29 33 30 32 40 33 22 21 21 23 26 22 22 24 22 21
15 18 20 20 17 7 12 15 16 9 8 11 13 11 6 17 24 17 17 18 20 18 24 22 25 28 25 30 26 27 36 38 30 25 20 20 21 23 21 24 24 25 24 23
19 17 22 18 11 9 13 14 16 11 9 19 11 13 10 5 16 14 18 21 20 23 28 28 29 31 30 28 30 34 38 28 24 26 21 22 20 19 22 27 28 29 28 26
20 22 10 10 11 12 14 13 14 10 11 10 3 6 6 11 11 14 17 24 28 23 27 32 34 35 35 35 31 31 31 29 25 26 28 25 27 28 26 24 22 25 27 29
19 21 18 14 15 14 14 6 6 10 11 14 15 3 4 9 12 16 13 21 31 32 30 32 36 38 37 36 37 33 32 30 32 26 28 28 28 25 23 26 25 28 32 30
22 19 18 18 14 15 13 10 10 10 10 11 16 11 9 2 8 8 18 23 25 34 35 34 35 35 38 37 37 37 37 36 35 33 28 26 25 26 24 25 27 32 32 25
21 22 18 15 18 8 11 10 8 1 5 9 15 12 3 10 8 11 14 22 25 32 36 36 38 39 39 41 41 41 41 39 35 34 31 30 29 24 27 24 25 26 32 29
17 16 21 13 15 14 13 14 8 6 4 8 11 5 6 14 20 9 2 4 21 26 33 37 38 39 38 40 42 42 42 41 38 36 32 29 26 30 31 26 31 28 29 26
17 22 15 19 15 17 14 14 15 8 2 5 7 9 8 11 9 5 7 6 9 14 25 33 37 39 40 39 41 42 39 37 35 36 35 35 35 27 34 34 28 27 24 25
18 13 24 23 21 19 16 14 9 7 4 4 10 12 6 5 8 7 7 6 6 2 9 19 32 37 39 40 39 40 37 35 34 33 34 39 30 37 32 31 27 24 26 28
21 16 11 16 17 16 11 13 10 13 11 5 4 2 4 10 9 6 4 9 6 3 6 5 12 25 34 35 36 37 37 32 32 31 32 36 33 32 31 24 26 24 26 24
25 6 12 15 14 16 19 16 17 9 9 9 5 2 7 5 8 9 6 8 5 4 7 8 9 12 26 32 34 35 35 31 31 29 29 28 30 29 26 24 22 18 18 18
22 14 11 14 15 16 15 12 15 13 10 12 4 6 4 3 3 2 5 7 13 8 7 9 9 10 14 16 20 26 25 24 22 24 25 26 26 21 20 20 18 17 16 18
15 13 14 11 17 13 13 16 18 18 6 6 9 12 16 11 10 9 14 17 12 17 12 12 11 11 12 13 15 15 15 18 23 23 25 22 21 18 20 19 19 16 17 17
7 17 20 17 18 19 20 20 20 21 17 13 19 16 14 10 4 9 8 15 9 12 15 14 17 16 17 18 23 27 27 28 27 25 24 19 16 16 15 13 12 11 10 10
11 14 15 19 17 22 15 21 21 20 19 17 17 17 15 13 13 11 12 12 12 12 13 12 19 24 21 23 25 27 30 27 24 20 15 14 14 13 13 12 11 10 10 8
11 9 13 17 16 18 19 17 17 15 19 16 16 12 11 11 8 8 13 12 15 9 8 10 13 23 26 17 20 20 24 22 19 17 14 14 15 14 13 13 11 11 11 8
2 11 11 4 3 21 11 15 16 15 16 15 14 13 12 12 13 3 2 6 12 14 14 15 14 20 19 21 15 15 15 18 17 18 20 19 18 17 17 16 16 12 8 6
4 3 3 5 11 13 16 15 11 11 17 18 18 17 14 16 5 4 7 6 13 18 17 17 17 18 19 24 21 19 21 23 23 22 21 20 21 19 18 15 11 11 9 7
3 12 6 3 5 14 9 14 21 9 13 14 14 10 9 8 4 2 13 10 16 19 18 19 20 22 24 24 26 26 25 23 23 24 23 19 17 16 17 14 9 11 11 12
4 7 9 6 4 7 8 16 21 15 9 10 15 17 16 4 4 9 13 18 19 22 23 24 24 25 26 26 27 27 27 26 26 22 20 19 19 17 15 15 13 13 14 12
11 10 5 3 4 13 8 11 20 8 21 7 17 11 4 8 11 17 23 24 25 25 26 27 28 27 27 27 28 28 28 24 24 23 20 18 18 15 14 14 14 14 12 11
11 8 6 7 6 8 20 13 11 15 17 19 15 15 10 17 18 23 25 25 27 28 29 28 29 30 29 28 30 25 25 26 24 21 21 19 17 16 15 13 12 10 9 9
9 15 8 10 19 8 21 15 12 12 12 15 11 14 10 19 21 23 25 28 29 30 30 29 30 30 30 27 24 26 26 23 24 23 20 18 18 17 15 12 10 12 11 8
8 5 10 13 10 11 21 18 15 8 14 15 15 9 13 17 24 27 28 30 30 30 29 29 29 28 28 27 27 26 26 24 23 21 20 20 18 15 15 13 12 11 8 8
9 8 5 5 8 6 7 19 22 21 20 23 18 12 14 17 24 27 28 30 31 31 29 28 26 26 26 26 25 23 22 21 22 23 22 19 20 16 9 9 9 9 8 9

GFSCGP_850_spd_063.txt.gz
Wind_Speed
15 5 12 12 14 17 16 14 8 4 5 6 9 7 12 18 13 16 23 23 30 28 22 18 16 20 23 24 27 29 30 30 32 37 30 34 36 37 34 23 22 19 20 21
6 16 15 15 17 16 17 6 8 2 4 4 8 8 15 16 18 22 26 30 32 27 32 24 19 19 26 24 25 28 29 33 36 33 35 35 30 31 35 26 23 26 24 22
14 13 18 18 18 17 9 6 8 7 4 6 2 8 10 15 15 23 30 36 33 37 34 33 30 24 25 31 32 33 35 40 42 34 29 26 23 25 27 30 30 28 28 27
10 19 19 18 20 7 6 10 8 7 3 4 4 5 3 11 13 12 27 31 34 38 35 32 35 35 32 34 35 38 44 46 37 28 27 27 27 28 29 30 28 29 31 29
13 7 19 20 13 7 8 9 2 4 6 5 7 2 6 6 7 9 19 27 33 38 40 41 39 38 35 33 35 40 43 40 32 30 30 28 27 26 24 25 26 27 29 31
11 22 14 15 10 9 6 6 4 3 2 6 8 5 5 6 7 7 17 34 38 33 41 40 40 38 37 36 35 38 44 38 32 32 32 33 36 32 31 31 30 29 28 26
18 20 16 13 7 6 5 1 3 4 3 6 4 7 9 11 10 8 13 38 33 36 40 44 43 43 40 38 40 40 40 42 38 35 33 36 36 34 33 34 30 31 32 31
13 15 18 7 13 6 7 8 5 5 4 5 3 4 4 7 10 15 25 30 38 40 43 47 46 44 43 44 42 43 43 41 41 41 37 36 37 38 35 36 34 32 33 32
12 18 6 11 5 7 5 6 10 3 1 2 4 7 8 3 6 4 10 8 36 43 44 48 48 46 43 43 47 49 46 45 43 44 45 44 42 37 42 40 35 35 31 27
5 10 19 10 12 9 11 5 2 1 5 4 5 5 4 6 6 3 5 7 12 30 39 45 48 47 45 43 43 45 44 44 45 47 45 45 43 41 39 35 32 25 25 29
21 8 7 18 10 15 5 9 3 6 4 5 1 4 6 8 6 7 7 12 9 6 8 27 42 49 47 48 48 45 47 46 45 43 43 46 45 43 43 35 24 28 25 24
14 6 11 13 14 22 16 15 9 5 4 4 5 5 8 9 8 7 15 17 17 13 9 9 10 38 45 51 51 50 46 46 46 44 42 44 43 37 38 15 25 28 23 24
14 15 5 6 9 4 13 6 6 7 4 6 5 4 8 8 8 16 12 16 19 16 15 12 10 7 23 43 44 45 42 32 31 35 31 27 26 26 33 27 23 15 19 15
22 7 15 14 5 4 6 10 11 9 3 3 5 5 8 9 11 9 17 16 22 20 20 17 12 10 7 9 21 31 25 27 32 42 28 24 23 21 21 21 17 16 15 14
10 19 15 8 18 12 16 11 14 18 15 9 7 12 9 10 8 11 13 9 22 22 24 23 19 14 14 11 13 19 22 27 30 26 21 19 23 21 19 17 15 14 14 13
3 3 15 19 12 11 11 17 7 8 10 11 14 18 18 18 16 12 14 18 28 20 25 27 26 26 22 19 18 19 22 23 20 18 22 23 20 18 15 15 15 15 15 14
10 5 5 13 12 10 14 12 14 14 14 11 14 15 9 12 8 13 15 28 25 23 17 22 31 31 29 25 25 21 19 18 18 20 21 21 20 17 16 16 17 17 17 16
15 5 4 4 5 13 5 9 7 11 12 7 5 3 6 8 16 10 18 25 27 22 22 21 30 33 33 29 27 26 23 20 15 17 19 19 17 19 19 20 20 20 19 16
18 3 2 5 9 5 16 7 5 7 11 7 6 5 7 16 13 5 12 17 27 24 23 22 25 35 36 33 31 29 24 21 23 24 23 22 22 24 23 21 21 20 17 13
14 3 5 3 2 15 2 8 11 5 9 5 2 6 5 4 5 5 16 14 19 21 24 25 25 28 28 28 27 23 20 27 28 26 25 24 24 24 23 21 19 15 12 15
2 4 3 3 3 6 5 9 13 7 4 8 14 7 5 6 11 16 19 15 15 21 25 24 25 27 27 26 25 23 26 28 27 27 26 25 24 22 21 19 17 19 21 21
7 6 4 3 4 6 8 10 9 1 19 21 22 10 3 9 17 24 23 21 21 23 24 26 27 27 27 26 25 26 29 30 30 29 28 27 24 22 20 20 21 22 23 22
3 6 7 8 7 10 3 5 9 20 23 12 10 3 5 13 16 26 24 23 22 23 27 28 28 28 28 28 26 30 32 32 32 30 29 27 25 23 22 22 24 24 22 20
6 8 5 5 7 13 18 3 14 16 26 27 16 4 2 12 7 20 24 24 25 27 28 29 29 31 30 28 29 30 33 31 30 29 28 28 26 25 23 23 23 23 20 18
5 10 3 3 8 6 9 17 24 21 33 32 27 18 9 10 18 30 27 26 27 29 30 30 31 32 31 30 30 31 30 31 30 30 30 29 28 28 27 24 21 19 17 15
4 5 4 4 12 11 9 4 11 17 19 20 20 20 14 9 21 26 25 24 27 30 31 29 31 32 29 29 29 29 30 29 30 30 28 28 27 26 24 22 21 18 13 13

GFSCGP_850_spd_066.txt.gz
Wind_Speed
7 4 13 10 9 7 6 7 8 11 10 6 8 7 11 16 13 13 18 19 23 22 17 13 12 15 18 20 22 24 34 31 37 37 41 42 42 38 35 38 41 23 18 20
3 18 13 8 8 9 9 13 14 10 4 7 7 8 7 11 13 20 22 19 28 26 23 19 17 20 22 25 29 31 33 31 35 35 41 43 43 37 41 39 32 24 23 23
12 7 16 11 12 12 14 13 13 9 5 4 2 5 3 7 6 14 23 30 30 35 31 28 24 25 26 28 33 35 35 36 39 42 38 36 40 35 44 45 34 27 27 24
7 19 12 10 14 10 11 11 9 5 2 3 3 5 5 7 16 10 20 29 34 37 36 33 29 29 31 30 32 36 37 38 39 39 37 39 41 42 48 46 36 30 30 28
9 8 15 17 17 11 13 16 8 6 3 2 3 1 6 4 10 10 15 29 37 43 43 42 37 32 30 32 34 35 36 37 40 41 39 41 40 40 42 42 37 35 33 30
13 18 7 12 13 13 16 5 3 3 2 3 5 5 4 6 10 14 23 34 37 42 46 44 41 35 36 34 34 37 39 42 45 43 41 39 36 36 37 39 37 34 33 33
14 18 11 7 9 8 7 4 2 3 2 7 5 3 7 10 13 12 22 37 41 45 42 47 45 44 40 41 41 40 43 47 47 43 40 39 37 35 35 34 35 35 35 34
12 8 18 9 16 8 7 9 5 5 4 5 4 5 5 6 8 10 32 41 40 41 48 47 50 46 45 45 46 46 49 50 48 44 42 40 38 38 39 37 36 36 35 31
8 12 5 10 10 10 5 4 8 5 2 2 4 7 7 7 1 2 16 25 33 39 46 51 50 48 47 49 51 52 51 53 50 46 42 43 43 44 42 40 41 41 38 33
6 4 11 18 6 9 11 6 3 1 3 4 5 5 6 4 1 2 7 20 32 41 44 45 50 51 50 49 52 53 53 53 51 49 47 45 42 43 42 43 44 42 41 33
16 4 5 7 12 8 3 3 1 5 5 5 2 5 6 9 8 7 6 20 21 28 38 41 42 46 51 52 48 53 54 54 52 50 48 47 44 42 42 41 46 36 34 24
12 11 13 17 6 11 10 11 9 6 5 4 5 9 3 9 10 5 9 16 21 22 25 30 39 46 47 51 51 52 49 48 44 39 37 39 39 39 41 44 34 27 24 37
2 7 4 7 9 12 6 7 12 5 4 9 6 5 4 5 8 15 10 18 19 20 21 22 24 35 43 47 49 47 46 44 40 38 37 37 38 39 36 39 39 38 28 35
3 7 15 18 6 5 4 8 18 15 4 5 6 7 6 9 9 11 17 16 24 24 22 20 18 17 18 34 40 44 44 43 43 32 31 35 36 40 44 47 44 38 34 29
5 13 16 14 13 10 7 6 14 14 10 8 8 8 8 9 9 14 23 18 27 26 26 25 21 18 17 18 23 39 40 39 38 37 37 35 39 36 44 47 41 34 26 27
9 6 7 10 9 16 16 18 13 7 6 7 9 9 8 18 22 14 25 28 30 34 32 30 26 22 19 16 18 32 41 39 40 41 36 35 33 29 36 32 34 33 28 27
3 6 9 14 11 15 11 17 10 6 5 7 7 10 10 11 10 16 24 29 29 31 36 35 31 28 26 23 21 21 31 34 36 37 34 33 33 34 32 30 29 28 27 25
6 4 2 4 2 11 20 8 7 12 12 11 6 8 12 15 25 26 35 38 33 29 32 35 35 33 33 30 27 25 27 28 28 27 27 31 31 31 31 29 28 26 24 23
6 5 1 4 7 6 13 7 15 16 10 8 7 7 9 19 14 6 16 21 31 33 32 31 34 39 38 35 29 27 26 26 26 27 29 30 31 31 29 27 26 25 26 25
7 6 4 0 7 13 2 7 4 2 6 5 4 6 7 6 3 5 16 19 29 28 27 24 27 36 37 32 30 28 27 26 28 29 28 29 29 28 27 28 27 26 26 26
2 3 7 2 7 7 7 5 3 9 5 3 1 7 12 4 11 14 23 21 23 26 21 20 21 25 34 34 31 28 26 26 25 26 25 27 28 27 26 25 25 26 26 23
6 6 3 3 4 7 3 5 3 5 0 9 14 22 15 17 13 15 26 23 23 22 18 20 21 25 30 31 29 26 24 24 23 24 26 26 26 26 22 21 23 22 22 22
4 5 5 9 7 9 4 11 2 14 10 10 11 18 17 14 12 21 26 27 26 22 22 22 23 25 26 26 25 24 23 23 24 25 26 26 25 23 21 21 23 24 22 21
5 7 5 2 7 8 12 6 11 13 28 19 16 19 19 18 13 18 22 22 23 25 26 24 24 25 25 25 25 22 22 23 25 25 25 24 23 22 21 21 20 20 22 23
8 6 13 5 5 3 3 8 12 16 14 19 15 11 20 20 24 23 23 25 27 29 26 24 24 24 24 25 24 22 21 24 24 24 24 24 23 22 24 23 22 22 22 20
2 5 4 5 9 8 8 3 7 18 17 5 6 12 19 21 18 24 26 28 30 29 27 26 24 24 27 26 25 24 23 23 24 25 25 25 26 26 25 24 23 20 16 15

GFSCGP_850_spd_069.txt.gz
Wind_Speed
7 3 10 14 8 4 3 3 4 11 13 3 8 12 10 8 13 15 20 19 19 17 16 13 9 8 14 14 16 20 26 30 30 35 39 33 37 36 36 34 32 27 25 21
2 16 7 7 7 6 5 6 10 10 12 7 8 11 10 7 9 21 23 26 25 18 18 17 14 12 17 19 17 19 25 28 32 34 37 38 38 37 34 36 29 25 26 28
10 4 16 13 6 9 8 8 7 9 8 6 1 7 5 3 9 15 26 24 25 24 24 22 20 14 17 21 22 22 25 29 31 34 39 34 34 36 38 39 33 33 33 27
7 16 4 5 11 9 13 9 12 12 4 5 5 4 5 5 7 7 15 26 29 28 27 26 24 21 20 21 21 25 28 32 32 36 36 39 41 39 39 38 41 38 37 27
9 7 13 12 18 8 10 7 10 10 7 2 2 1 6 0 6 10 13 30 31 33 32 33 30 24 21 23 24 27 31 32 33 35 34 37 41 45 43 39 42 41 39 34
11 5 8 10 8 11 9 3 3 2 3 5 5 6 5 5 9 6 16 28 35 36 37 35 32 27 24 26 26 29 33 34 35 35 38 40 41 42 46 46 43 46 46 38
4 11 2 3 5 5 5 3 3 3 1 8 5 3 7 9 10 12 11 28 40 40 38 38 38 35 30 31 31 30 34 36 38 39 41 42 41 41 41 41 45 46 44 41
10 6 13 7 12 6 7 9 5 6 3 5 1 5 6 7 13 21 25 31 38 37 40 41 41 40 37 34 35 34 35 38 40 42 44 43 40 39 37 37 41 44 43 41
7 7 4 9 6 11 4 6 10 4 2 2 4 7 8 8 8 7 11 18 26 36 41 43 43 43 42 40 40 40 38 37 41 43 45 45 43 42 41 40 40 41 41 40
3 1 6 6 5 7 9 5 2 1 5 4 4 4 6 10 6 7 5 15 26 36 39 42 44 44 45 45 43 41 41 41 42 45 45 45 43 42 41 38 41 40 36 36
12 2 4 1 6 7 3 9 3 4 5 6 2 6 7 8 7 7 6 20 29 35 40 43 45 44 46 44 46 46 44 44 44 46 47 46 43 42 42 42 43 41 39 35
7 5 12 23 7 4 8 8 9 5 3 3 4 10 4 9 8 7 11 13 19 32 36 40 42 44 43 43 44 48 49 48 46 45 47 45 43 44 44 47 46 41 37 34
5 3 8 8 4 10 9 5 6 3 3 10 7 6 3 6 7 12 11 13 15 15 26 31 36 40 42 41 41 43 46 49 49 49 50 50 40 36 44 54 46 41 40 37
5 2 4 7 7 3 5 12 10 12 7 4 12 8 6 7 8 9 17 17 16 18 24 28 27 31 32 35 38 41 42 45 47 48 52 53 50 51 47 47 39 41 41 38
4 1 5 12 14 15 14 10 14 18 12 11 10 10 10 10 10 15 26 22 19 18 21 26 30 28 28 30 32 36 39 41 42 44 46 50 51 51 42 42 43 41 38 40
2 3 5 5 8 14 17 18 12 8 7 12 10 6 7 16 22 13 22 27 21 18 25 27 31 29 24 22 24 28 34 37 39 42 43 44 46 42 40 40 40 46 50 48
3 3 3 5 13 12 8 17 14 14 6 6 10 8 8 7 9 15 28 33 32 30 26 33 34 35 29 27 22 21 26 31 37 41 42 42 43 44 40 43 43 43 41 35
5 4 3 3 6 4 7 8 11 15 14 8 5 6 8 10 24 30 33 24 26 29 31 32 40 37 35 30 27 26 27 31 35 37 39 40 42 43 37 36 33 33 34 34
7 5 4 2 3 7 16 7 4 7 17 11 8 9 8 18 4 19 25 23 26 25 31 36 35 40 39 34 31 29 27 30 34 36 37 37 34 32 31 31 29 30 32 31
5 4 3 2 3 6 10 11 18 17 16 7 18 11 5 4 1 5 18 24 22 22 23 35 34 35 39 35 31 29 27 27 29 30 28 24 22 23 26 29 31 31 32 30
3 1 6 3 4 7 8 13 9 4 6 5 8 0 15 5 8 16 23 29 27 26 28 26 28 30 33 32 29 28 28 29 29 26 20 21 26 28 30 34 32 31 30 28
7 7 4 3 3 7 1 6 4 9 8 6 11 18 13 10 11 16 20 23 25 22 19 18 17 16 17 24 28 29 28 26 22 21 24 28 28 29 31 30 28 29 29 30
4 5 4 7 6 5 8 8 10 18 23 6 16 13 16 18 15 19 20 15 19 19 17 14 16 19 21 24 25 26 25 22 21 23 25 25 26 28 26 26 28 28 28 29
4 5 5 2 8 13 26 24 23 24 27 14 18 15 18 18 17 18 18 13 15 16 17 19 21 21 21 21 21 20 19 19 20 23 26 26 26 26 24 22 22 26 27 27
6 4 8 13 14 14 21 22 23 20 17 15 13 18 22 23 14 22 25 18 17 19 21 20 20 20 18 18 18 18 18 16 18 21 25 25 26 25 24 23 22 21 22 22
3 0 2 4 9 9 21 22 11 12 14 17 13 12 14 23 18 23 24 31 24 21 25 22 19 18 17 17 17 16 15 14 16 22 25 26 25 25 23 24 25 23 21 21

GFSCGP_850_spd_072.txt.gz
Wind_Speed
8 4 12 10 6 5 5 4 3 5 5 1 9 7 16 6 10 16 24 20 20 20 14 15 11 8 11 11 10 12 13 17 26 33 33 31 33 36 38 40 39 37 32 30
3 12 9 9 8 7 4 5 6 9 9 7 8 11 14 5 7 18 25 24 24 20 19 19 14 11 10 14 14 14 13 17 26 35 36 32 30 29 34 34 35 34 32 26
12 4 13 10 6 10 6 12 4 8 6 5 4 7 8 5 5 10 19 23 22 24 24 22 19 15 13 14 17 18 18 20 22 31 35 26 28 31 32 34 38 35 31 34
9 15 1 6 12 8 9 9 8 6 2 4 4 5 6 7 8 6 15 21 25 23 25 22 21 18 15 14 14 20 23 25 25 28 33 35 40 36 37 34 35 33 33 31
7 6 17 5 5 9 9 8 10 6 4 1 3 2 7 2 8 9 8 23 26 26 26 27 25 19 15 16 15 19 21 24 27 32 35 35 38 40 37 38 39 38 33 28
7 4 8 14 11 11 4 2 3 1 3 5 8 7 5 4 8 7 5 17 24 26 27 26 24 21 20 18 20 21 24 27 29 31 35 38 37 41 45 45 44 46 40 36
3 6 3 4 5 5 4 6 2 2 2 6 5 3 9 8 11 8 10 20 20 25 28 29 29 28 26 25 25 25 27 31 32 32 34 38 40 43 43 48 46 45 45 44
11 6 12 7 10 6 8 8 5 6 3 3 3 5 5 8 11 18 21 26 21 21 26 32 31 30 29 28 29 30 32 32 34 34 35 37 37 39 41 47 46 46 43 41
7 6 3 7 7 12 5 5 7 0 2 0 4 6 8 8 8 7 12 14 17 19 23 30 32 31 31 32 33 34 33 34 35 37 38 39 40 40 42 41 42 46 47 45
4 2 4 3 4 1 7 7 3 1 4 5 3 3 5 7 9 9 7 12 13 15 19 23 31 33 32 33 32 33 34 33 34 36 40 41 42 42 42 42 42 40 37 38
3 2 5 4 4 7 3 5 2 3 4 5 3 5 7 9 4 6 7 11 15 16 19 21 29 33 32 33 34 36 35 34 36 36 37 40 41 41 40 40 39 39 38 37
2 2 6 14 6 2 2 6 9 6 5 4 3 9 5 8 7 7 13 14 12 16 19 23 25 28 31 33 34 35 37 39 36 37 37 37 37 39 37 40 38 37 39 37
7 3 3 6 4 3 4 5 5 2 3 17 7 5 4 5 8 8 11 11 14 14 15 20 22 26 28 32 34 34 36 39 41 41 41 39 40 39 39 46 41 44 41 37
4 2 2 2 2 4 6 7 11 12 7 2 14 6 3 5 7 9 14 18 14 11 12 14 18 22 25 28 32 30 32 34 37 43 43 43 45 42 46 42 42 45 43 40
2 4 1 2 7 10 11 13 13 11 12 12 3 11 9 11 12 16 25 21 17 21 18 18 22 23 23 26 29 28 29 29 31 37 43 46 44 43 46 47 47 46 40 33
2 4 4 3 4 9 17 12 11 11 6 11 9 14 7 13 17 14 23 25 25 22 22 19 25 27 28 27 27 27 25 25 27 30 33 37 42 45 46 48 48 49 48 43
6 3 2 4 2 3 9 4 3 8 8 7 11 8 7 7 8 13 26 25 27 29 29 28 27 27 28 32 29 28 26 27 26 26 29 31 32 36 42 45 46 46 44 39
7 2 1 1 2 3 7 5 6 5 12 11 11 6 8 10 20 22 22 23 24 27 31 34 33 31 29 35 34 29 30 29 27 28 30 29 31 34 36 36 37 39 42 41
11 4 1 2 2 6 4 6 4 5 18 8 9 14 9 18 7 13 19 15 9 14 22 29 32 35 32 34 36 34 31 30 30 30 32 31 30 31 32 33 34 37 36 38
6 5 4 3 3 6 4 3 9 1 13 7 10 14 13 8 7 4 18 19 15 19 22 24 25 30 33 35 35 35 33 30 29 31 31 31 30 31 30 32 34 35 32 31
4 3 12 3 2 8 7 5 5 4 7 14 19 16 18 8 9 11 13 18 18 20 26 25 24 25 29 30 29 34 31 27 27 27 28 26 22 20 21 19 20 24 28 29
5 5 3 4 3 8 6 1 3 5 9 15 25 21 23 24 25 22 16 15 16 16 15 18 17 19 20 21 23 25 25 24 21 17 17 18 18 18 22 24 24 27 29 29
3 6 5 8 7 4 2 1 6 7 6 10 16 21 26 25 22 21 28 23 18 15 13 4 6 11 12 16 18 17 17 16 15 15 14 16 19 22 23 23 25 27 26 25
3 4 4 2 2 9 22 18 16 24 30 27 21 35 31 28 22 19 20 25 31 21 9 8 7 11 9 12 10 9 11 12 13 13 16 19 18 20 21 22 22 23 23 24
6 2 4 10 7 14 18 18 24 24 30 30 31 34 26 22 26 17 18 26 25 27 13 8 7 6 5 7 9 8 10 11 12 13 15 15 18 19 19 19 18 15 15 16
1 3 4 5 4 6 10 23 26 25 25 18 23 28 14 14 17 16 13 24 21 21 14 10 10 8 7 6 7 9 10 11 9 13 13 14 14 16 18 17 16 15 13 13

GFSCGP_850_spd_075.txt.gz
Wind_Speed
8 7 13 20 16 5 7 6 7 4 4 2 10 8 15 10 8 12 15 17 19 19 16 17 15 12 12 13 14 14 14 17 20 25 32 33 34 27 43 36 38 37 35 25
4 14 16 10 10 13 8 7 10 12 4 8 10 13 15 9 8 11 12 18 19 19 20 21 19 15 15 15 17 18 16 17 23 28 33 36 37 32 42 37 38 33 34 31
17 6 11 13 10 14 16 18 14 13 6 4 6 9 6 3 5 8 11 13 18 24 26 25 23 19 16 19 19 20 20 20 24 29 33 32 34 35 35 36 42 38 36 34
12 14 9 11 15 15 14 10 13 13 5 7 2 8 6 8 13 7 11 13 16 23 27 25 25 21 19 18 18 23 22 22 24 29 34 33 34 37 39 38 45 41 39 36
9 9 20 7 12 14 12 8 12 11 9 6 9 6 2 3 9 14 10 12 16 24 29 31 28 22 18 18 20 26 26 25 26 30 35 32 29 30 32 40 41 40 43 40
7 3 8 15 6 18 5 4 2 2 2 6 10 7 7 6 12 7 5 7 10 21 28 29 26 24 21 21 22 22 29 30 30 29 35 37 34 33 38 41 41 44 41 38
10 7 3 4 12 6 6 4 3 2 4 7 2 8 11 9 13 10 11 16 11 13 26 31 32 31 28 25 25 25 28 31 31 31 32 33 36 38 39 41 42 44 47 44
12 8 15 9 6 7 13 13 5 7 5 2 4 5 5 7 11 13 12 17 15 12 21 31 35 33 31 28 28 28 29 31 32 32 34 35 37 40 43 43 44 44 46 44
8 8 5 7 7 11 6 9 11 1 1 2 3 4 10 9 9 7 9 9 9 10 18 28 34 33 33 32 31 31 30 30 32 33 34 37 41 42 45 45 45 45 47 48
2 2 4 9 6 6 8 10 5 3 6 9 5 4 6 4 8 5 7 6 10 4 10 20 29 32 32 34 32 31 31 30 30 33 34 36 39 42 43 45 49 51 52 52
1 1 1 5 5 11 7 7 2 4 4 6 5 4 7 12 9 6 7 10 9 6 7 15 21 27 29 32 34 35 34 33 34 34 36 37 38 40 42 43 44 46 47 49
5 2 3 5 2 3 2 8 10 6 5 2 2 7 4 10 8 7 10 12 12 10 5 11 15 19 24 29 32 35 37 38 36 35 36 39 40 40 39 38 37 39 40 40
6 2 2 2 2 4 3 2 4 3 2 15 9 4 4 5 8 13 12 15 15 13 10 8 14 18 21 24 28 32 35 37 39 40 37 39 42 43 44 44 44 43 41 40
1 2 3 1 2 3 5 10 10 6 5 7 11 9 9 11 7 12 13 19 20 16 12 10 12 17 19 20 23 26 27 31 34 39 43 42 41 41 42 42 47 47 43 41
2 5 5 6 11 7 8 7 10 10 10 10 6 13 9 13 13 16 19 26 26 25 16 16 15 17 21 21 22 23 24 27 29 32 38 42 42 41 42 41 43 45 42 46
7 1 5 5 10 11 8 10 17 15 10 13 12 14 12 19 18 13 23 24 23 27 27 23 24 21 23 25 25 25 23 24 25 29 31 33 36 40 42 41 42 42 42 42
5 2 2 3 5 7 6 9 8 2 5 4 6 9 10 13 12 13 23 24 26 25 25 27 24 25 20 25 27 27 26 25 25 25 26 28 30 34 37 39 40 42 41 40
5 3 2 1 2 7 3 4 5 6 9 9 7 9 12 17 23 27 28 19 19 23 25 28 28 26 27 27 29 31 31 28 28 28 27 27 28 30 32 35 36 38 38 39
13 5 2 3 6 8 9 7 4 6 8 7 4 10 14 19 15 18 21 20 23 22 18 15 16 17 22 28 31 34 32 33 33 32 31 28 27 28 30 30 30 31 29 28
13 10 3 3 3 5 3 2 3 1 6 5 5 7 10 18 8 7 25 24 21 20 22 20 17 16 17 21 26 31 33 38 35 34 32 30 29 28 27 25 21 20 22 25
6 3 9 4 4 6 9 8 3 2 5 8 4 9 4 3 6 13 23 19 16 15 16 18 18 16 15 15 18 22 29 35 34 33 30 27 25 23 20 17 18 21 23 24
7 6 5 5 4 8 0 2 1 7 9 12 22 19 12 18 19 14 15 23 29 27 15 12 15 13 12 12 14 18 25 28 27 23 20 18 16 15 15 16 18 18 19 19
4 6 4 8 6 2 3 6 14 17 20 22 26 35 29 27 27 28 19 22 23 27 22 15 11 7 3 4 8 15 18 19 16 15 14 12 14 13 13 14 17 21 21 19
3 4 3 0 3 7 9 10 12 21 21 25 27 28 30 26 29 30 22 18 16 17 23 15 10 6 3 6 8 9 12 13 13 14 16 16 15 13 14 14 13 15 18 21
2 3 3 5 7 14 11 13 22 25 23 24 28 20 19 18 21 17 15 11 10 11 13 12 9 7 4 3 5 8 10 11 10 12 13 12 9 11 11 12 13 13 14 17
3 3 3 5 2 4 10 19 16 21 20 20 22 17 9 8 12 12 7 6 8 6 12 8 9 8 1 6 8 10 11 10 12 14 12 10 9 13 12 14 16 16 12 13

GFSCGP_850_spd_078.txt.gz
Wind_Speed
24 15 19 26 23 19 15 14 16 8 0 7 14 16 14 15 10 15 13 17 19 19 16 16 15 14 12 11 12 17 15 17 15 16 19 23 35 44 45 41 40 39 42 39
11 20 22 18 18 19 19 17 18 12 7 8 14 17 15 14 13 15 13 16 18 18 19 18 19 17 15 13 14 18 16 15 18 19 22 25 34 43 38 39 41 42 44 41
19 9 20 17 15 18 20 20 17 15 7 11 16 19 20 16 14 12 12 10 15 20 23 21 22 20 16 17 17 20 19 18 20 22 22 30 32 39 37 38 39 40 41 40
15 19 10 19 22 18 21 19 16 17 11 9 3 9 6 8 15 14 16 13 14 19 22 23 23 22 20 18 18 22 23 21 22 25 29 34 36 35 47 41 43 44 40 38
8 13 21 19 18 18 19 14 12 15 14 14 16 8 7 3 12 11 12 16 15 18 24 26 26 22 20 19 21 23 24 26 25 27 31 29 32 34 54 46 43 44 43 39
19 6 10 19 11 17 5 8 7 6 7 10 16 12 11 9 11 7 4 7 9 17 22 24 23 23 22 21 21 23 24 29 28 29 30 33 34 37 43 45 51 48 43 42
18 18 8 8 18 12 15 13 6 7 6 8 2 10 14 8 11 10 9 8 5 14 21 26 29 29 27 27 25 26 28 29 31 28 31 33 32 31 38 42 42 56 46 48
19 11 21 13 14 7 20 15 6 7 8 6 5 7 6 3 3 5 8 12 9 13 20 27 29 29 29 30 29 29 29 29 30 32 32 32 34 33 32 35 41 49 56 52
15 20 13 15 16 15 9 15 17 17 8 6 6 4 7 9 9 5 6 11 11 14 20 24 29 31 29 30 32 31 31 29 30 32 30 31 34 36 35 34 37 46 45 48
4 6 11 22 17 19 15 12 8 9 8 14 9 11 7 4 10 4 4 4 1 7 15 21 26 30 29 28 29 31 32 31 30 31 31 33 33 36 36 37 42 44 46 45
8 4 4 10 14 19 15 13 11 9 14 12 10 6 4 10 7 6 1 4 8 1 9 16 23 26 28 27 29 31 33 33 32 32 33 34 36 38 38 44 43 44 42 41
4 4 6 12 6 12 17 17 17 10 12 9 10 11 3 6 8 4 5 9 4 3 4 12 18 23 28 30 30 33 33 34 35 34 35 37 38 37 42 48 51 52 51 46
7 4 7 8 8 5 10 11 10 12 14 18 11 5 2 9 8 12 11 11 14 7 1 8 15 20 25 29 31 33 36 38 35 34 36 37 41 40 42 45 44 41 41 43
5 3 5 4 4 4 3 2 3 5 7 10 14 15 10 14 15 16 21 22 16 12 11 7 13 19 22 26 29 31 33 37 37 37 37 38 42 44 43 42 41 41 40 40
3 5 6 6 4 4 5 7 7 9 8 8 11 13 12 12 14 18 21 23 24 21 17 14 14 17 20 24 25 28 30 33 36 39 40 44 41 39 39 39 41 42 41 39
6 5 7 9 11 10 12 12 12 13 15 15 15 16 13 17 20 19 21 22 23 25 22 18 18 17 19 22 25 27 29 31 32 36 39 38 38 40 41 40 39 39 42 41
4 3 5 10 5 9 11 16 17 13 8 7 8 9 3 10 12 17 23 21 19 20 23 18 17 18 20 23 25 29 30 28 30 31 32 33 34 36 37 37 37 37 37 35
6 5 1 2 3 8 3 4 9 10 8 8 10 7 8 12 21 23 23 22 22 20 22 20 16 14 18 22 24 23 25 29 31 31 31 32 32 32 30 30 33 33 33 35
15 7 3 4 10 13 14 8 7 7 6 4 5 5 9 14 15 4 17 16 18 18 19 18 14 18 17 17 21 23 26 29 31 34 33 32 32 31 30 30 29 27 28 29
16 13 7 5 6 6 5 9 4 3 5 6 6 10 14 17 7 7 17 18 20 17 17 19 21 21 21 18 16 21 26 29 33 34 34 28 28 28 28 26 25 30 27 26
8 10 13 12 7 4 4 7 4 8 5 13 13 17 18 10 10 22 23 22 21 21 22 20 18 17 18 18 18 18 21 27 26 26 29 29 27 29 29 28 26 25 23 21
10 9 7 9 7 9 3 3 3 10 12 14 16 17 19 20 21 19 19 24 22 20 18 21 17 16 15 14 14 12 13 16 25 31 33 30 28 29 26 24 24 22 23 23
5 6 4 6 6 4 3 7 6 8 10 12 18 23 22 22 22 19 16 16 18 18 16 13 18 17 12 9 8 7 14 15 18 19 22 24 23 22 20 19 21 21 21 20
5 7 5 3 6 6 4 3 8 10 12 13 14 18 19 18 18 15 12 10 12 13 14 13 12 15 12 7 5 5 7 11 13 17 18 19 21 23 22 20 19 17 18 20
3 4 5 10 11 11 9 8 14 16 13 15 15 15 17 16 15 15 11 9 10 12 13 11 9 10 12 8 3 1 4 7 12 15 16 18 18 18 18 18 16 14 14 13
8 7 7 8 7 4 8 13 11 16 17 16 16 16 15 15 13 12 9 10 12 12 9 5 4 3 4 4 2 2 4 6 10 14 17 18 18 17 18 17 15 15 9 7

GFSCGP_850_spd_081.txt.gz
Wind_Speed
25 16 22 26 26 24 22 23 18 12 3 8 14 17 18 17 21 15 19 17 17 18 16 18 18 16 14 13 12 14 16 17 16 15 16 19 34 38 39 39 40 39 38 41
21 25 24 24 22 21 25 23 21 17 9 6 17 17 16 17 17 23 19 20 19 18 17 19 19 18 16 14 14 15 16 17 15 17 19 21 37 40 46 46 45 43 39 37
23 21 26 24 20 22 22 23 21 19 15 7 16 20 21 19 24 21 22 16 16 17 19 21 21 20 17 16 16 16 20 19 18 16 20 26 32 45 46 44 43 37 38 42
18 27 22 24 26 21 21 19 22 18 15 14 17 15 16 9 14 18 18 18 18 17 18 22 23 23 21 18 17 18 20 21 23 24 25 30 37 50 47 45 46 42 40 41
16 15 21 21 23 18 21 18 20 17 13 17 21 11 13 19 17 14 14 20 22 18 19 22 25 23 21 19 20 19 23 22 23 28 26 29 35 45 47 45 45 47 46 43
22 22 12 18 18 17 18 17 13 12 13 15 18 16 14 14 15 16 11 10 13 18 18 21 23 22 22 20 21 20 23 25 26 31 32 29 35 42 45 46 44 46 44 47
23 27 20 23 12 12 19 13 9 10 11 12 14 13 15 5 1 6 6 10 13 14 17 21 25 27 25 25 23 22 24 26 27 32 35 31 32 41 47 47 47 48 50 48
11 14 21 16 15 14 17 18 9 14 11 12 18 7 11 12 9 7 5 7 10 12 16 22 26 27 27 27 25 24 25 25 28 30 35 34 34 34 40 51 53 53 56 55
5 12 16 16 18 13 13 18 19 9 14 5 8 10 4 8 7 8 2 8 14 17 16 21 25 28 28 28 28 26 25 25 28 31 32 35 35 33 35 38 57 53 55 55
10 15 13 23 25 25 17 12 9 8 6 12 11 13 7 10 10 8 4 1 2 5 10 19 24 28 29 27 27 26 26 26 27 28 31 32 33 35 34 33 47 56 57 55
15 14 7 11 19 22 17 19 13 14 15 4 3 5 6 7 3 10 8 4 7 3 4 15 21 25 28 28 28 28 28 28 29 29 29 30 33 36 34 34 35 43 44 50
17 5 12 10 21 18 20 20 20 8 11 11 10 4 5 9 6 11 9 4 1 2 2 6 15 22 27 30 29 30 29 31 33 31 32 34 32 32 35 40 41 43 43 43
8 8 11 4 7 9 16 18 19 16 13 10 3 2 8 4 3 5 9 19 11 9 2 2 10 19 26 29 30 31 31 33 32 32 34 36 38 39 39 40 43 41 44 43
7 9 11 8 4 3 13 11 18 13 10 13 13 17 12 12 6 9 14 15 16 19 13 5 8 14 21 27 30 30 31 32 32 34 36 37 40 42 41 40 39 42 41 43
3 8 9 11 8 5 5 5 8 12 12 10 12 10 10 9 10 12 15 17 17 17 17 17 10 13 17 23 27 30 31 32 33 33 36 40 41 39 36 39 42 42 43 43
5 8 6 11 11 11 12 11 12 13 12 14 14 16 16 19 13 14 19 20 21 20 18 17 18 17 18 20 25 27 29 33 33 38 42 38 37 40 40 41 41 42 44 46
6 6 10 11 9 8 10 14 15 14 14 15 15 7 1 4 7 11 17 20 22 21 19 16 16 17 16 19 21 25 28 28 32 35 36 36 39 41 42 40 39 42 44 42
9 8 7 7 3 10 9 4 6 9 14 6 8 5 5 6 10 15 10 15 18 19 20 21 18 17 12 13 18 23 25 28 31 32 33 34 38 42 40 39 42 42 42 43
14 12 7 7 10 13 18 6 6 9 11 5 4 5 9 12 13 0 11 11 14 16 16 18 19 17 16 14 14 16 22 26 30 33 35 34 36 38 38 40 42 41 39 40
16 14 10 6 11 11 13 5 6 4 8 9 4 6 8 12 7 4 17 18 17 20 18 19 21 18 14 13 12 13 17 23 29 33 34 31 32 38 38 38 37 36 35 36
11 11 14 12 8 6 7 7 3 10 2 7 7 10 12 10 12 20 22 21 18 17 18 19 20 19 17 17 16 15 14 19 24 25 27 28 31 34 35 33 32 32 32 35
11 9 7 8 5 14 9 6 7 8 4 9 10 12 14 16 18 18 20 20 18 18 17 17 17 19 20 21 16 13 10 13 20 21 24 24 24 25 28 28 38 42 40 37
6 10 8 11 8 6 8 9 3 7 8 11 13 15 16 16 18 18 18 16 14 14 14 15 16 16 19 20 18 13 14 16 15 16 22 26 30 30 29 32 32 32 31 31
8 12 6 3 8 7 9 2 10 10 10 12 13 14 15 16 16 16 15 14 15 14 15 13 11 14 16 16 14 14 11 11 8 13 17 21 25 28 27 27 26 27 28 28
2 6 8 9 12 9 11 12 9 11 11 12 13 13 14 15 16 17 14 13 14 14 15 15 13 14 16 13 12 12 13 12 8 9 12 15 18 20 21 22 19 18 18 15
7 4 4 2 12 9 10 16 12 13 15 15 16 16 16 16 16 15 13 13 12 13 14 14 13 11 12 13 11 8 9 13 9 3 5 7 11 14 15 16 17 12 11 7

GFSCGP_850_spd_087.txt.gz
Wind_Speed
6 4 6 8 8 9 13 15 18 12 13 13 16 17 19 11 12 12 23 28 33 33 34 32 29 28 26 23 23 21 20 17 17 17 15 12 11 9 8 11 18 28 31 35
6 11 7 8 11 13 9 14 24 21 20 14 19 18 11 8 7 14 27 32 36 30 37 36 35 32 30 28 24 24 20 18 17 18 16 16 10 9 13 21 28 37 46 49
7 3 4 9 10 10 12 19 20 23 23 18 21 15 21 6 9 19 22 35 35 38 38 41 39 35 31 27 27 25 21 17 18 20 18 15 12 15 21 25 29 35 42 45
3 5 9 13 14 11 17 15 18 19 11 9 13 14 16 8 14 16 24 24 24 29 35 44 42 37 34 30 27 23 20 19 21 23 21 21 17 24 26 31 31 33 36 39
4 3 4 12 16 15 14 15 15 10 12 17 23 11 14 14 13 11 18 36 33 26 33 45 43 39 36 30 26 24 21 20 24 25 24 22 20 23 32 34 34 33 37 42
9 13 4 5 9 17 11 14 10 9 10 9 19 10 10 15 15 15 10 22 38 30 35 39 43 39 35 29 25 24 22 21 25 26 25 23 25 28 31 34 36 40 38 36
6 16 11 13 7 7 12 8 4 6 5 7 7 11 15 9 17 23 18 21 37 35 34 44 43 39 35 31 28 26 25 24 29 28 28 26 23 28 26 31 40 42 38 36
3 6 10 12 13 5 9 10 3 4 3 3 11 7 9 14 20 24 16 13 20 28 33 44 43 39 35 32 29 27 26 26 32 32 30 28 25 25 25 28 35 42 41 41
3 4 3 10 8 10 4 7 13 5 3 2 5 6 10 14 22 8 8 12 11 25 35 40 40 37 37 31 29 29 28 27 33 34 31 30 28 29 29 31 34 41 43 40
4 4 8 2 0 12 9 7 5 3 3 4 5 6 2 7 5 7 7 9 16 18 30 37 38 40 36 31 29 27 26 27 28 36 33 32 30 30 30 31 36 43 45 41
10 6 4 3 2 8 8 4 5 2 3 2 3 3 2 10 10 11 8 16 14 11 8 14 38 38 37 32 31 28 27 27 29 30 35 34 35 33 29 33 34 36 45 46
5 3 7 16 10 8 8 11 7 3 5 3 0 4 9 17 16 6 7 23 27 25 9 10 25 34 36 34 33 31 28 27 29 30 29 37 38 37 34 34 33 37 38 43
5 2 3 5 3 8 9 14 13 10 2 4 2 1 8 10 16 23 13 18 21 16 20 23 14 30 34 34 32 31 29 28 28 31 31 30 37 41 41 39 37 36 38 40
2 4 4 4 4 2 6 7 19 14 3 4 4 6 10 12 15 18 21 10 21 25 31 30 34 10 28 33 30 31 31 30 26 30 32 34 34 36 42 43 41 41 41 41
3 2 9 11 8 7 2 11 3 12 10 6 0 10 9 11 10 18 21 22 27 26 27 26 27 25 19 4 18 32 30 31 29 28 35 37 36 35 34 39 44 44 45 45
0 3 6 8 11 7 11 14 3 1 4 11 12 12 7 19 14 9 16 22 22 23 25 22 22 24 25 23 16 6 31 32 31 32 33 36 37 37 40 39 40 42 45 47
5 3 4 3 9 14 5 10 13 11 16 11 10 11 1 2 17 12 16 22 20 22 22 20 18 20 22 20 17 14 5 13 34 35 34 35 40 41 41 41 40 43 45 45
4 5 3 4 6 3 4 6 4 2 10 5 12 10 9 15 17 23 22 20 18 14 12 12 12 15 20 22 21 16 12 10 5 33 37 34 36 40 43 42 45 46 46 46
10 5 2 2 3 6 14 4 3 2 7 11 12 9 13 12 19 20 23 23 20 22 18 22 17 15 16 19 20 18 12 9 5 3 11 21 32 39 39 42 44 45 48 50
12 7 5 2 4 5 5 2 10 1 5 7 12 11 11 18 7 6 25 34 29 30 23 18 13 11 16 17 17 18 18 15 15 14 14 13 17 28 42 39 39 43 45 47
10 5 11 7 3 6 5 7 10 4 4 10 18 17 18 10 9 16 22 27 21 20 18 16 15 15 15 17 16 17 18 19 18 17 19 19 15 13 28 36 40 41 44 43
7 7 4 4 3 6 13 6 4 6 18 20 24 23 22 21 18 19 17 20 18 18 18 18 18 18 16 16 17 18 18 18 18 19 20 22 18 15 11 24 28 34 38 41
2 6 5 6 5 9 22 18 24 23 24 22 25 21 17 19 16 19 17 16 16 17 18 18 16 15 17 16 16 17 17 18 17 17 19 22 23 18 17 12 13 16 24 34
2 10 2 3 10 12 22 24 20 22 24 23 18 17 15 16 14 15 13 15 15 16 17 18 16 16 17 18 17 17 16 15 15 13 14 16 21 25 21 15 11 9 8 11
3 2 5 4 11 19 17 14 14 22 18 18 16 12 9 10 12 10 11 13 14 15 16 16 16 15 15 16 16 16 15 13 13 12 10 12 15 16 18 18 18 20 18 11
8 5 3 3 9 14 12 14 13 14 14 10 5 7 7 6 8 6 5 9 12 16 15 14 14 14 14 14 14 14 14 13 11 9 8 9 9 11 14 17 17 12 13 16

GFSCGP_850_spd_090.txt.gz
Wind_Speed
2 3 7 8 6 4 4 7 9 6 5 7 13 13 15 18 24 22 31 33 37 39 39 36 33 34 31 27 25 22 20 20 20 19 19 20 21 19 21 25 32 33 41 47
3 7 6 7 6 7 6 3 7 5 5 12 16 25 19 23 20 26 27 29 31 40 34 36 39 38 35 31 27 24 21 20 19 19 17 18 15 16 15 17 30 34 35 38
6 3 5 5 5 8 6 5 3 5 14 11 5 22 21 24 17 26 25 32 37 38 36 36 45 43 39 34 31 27 22 20 20 17 19 17 16 12 12 11 18 27 33 33
6 2 3 1 3 2 12 6 5 7 6 5 2 11 17 16 20 19 17 20 26 32 35 39 48 47 42 37 32 27 22 21 19 17 21 18 18 15 15 11 14 23 31 38
4 4 2 1 3 6 6 4 7 1 8 9 14 7 13 12 18 19 15 22 24 27 34 41 53 49 44 39 34 28 24 21 20 19 21 20 18 14 18 17 17 22 28 34
5 4 6 8 3 1 2 4 5 6 8 10 12 11 11 13 16 17 16 21 28 26 35 44 52 51 47 40 34 29 26 24 22 21 24 21 21 19 23 24 20 24 28 30
2 5 4 5 4 3 5 5 3 5 6 11 5 13 17 12 16 15 17 22 33 26 31 41 46 51 47 42 36 31 28 27 23 22 25 24 23 22 23 27 26 29 33 35
4 3 6 6 7 4 6 5 3 6 4 3 10 7 5 21 22 32 34 29 39 26 35 46 51 54 50 44 38 34 30 28 25 23 24 24 24 25 27 28 28 31 31 34
5 4 1 5 3 6 4 4 5 5 2 1 4 5 5 7 12 13 20 22 16 26 40 44 47 51 48 42 40 34 30 28 25 24 23 25 23 22 27 27 26 29 36 38
2 2 4 4 4 5 8 2 2 3 3 3 4 3 3 10 9 13 17 10 7 24 34 40 45 47 43 43 37 33 28 26 24 25 25 26 28 26 25 25 29 31 34 41
2 3 4 2 5 5 3 3 4 4 3 1 3 2 6 11 11 14 16 26 12 12 26 35 39 43 43 39 37 33 30 27 25 25 27 28 30 30 29 29 31 30 32 38
2 1 4 9 11 6 8 4 4 3 3 3 2 3 6 12 15 16 18 31 17 23 11 28 34 38 38 36 35 31 28 28 26 25 28 29 29 32 32 32 31 31 33 34
2 3 4 6 5 6 3 8 11 8 2 4 4 2 7 14 17 23 19 19 17 30 30 16 20 26 30 32 32 30 29 28 25 25 28 28 30 33 36 35 32 34 35 36
1 3 3 4 7 4 6 3 12 10 3 3 6 6 4 4 13 14 24 22 16 29 36 39 18 8 6 13 21 26 28 30 27 25 27 29 31 32 33 36 37 34 35 36
3 1 2 7 14 6 6 6 7 4 12 4 2 4 5 3 4 8 22 17 22 24 33 33 31 28 21 9 3 13 23 30 32 30 28 29 29 31 31 32 36 39 38 38
4 2 3 4 8 10 14 14 11 5 11 11 16 14 7 4 7 2 15 16 17 19 30 32 27 24 21 19 15 10 5 19 27 36 36 33 31 33 34 34 34 35 37 40
2 3 4 3 6 12 8 7 15 7 12 7 2 7 1 9 9 6 4 11 15 20 24 29 27 23 20 17 12 10 5 4 9 22 35 32 32 36 38 39 38 39 39 40
3 2 2 3 3 5 7 13 9 5 4 15 3 12 16 17 21 28 25 19 25 23 25 25 21 19 19 17 15 10 7 8 8 7 20 28 31 31 36 37 41 44 43 44
9 4 1 2 3 10 14 2 3 10 5 8 10 5 18 18 22 26 24 26 26 23 21 21 19 18 17 16 17 15 13 8 7 6 1 5 9 26 33 35 41 43 41 44
9 5 4 1 3 4 5 6 21 3 3 4 9 5 5 8 7 6 16 17 20 20 18 18 16 13 14 16 14 14 16 16 17 16 14 10 8 9 13 27 37 40 45 49
3 1 12 7 3 6 5 16 18 8 3 10 16 15 14 7 9 16 12 15 16 17 18 16 14 15 14 14 14 13 15 17 19 17 14 14 14 12 12 14 22 34 39 43
6 5 4 3 4 9 18 7 4 5 18 20 19 18 21 19 16 15 14 15 17 18 17 16 15 16 15 13 12 14 15 16 14 14 14 16 17 15 14 13 16 18 24 31
4 5 3 6 4 7 17 17 22 17 21 19 21 17 17 15 13 13 15 15 17 17 16 16 16 15 14 15 14 13 14 14 15 14 12 11 12 14 13 10 8 11 13 14
3 4 1 3 8 11 16 19 22 22 18 16 16 15 15 16 11 12 12 13 16 17 18 17 15 16 16 16 14 13 12 11 11 15 13 12 13 14 13 11 11 10 9 9
6 3 4 5 10 13 16 14 11 14 11 12 8 9 13 11 12 10 10 11 13 15 17 17 17 16 15 14 14 14 13 12 11 11 12 11 12 13 15 16 16 15 13 11
8 5 3 2 9 9 6 10 10 8 7 8 5 8 11 9 9 7 9 10 11 13 14 14 14 14 14 14 13 12 11 10 9 8 6 6 7 9 12 16 18 18 17 16

GFSCGP_850_spd_093.txt.gz
Wind_Speed
5 4 9 10 5 4 4 4 4 3 5 4 4 12 14 11 15 18 20 26 30 37 39 32 39 37 36 39 34 29 26 23 23 21 19 19 22 23 25 25 28 22 31 34
1 6 5 7 6 6 6 7 9 5 5 5 6 16 18 16 8 19 23 27 32 39 29 29 40 41 40 40 35 32 29 25 24 21 17 17 18 22 21 26 30 33 28 36
6 4 1 7 4 5 4 7 4 7 4 6 5 18 14 19 13 18 23 26 34 35 31 29 41 44 44 43 38 34 31 26 25 20 19 19 20 19 18 23 26 30 35 36
5 1 3 2 1 3 4 5 6 4 2 7 3 16 22 13 12 12 19 21 30 30 24 32 40 46 46 45 40 35 31 27 25 23 21 19 18 18 18 17 20 25 32 35
3 5 4 3 3 3 5 4 5 7 3 2 5 3 17 7 14 16 10 17 23 27 29 32 37 45 49 47 42 36 32 28 25 23 21 18 18 16 13 11 11 14 23 31
4 2 4 5 2 1 1 2 3 3 0 8 11 11 13 9 13 13 14 19 25 29 23 32 34 44 52 49 43 38 33 30 26 25 21 20 19 17 15 17 15 14 16 21
2 3 3 4 3 2 3 3 2 4 5 6 5 12 17 23 19 17 17 20 26 24 21 23 32 41 53 52 46 41 35 32 28 26 22 22 19 18 16 15 17 17 18 19
5 1 7 5 7 6 5 5 3 4 3 3 8 6 5 12 14 13 18 19 30 36 34 25 29 43 51 54 49 43 37 34 29 27 23 22 22 20 18 17 16 17 18 19
4 3 2 5 4 7 3 7 2 5 3 3 4 6 5 14 17 18 15 21 25 29 32 32 36 42 46 55 51 44 38 34 30 28 24 24 25 23 23 21 20 19 19 22
2 1 3 2 4 2 4 3 4 3 3 3 4 4 2 12 16 17 18 15 21 16 16 27 39 43 45 52 47 43 35 32 28 28 24 23 24 25 22 25 26 25 23 25
2 2 2 6 6 7 3 3 3 2 4 2 3 3 4 6 11 15 15 26 27 24 9 22 31 37 41 45 45 41 35 31 28 27 25 24 23 22 21 25 28 28 28 29
1 3 2 8 5 5 3 3 4 2 2 3 2 5 3 8 11 16 21 32 29 23 9 17 20 28 33 38 41 38 34 29 27 26 25 24 24 24 25 26 27 27 29 28
3 2 3 2 3 5 4 1 2 6 3 6 4 2 5 7 14 26 26 34 31 29 19 19 17 19 23 26 30 32 30 29 26 24 24 24 25 26 27 27 27 27 29 29
5 2 2 3 4 3 4 6 7 3 3 3 7 4 1 6 2 14 28 31 29 27 28 25 22 16 9 6 9 15 21 23 23 24 23 24 25 27 27 26 28 29 29 31
3 1 2 5 8 5 5 10 12 9 8 6 5 5 2 0 7 5 9 26 21 21 27 28 28 26 22 15 6 5 10 14 18 23 25 25 23 25 26 27 26 27 29 31
2 2 1 4 5 2 5 14 15 12 9 11 14 16 6 7 8 10 6 15 11 16 23 23 24 26 25 18 17 7 9 13 14 14 20 23 23 24 26 27 29 29 30 31
1 1 2 4 4 7 6 7 10 3 4 2 5 5 6 7 8 8 2 6 15 18 20 21 24 23 20 19 15 13 9 4 4 12 13 14 19 23 25 26 30 32 33 33
5 4 3 3 3 3 6 11 11 6 5 16 15 6 15 17 19 19 17 16 17 15 16 16 19 20 19 17 14 9 7 8 7 6 11 11 13 17 21 21 24 27 32 37
5 4 1 2 3 8 9 4 3 10 8 6 7 11 18 23 24 17 17 19 16 16 15 16 17 17 16 17 14 12 13 11 7 5 2 3 5 8 13 20 25 30 30 31
5 3 3 1 2 3 4 3 15 11 3 2 8 10 6 2 5 4 8 13 16 15 14 15 15 14 13 15 13 11 13 13 13 11 9 6 1 5 6 10 14 20 28 34
3 1 7 6 6 6 4 11 13 4 3 9 10 14 5 3 9 12 9 12 13 9 12 12 13 15 15 12 11 11 12 13 13 12 11 10 10 9 8 8 9 10 12 18
4 4 3 3 4 7 15 4 1 4 16 15 17 18 23 20 17 12 10 11 12 11 11 12 13 14 13 12 11 12 12 12 11 11 11 11 11 11 11 11 10 9 8 7
1 2 2 5 3 8 19 15 18 18 20 20 19 17 15 16 14 11 10 11 12 15 14 13 13 12 13 13 14 13 13 11 10 10 9 10 11 12 11 11 11 10 9 7
1 3 3 3 7 9 14 15 19 17 16 16 16 16 14 14 10 10 9 10 12 13 14 13 12 12 12 12 12 12 10 9 9 10 11 9 10 11 12 12 14 13 10 11
3 7 7 2 6 6 18 14 12 15 11 12 10 13 11 8 11 10 8 8 10 12 13 13 13 13 12 12 11 10 8 7 8 8 8 7 8 9 10 11 14 15 15 12
6 4 3 3 11 6 8 11 10 14 13 13 12 10 10 7 8 7 6 7 8 9 10 9 9 9 10 11 11 10 10 8 7 5 4 5 7 8 9 13 14 14 12 10

GFSCGP_850_spd_096.txt.gz
Wind_Speed
8 4 8 11 5 2 3 4 4 2 6 5 8 14 7 11 18 11 21 30 30 30 27 22 23 27 40 42 40 38 34 29 25 24 23 22 23 23 23 24 23 22 24 32
3 11 7 6 6 6 5 5 5 5 7 7 8 23 10 7 12 24 24 27 30 30 31 27 25 26 37 43 43 40 38 33 29 25 22 22 21 21 22 22 24 28 24 27
6 2 7 7 5 6 4 4 4 6 4 5 7 25 22 15 20 25 28 30 32 29 31 29 26 25 37 43 44 43 41 35 31 26 24 22 21 20 25 26 31 31 32 25
4 3 5 6 4 6 3 5 5 3 2 4 2 13 17 12 19 14 21 26 36 33 35 30 26 24 35 44 44 43 42 37 32 28 24 24 22 21 23 22 21 28 35 36
5 7 5 3 4 6 4 3 2 1 3 1 5 4 2 8 7 11 13 24 32 31 30 28 24 18 28 43 45 45 42 37 32 28 24 23 21 20 18 17 20 23 26 29
5 2 4 4 3 3 3 2 1 2 2 5 10 10 7 6 10 6 10 23 28 30 28 24 16 16 26 39 44 44 43 38 34 28 25 23 20 20 19 17 15 13 14 26
2 2 2 3 4 2 3 4 3 3 2 5 6 9 16 18 20 16 19 21 23 21 19 16 17 19 28 40 46 45 44 40 34 29 26 23 19 20 19 15 16 14 13 16
5 3 7 4 4 4 3 3 4 4 3 3 3 6 5 3 5 16 22 22 20 20 18 20 22 19 31 39 46 47 46 41 36 30 26 23 19 21 18 15 17 15 16 14
4 1 2 3 3 6 3 3 1 3 6 4 4 6 5 9 14 18 22 28 30 33 26 15 15 23 33 39 44 49 46 42 36 28 25 24 21 21 18 16 16 15 15 14
3 5 2 3 5 4 4 4 1 3 3 4 4 5 3 10 13 15 21 24 36 36 29 12 17 24 31 34 38 44 45 41 35 27 24 23 20 20 18 17 18 17 14 16
3 3 3 4 3 6 3 1 2 2 3 3 3 3 2 4 5 11 15 27 36 38 20 5 11 19 24 29 33 39 42 38 31 26 21 22 19 19 18 18 18 18 17 15
2 3 2 3 4 5 3 3 1 3 3 3 4 5 4 5 7 9 16 31 37 29 12 7 8 10 16 21 26 32 35 33 28 23 18 17 17 17 17 17 19 19 20 20
2 2 3 3 3 5 3 2 2 3 3 6 2 5 3 5 4 9 17 28 36 26 25 18 12 9 10 15 20 27 29 27 24 19 17 16 13 17 17 16 17 18 21 22
6 3 4 2 3 2 3 3 6 7 3 4 7 11 11 4 6 5 7 21 29 23 28 30 31 20 12 8 8 14 17 18 16 17 17 15 12 12 16 15 15 19 21 22
4 3 2 1 4 3 6 9 9 11 12 7 6 14 16 10 3 2 1 11 17 23 31 32 31 27 22 15 11 10 8 10 12 15 16 17 14 10 10 17 17 16 17 20
4 2 2 2 5 2 5 9 12 15 15 13 13 15 9 9 4 4 7 10 14 17 23 26 26 28 24 26 17 11 10 9 7 8 9 12 14 14 13 12 14 17 18 18
1 3 2 2 2 6 7 4 5 6 4 2 6 7 14 5 7 6 9 13 15 18 25 27 28 25 25 20 17 14 14 6 7 9 9 10 10 11 12 12 14 16 18 17
2 2 2 2 3 2 6 10 5 4 4 7 10 13 5 12 17 22 18 11 17 19 21 23 21 23 21 16 13 13 11 10 10 9 7 5 7 10 12 14 16 18 20 22
4 3 1 1 1 6 8 3 4 4 8 4 4 10 11 16 19 18 15 16 16 17 18 19 16 16 13 12 14 14 13 12 11 10 6 2 1 2 5 10 14 19 23 23
5 4 2 1 0 3 5 4 15 6 3 14 5 8 8 17 2 4 11 13 15 15 16 16 15 13 10 10 12 12 13 14 16 15 13 10 8 5 3 3 5 9 14 18
3 3 3 2 4 5 4 11 12 2 4 12 14 3 12 5 5 9 10 12 13 14 11 12 13 14 14 11 12 13 13 16 15 13 12 11 10 9 9 8 7 5 5 8
2 3 3 2 3 6 14 4 4 4 16 17 20 19 24 18 16 12 11 11 16 17 14 13 13 15 15 14 13 14 14 14 13 12 10 9 10 11 11 10 9 8 6 4
2 2 2 5 2 8 12 12 11 13 13 17 22 18 15 20 15 12 10 13 16 15 14 14 13 12 12 13 13 12 13 12 12 13 12 11 11 10 9 9 10 11 10 9
3 7 3 5 5 9 11 13 15 15 18 17 17 14 12 15 11 9 12 15 13 13 13 11 10 11 12 12 12 12 11 10 11 12 12 10 10 12 11 9 12 11 11 11
3 8 5 2 6 6 19 14 12 14 15 16 16 15 13 11 12 10 12 11 11 10 10 10 9 10 10 10 9 10 9 8 8 8 8 9 9 11 12 10 15 16 15 12
4 4 3 3 12 5 10 12 12 16 16 16 16 14 15 12 10 7 9 9 9 10 10 10 10 11 11 11 10 8 8 7 6 5 4 4 4 5 6 8 11 11 14 14

GFSCGP_850_spd_099.txt.gz
Wind_Speed
11 10 17 18 17 5 6 4 6 2 5 8 16 21 16 14 19 18 19 22 25 30 30 29 25 21 21 27 32 35 39 36 33 30 26 24 24 25 25 22 21 18 22 27
6 17 11 10 9 9 8 10 10 6 8 7 14 26 18 12 16 27 28 27 27 31 36 35 32 27 26 28 34 36 41 38 36 33 27 24 22 23 24 24 24 23 22 24
6 2 13 11 8 9 8 12 8 10 5 7 12 25 22 14 26 30 29 30 31 32 32 34 36 30 29 30 36 38 42 41 39 35 30 25 22 22 22 24 26 25 23 27
6 2 6 7 10 11 12 8 7 5 3 5 2 9 9 3 7 12 20 23 25 27 32 35 36 34 35 33 34 39 41 42 41 38 33 27 21 22 20 21 23 25 26 28
5 7 8 6 4 9 4 5 6 5 6 3 6 7 2 12 12 14 15 21 25 28 28 31 37 37 36 34 35 37 39 41 42 40 33 28 23 19 17 18 22 24 27 32
3 2 4 5 4 3 8 6 2 2 3 5 11 8 3 3 5 23 17 23 25 20 21 27 30 33 34 29 32 36 39 41 44 40 33 28 21 19 20 18 20 22 23 26
2 3 3 6 7 2 3 5 2 2 3 4 1 7 11 16 10 10 14 22 25 23 20 18 19 28 31 30 31 35 36 41 44 41 34 27 22 19 18 17 18 20 16 17
9 5 8 5 3 6 7 4 3 4 3 1 2 6 3 5 4 9 18 22 24 28 24 19 15 25 30 29 31 34 35 42 44 41 34 27 22 19 18 17 16 15 12 11
6 2 3 3 3 3 3 3 1 2 3 1 4 5 5 4 8 14 21 28 32 33 28 22 15 22 28 26 31 31 34 40 42 39 32 28 23 20 19 14 14 15 13 11
6 6 2 3 5 9 2 6 3 1 2 3 4 5 5 8 10 12 16 23 33 34 30 16 14 19 25 25 27 27 30 36 40 37 30 27 22 18 17 15 15 14 16 14
4 3 2 5 3 8 3 3 3 1 2 1 3 1 7 11 9 10 11 16 26 33 29 16 9 9 16 20 24 26 26 32 37 32 28 26 21 17 17 16 15 16 14 15
1 4 5 2 3 4 3 4 3 2 4 2 3 5 3 9 10 13 13 18 24 30 32 13 8 3 8 16 20 23 26 30 31 29 24 22 19 16 16 16 17 16 16 15
3 2 6 7 5 2 3 3 4 3 1 4 2 3 4 15 14 17 13 14 24 29 29 27 17 9 9 12 16 21 23 26 27 24 19 16 16 15 15 15 16 17 17 17
4 3 3 4 5 3 2 2 2 2 2 4 8 15 14 15 19 17 14 12 24 24 21 25 30 27 19 12 13 14 19 19 19 17 14 10 8 8 14 15 15 15 15 17
4 5 5 5 3 3 2 3 5 7 10 7 10 14 19 11 15 6 6 12 22 16 18 25 32 30 25 24 20 18 16 13 13 10 8 7 6 5 7 15 15 14 15 16
3 3 1 1 3 4 4 7 10 9 10 13 17 19 15 10 16 1 9 12 20 19 25 26 26 31 32 28 23 18 15 12 8 7 6 3 5 6 6 7 14 16 15 14
3 3 1 2 3 4 5 4 7 7 6 5 10 13 12 11 12 15 17 15 15 13 19 23 25 28 27 28 28 26 24 15 12 10 10 7 6 9 10 8 7 10 13 16
2 3 1 1 2 2 2 8 2 8 8 11 12 9 10 14 18 23 22 17 15 17 20 22 24 27 26 25 24 23 21 16 15 12 6 8 8 8 10 12 15 16 17 17
1 2 3 1 1 5 2 6 5 5 8 13 10 8 11 6 6 20 22 19 17 18 18 18 19 19 21 24 24 20 17 9 13 10 4 6 6 5 5 8 11 14 18 19
5 4 2 1 1 2 4 10 13 6 3 17 19 6 9 12 3 3 17 18 18 17 17 18 16 14 17 20 18 16 18 19 19 14 11 10 9 7 4 4 2 3 5 8
3 3 1 2 2 4 7 16 12 2 4 15 18 14 10 5 8 9 11 16 17 17 17 17 19 20 19 15 13 15 16 18 17 14 11 12 13 12 10 8 6 6 4 2
3 2 1 1 2 2 15 5 5 1 8 11 15 16 22 18 15 14 15 17 17 17 16 17 18 19 18 17 15 15 15 15 13 11 11 11 12 13 12 10 10 9 7 6
3 4 2 3 4 7 15 15 11 11 11 14 14 13 15 16 12 13 14 14 14 14 14 14 14 15 15 15 15 13 13 12 12 11 11 11 11 12 11 9 10 11 10 9
2 10 2 2 7 12 16 16 16 15 16 14 14 13 12 12 11 12 12 11 12 13 14 13 12 13 13 13 13 13 10 10 9 9 10 10 11 12 10 9 10 10 11 11
3 6 5 1 5 3 18 16 13 14 14 15 15 14 12 10 11 10 10 10 10 10 11 12 14 14 14 12 11 10 9 9 8 8 9 10 10 12 13 11 13 14 13 11
4 3 2 3 8 8 10 11 11 13 14 14 13 13 13 11 9 8 10 10 10 11 11 11 12 12 13 13 12 11 10 8 7 7 8 9 8 9 11 12 13 15 12 13

GFSCGP_850_spd_102.txt.gz
Wind_Speed
24 15 23 24 21 16 16 16 17 10 4 12 16 19 18 17 18 20 21 25 27 29 28 26 23 21 18 18 21 24 27 30 35 35 33 29 27 25 26 23 20 21 21 21
12 24 22 19 18 20 18 16 15 12 11 14 19 21 19 19 21 26 30 32 33 31 30 30 29 28 23 22 23 24 27 31 37 38 35 30 27 26 26 24 22 21 21 21
17 10 22 16 16 19 20 19 14 13 11 16 18 22 19 12 22 29 30 30 30 30 31 32 33 33 30 26 28 27 27 30 35 35 32 29 26 26 28 26 25 23 21 22
13 8 10 18 22 19 18 16 14 12 8 7 2 5 10 6 4 7 7 12 15 17 21 27 30 31 31 28 28 26 26 31 32 34 36 37 31 28 23 22 23 24 24 26
10 14 14 16 19 17 14 6 11 10 10 10 13 7 2 6 8 2 9 11 11 14 16 22 26 28 30 28 24 26 26 30 32 37 38 35 27 20 16 18 19 22 21 24
8 5 10 8 8 16 9 9 6 4 5 7 14 11 5 2 6 7 7 12 13 15 16 15 16 22 27 28 26 25 27 32 34 38 39 36 29 22 16 17 16 16 22 20
10 10 6 14 13 9 11 12 5 5 4 5 3 7 9 3 3 5 9 14 15 18 19 18 16 15 23 27 27 25 28 34 40 44 39 36 32 24 18 15 15 15 18 19
11 7 12 10 11 9 14 13 4 7 5 4 6 6 4 3 2 6 10 14 18 23 22 22 19 15 17 22 24 26 30 33 40 44 40 36 29 22 17 16 14 14 14 15
11 6 8 12 6 9 10 8 1 2 1 3 5 5 8 3 5 5 12 18 24 27 24 26 19 14 12 19 21 23 27 29 35 41 41 37 29 22 17 15 15 14 13 14
7 6 11 9 12 4 5 9 4 4 5 5 5 4 4 8 13 12 14 18 25 26 27 27 21 13 10 14 16 21 26 30 32 36 39 35 29 22 17 15 15 13 14 13
10 6 8 11 9 13 6 5 2 0 2 2 1 5 5 10 14 15 15 17 20 21 26 25 23 13 2 9 14 20 24 29 30 37 36 32 26 22 19 15 15 15 15 17
1 7 11 9 4 4 3 5 4 3 5 2 0 3 4 11 15 14 17 16 17 17 20 28 22 13 4 7 12 18 24 27 28 33 31 28 24 22 18 16 16 16 16 19
5 7 8 8 6 7 6 6 6 4 2 3 2 3 2 10 13 18 14 13 15 18 19 29 29 15 8 7 11 15 18 22 26 25 30 27 24 21 17 16 16 17 17 18
2 3 4 6 8 9 8 8 6 3 3 1 7 13 12 15 14 15 14 12 16 20 25 29 30 22 14 13 10 12 16 19 21 24 26 23 22 18 16 15 16 17 18 17
6 8 11 11 10 8 8 7 5 2 5 4 10 14 15 14 15 17 10 14 16 24 31 27 29 27 18 17 13 15 15 15 21 21 20 18 18 15 16 16 15 15 16 17
5 2 7 9 7 5 3 1 4 3 4 6 8 9 17 23 25 25 20 18 17 22 23 29 25 26 26 21 20 17 19 22 22 22 19 16 14 12 11 10 15 15 15 15
2 3 2 4 1 1 3 7 6 2 5 7 9 12 14 13 15 21 20 18 17 17 22 22 25 27 28 26 23 23 20 17 19 18 18 17 16 16 14 11 9 11 13 13
2 4 2 3 3 3 6 6 6 4 11 16 15 8 11 13 15 23 22 20 21 22 22 22 25 26 27 24 23 25 23 19 19 18 17 14 13 13 11 11 11 12 14 16
4 2 3 1 4 6 8 8 9 8 7 16 17 4 7 11 10 19 19 18 20 20 21 20 20 22 24 25 24 22 20 23 21 19 17 14 10 10 7 8 10 13 14 14
4 4 2 0 2 3 7 11 12 8 2 15 15 11 8 10 1 5 15 16 17 20 20 22 20 18 19 23 20 21 20 18 19 18 17 13 9 8 9 7 6 6 8 10
3 3 4 2 3 5 11 16 18 4 6 12 13 14 18 6 7 5 10 15 16 18 20 19 20 22 20 18 17 21 22 22 16 16 13 10 10 7 10 8 7 7 6 6
4 3 2 1 1 2 21 8 6 5 12 11 12 12 14 13 10 10 13 15 16 16 16 17 18 19 18 17 16 17 19 17 16 17 13 12 10 12 10 9 9 9 9 7
2 5 4 5 3 7 16 14 11 12 10 13 12 10 10 11 11 11 12 13 15 15 16 16 16 15 15 15 15 14 15 12 13 13 13 13 14 14 13 10 10 9 9 9
3 9 2 4 6 10 12 13 13 12 13 11 11 10 9 10 9 10 11 12 13 14 14 14 14 14 14 14 13 13 11 11 9 10 11 12 12 13 12 12 12 11 11 10
4 6 4 4 8 9 13 12 10 11 11 11 11 11 10 8 9 9 10 11 11 11 12 12 12 13 14 14 13 11 9 9 9 8 9 9 10 11 12 11 12 13 13 11
5 3 2 2 4 8 7 8 8 10 11 10 9 9 10 9 8 8 9 10 10 11 11 12 13 13 14 13 12 12 11 9 7 6 6 6 6 7 9 11 13 15 14 15

GFSCGP_850_spd_108.txt.gz
Wind_Speed
23 16 21 30 27 28 24 25 25 23 26 25 28 27 25 19 24 19 19 15 17 20 19 21 20 24 31 31 35 27 34 32 31 31 36 31 31 29 30 23 19 16 16 15
18 23 29 27 25 28 29 27 26 22 26 16 16 22 19 22 19 21 23 25 26 22 20 23 22 26 27 29 29 23 27 32 31 32 36 33 29 35 32 30 26 20 15 17
23 26 24 27 28 27 27 27 21 20 20 17 16 15 16 17 19 25 26 25 22 23 28 29 29 29 24 29 27 26 23 25 30 35 36 29 29 34 29 28 26 24 22 21
25 27 24 26 29 27 23 24 21 20 14 11 16 13 17 23 24 26 22 22 20 12 6 9 14 18 19 20 24 31 33 31 32 34 33 36 39 41 37 31 27 24 23 23
27 24 23 26 25 26 22 14 12 12 13 17 19 12 13 10 12 14 11 13 7 5 6 9 13 17 20 20 19 23 33 35 35 38 37 35 35 37 31 28 27 26 21 23
28 25 22 24 19 22 14 4 8 10 12 14 21 16 12 12 10 16 13 9 5 7 11 10 13 13 14 19 26 26 26 37 37 41 37 35 37 30 28 25 29 25 25 22
22 15 25 16 17 18 11 12 3 7 7 12 18 15 13 10 13 15 11 15 15 15 16 17 21 21 24 22 18 30 30 34 40 40 40 38 37 34 29 26 27 25 24 24
16 9 19 11 16 15 18 17 6 8 9 11 18 9 14 16 12 11 15 14 20 17 17 15 17 22 23 23 23 16 30 30 38 37 41 39 35 39 28 29 32 24 20 21
7 11 11 13 9 17 20 19 19 4 6 2 7 7 10 13 13 9 12 13 15 19 16 17 19 23 23 22 24 23 21 30 35 35 39 35 35 34 31 33 29 22 21 16
2 4 6 7 5 7 7 11 8 5 5 3 10 10 9 9 8 12 15 16 20 20 21 21 23 27 24 21 22 18 22 28 32 29 36 36 35 32 31 27 27 26 22 19
5 3 9 6 9 11 2 7 5 8 7 3 4 4 9 4 4 16 17 21 21 23 22 21 23 27 26 19 14 4 3 14 16 24 33 33 34 34 29 28 29 26 28 24
11 6 7 15 9 11 12 7 15 2 6 4 3 3 14 17 19 19 23 22 23 24 23 21 23 28 26 20 17 9 12 9 19 25 32 34 32 33 27 28 27 29 26 22
4 3 2 4 7 5 7 17 14 8 3 3 1 4 13 18 19 24 22 22 22 24 23 25 26 30 29 21 18 9 9 9 10 11 20 27 32 33 29 26 25 23 20 19
9 3 4 2 5 8 7 10 7 3 2 5 12 8 17 17 16 17 21 21 22 23 23 25 30 33 31 23 21 15 7 2 11 13 17 28 34 25 27 25 24 19 20 21
5 9 3 9 17 12 7 7 6 6 3 4 12 18 17 15 14 17 19 20 20 22 25 27 30 32 37 29 26 19 12 3 9 13 17 24 29 26 26 22 22 18 19 21
10 1 8 9 12 21 10 4 10 15 17 18 13 11 14 16 17 22 21 20 21 22 24 28 31 32 34 40 32 27 19 12 7 12 16 20 24 23 22 22 19 18 19 19
10 5 6 10 12 11 11 16 17 19 19 12 11 9 10 12 15 19 19 18 19 20 20 25 31 33 30 32 37 35 29 20 16 13 14 16 18 23 24 22 21 20 19 17
3 7 3 2 1 4 6 18 21 22 20 17 14 12 9 13 16 18 18 17 18 18 22 21 24 27 29 30 31 30 33 34 29 23 15 13 15 19 22 23 25 25 25 24
4 4 2 2 2 10 12 16 14 10 14 18 15 15 8 13 8 19 19 16 16 19 21 21 21 22 24 26 27 26 27 31 34 33 31 25 15 9 14 17 23 28 28 27
6 7 3 2 4 1 6 20 24 14 7 16 17 15 16 5 3 4 15 17 17 18 18 18 18 20 21 23 23 24 27 29 26 27 25 24 24 24 22 14 11 14 21 22
7 5 7 4 3 5 15 23 20 3 4 10 15 16 18 9 7 6 12 16 19 19 18 17 19 22 23 22 21 23 23 23 22 20 18 20 18 20 22 22 17 18 20 17
7 5 5 6 5 4 29 7 6 2 7 10 12 13 13 11 10 12 16 17 18 19 19 19 19 22 22 22 20 22 25 21 18 16 16 17 15 17 18 15 13 15 16 17
5 4 3 6 3 5 11 12 11 11 11 12 12 13 10 11 11 13 14 14 15 16 17 17 18 19 22 22 20 20 21 20 18 16 17 14 13 13 12 12 12 10 14 14
5 12 3 6 6 9 10 10 11 11 11 10 11 11 11 10 11 11 13 14 15 16 17 17 17 19 21 20 19 17 14 15 15 16 16 17 17 15 13 11 12 12 13 11
5 6 3 5 9 11 10 9 8 9 10 10 10 12 13 11 12 12 13 14 14 15 16 16 17 18 19 19 19 18 15 11 13 14 13 15 16 16 16 15 15 15 13 11
9 4 3 2 5 8 6 6 7 8 10 10 11 11 13 13 13 11 12 13 13 14 15 15 16 16 17 17 18 20 18 16 11 12 13 13 11 13 15 16 17 17 14 11

GFSCGP_850_spd_111.txt.gz
Wind_Speed
17 10 18 17 15 19 17 16 18 16 19 20 16 26 19 16 27 22 26 30 35 31 29 38 38 35 36 33 34 32 36 44 46 40 36 33 32 30 29 27 23 19 17 17
14 22 16 17 16 18 19 20 22 24 21 16 15 18 15 22 21 29 25 29 22 18 15 10 7 21 21 27 31 24 30 38 46 42 36 33 33 32 31 31 27 23 19 17
18 22 18 20 19 20 20 21 21 20 21 19 12 18 18 13 21 16 25 25 25 27 25 24 18 16 17 19 27 31 28 36 45 40 35 33 29 29 33 37 35 29 22 20
14 19 22 24 20 19 19 18 22 22 18 7 4 6 14 15 17 8 12 15 7 8 10 10 7 6 8 3 6 17 29 32 40 38 33 33 35 36 43 44 40 33 29 26
14 17 22 21 14 17 19 20 19 9 11 4 5 7 7 8 10 16 18 18 22 25 21 18 15 11 7 1 5 6 16 35 41 39 33 32 33 33 41 42 40 36 35 30
19 25 15 15 15 13 20 11 5 5 2 6 13 6 6 4 7 9 18 25 28 24 20 16 12 8 9 8 8 9 14 8 36 38 34 34 35 31 41 40 37 35 32 35
10 17 16 8 6 19 12 8 3 1 2 5 6 5 10 10 16 19 19 25 28 26 23 24 21 19 18 21 19 16 17 21 19 41 40 40 38 32 37 40 39 35 35 34
4 5 11 8 12 10 6 9 5 5 4 2 4 8 10 8 25 28 29 30 32 32 26 26 26 23 22 22 21 22 23 24 24 34 44 42 41 36 37 38 35 32 33 34
2 6 6 10 13 7 6 9 7 3 1 2 5 3 3 8 20 19 23 31 31 30 29 27 26 26 23 22 20 20 22 25 25 22 41 44 41 38 39 36 33 29 28 29
3 4 13 17 6 8 7 6 5 3 2 4 6 6 2 11 15 19 22 25 30 29 27 26 28 28 25 24 24 18 15 19 27 23 35 43 41 37 36 35 33 30 27 25
5 5 3 3 3 2 5 4 5 2 2 2 2 3 7 7 12 17 19 31 26 25 27 28 29 29 27 25 23 17 12 6 14 25 35 39 39 36 34 34 32 31 29 26
3 2 1 3 8 3 4 2 6 2 3 2 2 4 14 16 19 23 26 23 23 26 34 35 32 32 31 30 25 19 13 9 4 3 26 28 30 33 34 31 31 31 28 25
3 1 2 2 2 5 4 5 7 3 3 3 1 4 10 16 18 23 23 25 27 27 29 34 36 37 36 34 31 22 14 9 7 5 5 20 25 30 30 31 29 31 30 26
7 4 6 3 3 4 1 12 10 5 1 4 6 10 14 17 18 21 26 23 24 25 26 29 34 36 37 40 36 29 18 11 5 5 5 7 16 27 28 30 30 31 27 25
5 6 8 13 10 14 10 15 9 9 7 7 8 17 12 14 14 18 18 19 22 26 28 30 32 33 37 39 42 36 24 17 10 4 4 11 16 17 25 29 29 27 24 22
5 4 8 13 16 20 15 22 19 19 15 10 13 10 9 15 16 20 21 22 23 25 25 29 30 32 34 36 36 40 35 25 16 11 1 3 10 20 21 29 26 23 19 21
4 2 1 4 11 10 13 19 21 22 20 12 10 6 7 13 17 20 20 20 23 23 25 26 29 28 28 30 32 33 36 34 32 25 18 9 7 17 23 25 25 23 21 24
0 5 2 2 6 5 7 15 21 24 19 18 15 10 12 16 19 20 21 20 22 22 21 26 26 25 25 25 28 29 30 33 34 38 37 28 18 13 12 25 29 28 28 26
5 2 2 3 3 5 11 14 9 5 12 18 15 13 9 11 7 21 22 21 18 20 17 25 23 23 22 24 26 25 27 29 30 32 34 36 35 28 19 11 12 18 27 28
8 9 3 1 4 4 6 19 18 5 7 16 17 16 18 8 5 4 15 19 20 19 22 21 22 20 22 24 24 26 26 25 27 27 24 28 30 30 31 26 24 20 14 19
5 5 7 5 4 3 14 21 20 3 3 10 15 15 17 8 6 7 13 18 20 20 19 18 22 23 21 20 21 26 28 28 22 19 19 20 22 21 20 22 23 22 18 23
5 5 4 4 4 4 29 8 6 4 12 13 14 13 12 13 13 14 16 16 17 17 20 19 20 22 20 18 19 22 25 24 22 21 17 18 17 16 15 14 15 15 13 12
4 3 3 5 4 5 12 16 15 14 12 11 13 11 11 12 13 13 15 15 18 17 17 17 16 18 19 18 18 19 19 19 19 19 21 20 16 13 11 10 11 12 11 11
3 6 4 3 5 10 10 11 12 12 10 10 10 13 12 14 12 14 16 14 14 17 15 14 16 19 20 20 17 16 14 15 17 18 20 20 18 16 13 13 12 11 12 13
6 5 3 5 10 12 8 8 9 11 11 13 14 12 15 14 13 12 13 15 13 13 13 14 15 18 18 18 18 17 16 14 15 16 16 18 19 18 17 17 17 16 16 12
7 3 1 2 8 8 6 6 6 10 11 10 13 15 12 13 13 9 13 13 15 14 13 15 15 16 17 17 19 19 19 17 14 14 14 13 14 16 17 18 17 17 16 15

GFSCGP_850_spd_114.txt.gz
Wind_Speed
9 7 10 13 14 17 13 15 21 18 14 11 17 19 23 14 24 23 23 26 32 35 34 33 34 35 41 37 35 36 31 34 46 51 45 42 36 34 33 33 28 27 26 25
8 14 17 16 15 16 16 18 23 22 24 15 15 15 9 13 13 15 23 28 31 34 36 36 37 35 41 44 44 41 33 32 41 54 52 46 41 37 34 32 29 28 26 26
6 22 14 16 19 19 19 19 17 22 19 20 14 16 15 19 16 26 29 32 37 36 32 12 13 11 10 11 19 25 33 34 37 47 54 46 40 35 33 33 32 31 27 25
9 16 19 20 21 17 15 21 19 20 12 9 6 7 9 10 11 12 14 22 13 12 21 16 16 14 12 10 8 8 22 33 39 46 56 52 46 41 39 37 35 33 29 27
15 12 8 19 18 14 17 21 20 13 11 4 7 3 7 8 8 7 8 22 28 27 24 22 19 15 13 10 8 11 9 24 32 42 53 52 47 40 37 34 35 35 33 30
19 24 13 14 12 12 4 7 11 1 3 7 7 8 5 4 11 4 19 22 25 27 26 23 21 16 14 12 8 3 4 5 25 32 38 43 42 40 42 38 38 37 36 33
7 12 7 11 9 10 5 3 3 1 2 5 5 9 10 13 17 20 18 22 24 28 30 28 26 21 17 13 13 13 9 6 11 29 34 38 40 41 39 39 36 36 39 38
3 7 4 3 9 7 4 9 5 6 4 4 5 6 1 15 18 24 29 25 28 32 33 30 27 24 21 18 17 17 17 14 11 19 36 42 44 48 41 40 33 35 38 38
2 4 4 2 5 4 5 6 7 4 3 3 3 5 13 17 20 21 23 30 30 30 32 31 28 26 23 21 19 19 18 15 14 13 22 40 47 51 45 41 33 30 31 30
3 5 1 6 4 8 11 5 2 2 3 2 2 6 5 12 14 18 17 25 27 29 31 37 34 31 26 24 22 18 16 17 11 11 15 25 38 48 46 41 35 30 29 26
3 3 5 10 5 3 0 4 4 4 3 1 1 4 7 9 9 12 12 25 29 30 30 41 40 34 28 24 23 21 20 16 14 9 10 19 28 43 47 41 37 33 31 24
3 2 7 6 10 2 2 2 4 4 1 3 3 3 5 9 6 16 15 25 27 22 29 39 40 38 35 31 29 27 25 19 15 12 6 11 26 35 40 39 36 34 33 28
2 1 4 1 4 5 3 2 2 8 2 1 3 4 5 7 12 15 18 20 24 23 29 38 36 38 40 38 35 33 29 25 17 12 7 3 12 22 33 32 32 33 32 30
5 3 5 3 4 2 4 8 5 6 4 6 8 6 5 11 12 15 18 18 18 23 31 33 36 37 37 39 40 38 35 30 21 14 8 5 6 12 19 25 29 32 31 29
3 6 8 2 3 13 10 8 10 12 9 4 8 8 8 10 13 14 15 20 27 31 31 35 36 36 36 37 38 40 40 37 29 19 15 8 6 7 13 16 24 29 29 30
6 3 7 12 17 22 20 24 20 16 13 13 13 9 9 14 15 20 21 22 26 28 27 27 29 32 34 34 35 36 38 40 40 28 21 16 6 4 13 19 26 29 30 30
5 3 3 2 7 1 15 16 21 20 18 7 5 6 8 14 16 18 19 20 22 23 23 29 29 30 31 34 33 34 33 33 37 41 34 27 19 10 6 14 28 28 28 28
6 6 2 2 7 6 4 9 19 22 16 14 10 10 12 17 18 20 18 16 20 20 25 29 27 26 25 26 27 26 28 30 31 34 36 38 32 27 18 9 20 24 29 31
3 4 3 1 6 7 8 9 6 6 11 11 10 4 10 11 6 21 21 22 23 20 21 24 22 21 22 24 26 28 27 28 28 29 30 31 33 34 32 27 26 17 9 18
7 11 4 1 4 3 4 17 14 7 8 13 14 14 14 4 4 5 17 21 21 19 16 22 23 19 20 23 22 24 28 30 28 25 24 23 24 26 27 28 31 27 27 23
4 4 6 5 4 4 13 20 4 3 3 10 12 13 16 7 9 11 15 16 15 18 18 21 23 23 20 19 20 22 24 27 27 24 20 19 19 20 19 20 23 22 20 19
6 4 4 3 4 3 26 5 5 6 12 11 11 10 14 15 13 14 14 16 17 17 18 21 22 22 18 17 17 20 23 21 22 23 21 19 17 15 14 15 15 15 15 16
4 3 2 5 3 6 12 17 16 14 12 12 12 10 13 15 15 12 14 15 16 17 18 19 20 18 19 18 18 18 19 19 19 20 22 21 18 17 15 13 14 15 13 12
3 2 3 3 4 9 10 12 13 10 11 12 14 14 13 14 11 12 12 13 14 16 18 17 18 19 21 20 18 17 15 16 16 18 20 21 20 19 17 16 16 15 15 14
2 4 3 4 8 11 9 9 10 13 14 13 13 13 12 8 10 8 9 10 11 12 15 16 18 17 18 18 19 17 17 16 15 15 16 18 19 20 20 18 18 18 18 16
4 2 0 2 12 8 7 8 8 11 12 13 10 11 10 7 7 6 7 8 10 13 14 16 17 16 14 15 17 18 16 17 17 15 15 14 15 16 17 17 14 14 15 14

GFSCGP_850_spd_117.txt.gz
Wind_Speed
3 1 4 13 9 12 13 15 19 18 18 21 19 22 20 22 18 20 29 30 27 33 35 35 30 32 31 32 35 35 34 33 36 45 45 45 41 36 35 34 32 30 28 26
1 7 15 8 12 12 16 15 18 20 23 14 17 23 24 14 19 27 23 25 29 32 36 28 22 22 22 22 27 32 33 32 35 40 42 49 45 42 38 35 32 29 30 28
6 11 8 13 13 12 15 17 20 18 22 14 15 18 20 22 22 29 28 30 30 29 16 13 8 9 10 15 17 18 22 32 34 39 44 50 46 43 38 34 33 32 32 31
8 6 5 8 12 12 18 12 15 16 15 13 2 11 11 13 18 16 19 7 15 12 15 14 10 10 12 10 7 12 21 28 34 40 41 45 49 47 41 40 38 39 35 34
9 7 8 14 17 10 16 11 11 20 15 9 17 4 6 9 5 8 14 22 28 23 20 21 16 13 14 12 12 9 15 23 28 29 35 39 42 43 42 43 40 41 36 35
22 24 10 20 18 12 11 3 7 13 6 5 15 8 5 5 9 14 17 24 26 24 21 21 17 15 15 13 13 11 8 12 17 23 29 33 37 39 40 37 42 41 36 35
8 7 8 17 13 12 5 3 3 3 1 5 7 7 7 14 16 16 16 22 23 25 23 25 24 22 20 17 13 9 7 5 7 20 25 32 35 36 35 40 47 40 33 36
3 7 3 3 8 7 7 7 4 3 3 4 8 3 5 15 20 19 23 22 24 27 25 25 26 27 24 21 17 13 7 3 5 9 20 30 36 38 38 38 41 41 36 33
3 5 3 3 1 6 4 6 10 4 6 2 5 7 14 16 12 15 26 26 28 30 27 27 33 31 27 25 22 18 14 11 10 10 16 21 30 36 41 40 42 42 39 36
4 6 2 5 5 7 7 1 1 1 3 5 4 6 7 13 15 11 15 20 20 22 27 32 37 36 31 26 23 19 16 15 12 11 11 21 25 31 42 44 43 43 42 40
7 4 7 8 4 5 2 2 5 3 1 2 2 4 6 11 12 12 11 21 28 26 26 34 40 40 36 31 27 23 20 16 11 10 9 13 22 28 34 41 44 42 43 41
3 3 4 4 11 7 3 5 4 3 3 2 3 3 4 7 9 13 18 21 24 23 22 36 40 40 40 39 35 31 24 22 18 15 11 7 9 17 21 30 29 39 41 39
3 2 6 3 2 3 3 3 4 6 2 4 0 3 7 8 9 17 18 21 25 26 20 42 40 41 42 41 41 39 31 25 23 20 13 9 3 8 15 23 25 27 32 34
1 2 6 4 4 7 5 5 9 6 4 3 5 6 9 10 12 16 18 22 22 20 36 39 40 41 38 38 41 40 39 31 26 24 20 15 10 6 8 17 22 27 28 30
3 5 11 20 16 20 16 4 10 14 9 5 5 6 9 11 12 18 19 25 26 29 32 33 33 34 36 38 36 35 37 39 34 30 26 22 18 8 8 7 14 17 23 27
3 1 3 6 11 25 23 23 18 21 15 11 10 9 8 12 12 17 20 21 22 24 26 26 29 31 33 33 33 33 34 36 39 39 35 30 24 16 11 7 9 15 19 25
3 3 2 4 5 7 14 16 16 16 16 5 6 5 5 9 14 18 16 18 18 21 22 25 28 28 28 29 32 32 32 32 34 36 39 37 34 30 23 14 7 9 14 22
6 5 2 1 2 6 2 11 10 20 15 12 12 8 8 14 18 19 20 18 17 22 27 26 23 24 24 24 24 28 29 30 31 33 34 35 36 35 32 28 25 18 12 4
6 1 2 2 5 5 4 8 6 7 9 12 8 8 10 12 9 17 19 20 16 20 24 24 20 20 20 22 23 24 28 30 31 32 30 30 30 30 31 33 30 30 27 22
6 11 3 2 3 2 4 12 11 6 5 11 11 10 8 8 3 4 14 15 15 16 20 23 20 15 16 21 23 24 27 32 35 32 28 26 25 25 26 25 24 25 24 25
5 4 6 4 3 3 11 14 4 1 1 7 9 12 15 6 7 8 8 12 13 17 20 19 18 20 21 20 22 25 27 30 30 28 26 24 23 22 20 20 20 19 20 19
4 4 4 3 4 3 20 3 3 7 8 9 9 10 12 13 11 9 10 14 16 19 19 20 20 22 21 21 21 24 26 25 24 25 25 25 24 22 20 18 17 16 15 15
4 3 2 5 3 5 10 14 13 11 11 9 11 14 14 12 10 9 10 12 14 17 19 19 20 21 22 23 24 24 23 22 23 23 25 25 24 22 20 19 18 18 17 17
2 2 3 2 4 9 9 12 10 11 14 13 13 14 10 12 9 9 10 12 16 19 20 19 18 20 22 24 23 22 21 20 21 22 23 23 25 24 22 20 19 17 17 18
2 4 3 4 8 10 9 10 12 12 10 11 11 9 9 6 9 9 11 13 16 17 18 18 19 20 20 21 22 22 22 21 21 21 22 22 22 23 22 21 20 19 18 18
4 1 1 2 12 8 8 9 7 7 8 7 6 8 8 7 9 8 11 12 13 16 17 17 18 18 19 19 20 21 22 22 22 21 22 21 21 20 20 18 15 14 12 12

GFSCGP_850_spd_120.txt.gz
Wind_Speed
2 1 8 11 10 13 8 13 16 17 20 23 15 15 18 32 36 19 29 25 30 30 35 32 35 33 30 31 44 49 50 45 45 43 43 41 40 37 35 35 34 32 32 30
2 10 13 7 7 9 12 12 17 18 20 18 18 17 17 22 29 26 30 31 29 34 27 17 14 21 27 33 33 36 41 42 43 44 41 42 42 41 39 36 35 35 32 30
8 8 4 7 9 8 14 11 14 14 19 15 15 17 13 20 18 30 32 21 11 10 9 7 8 10 18 19 24 28 34 38 40 40 41 42 41 41 42 40 40 36 32 30
7 6 6 6 6 7 11 6 13 15 10 8 6 11 19 15 13 13 16 20 21 16 11 13 10 7 7 3 10 19 25 32 39 40 41 40 40 40 41 43 44 37 35 30
8 4 5 11 17 7 10 8 13 14 10 12 16 5 6 11 5 10 13 19 22 22 17 15 11 10 6 7 6 12 18 27 33 34 32 36 37 38 37 36 36 40 41 39
10 7 3 7 11 7 7 7 12 9 5 7 16 8 3 9 7 11 14 22 22 22 21 19 17 16 17 13 12 12 11 15 20 26 27 30 30 33 35 36 34 36 39 38
7 3 4 5 3 3 4 4 4 3 1 6 3 4 7 13 14 13 13 19 21 22 24 26 23 21 19 16 16 14 9 9 15 20 25 28 29 30 33 35 36 36 35 30
3 6 2 4 5 3 5 6 3 4 3 8 9 2 5 8 15 20 18 19 21 24 24 26 27 26 22 20 17 15 9 7 6 10 19 25 29 31 33 35 38 37 34 34
4 6 2 3 3 5 2 5 11 7 7 6 2 3 3 16 16 19 22 24 24 23 25 26 29 31 26 24 21 16 13 10 5 1 5 12 22 32 36 36 37 38 36 35
3 7 3 1 3 8 12 3 1 1 4 3 4 3 5 14 15 14 16 20 26 27 27 28 34 35 33 27 23 20 18 16 11 5 7 10 15 20 28 39 41 40 39 37
7 5 4 2 6 4 2 3 4 4 5 1 2 3 6 9 11 12 13 21 23 28 30 31 35 36 39 36 32 27 23 18 14 10 7 9 14 17 23 27 33 38 39 37
4 4 4 11 5 5 4 5 5 3 4 2 3 3 5 8 11 15 17 24 28 33 38 30 37 42 41 42 42 38 30 22 18 16 12 10 10 11 13 15 20 26 30 35
5 3 5 7 2 1 3 2 1 2 2 3 2 3 7 11 12 17 19 22 26 28 32 36 34 39 41 40 42 43 40 35 25 20 17 15 13 9 9 11 15 18 20 24
0 2 7 5 7 8 6 6 3 3 3 4 4 5 8 11 12 15 20 24 26 28 32 37 42 40 42 42 41 40 40 40 35 29 24 20 18 16 12 8 12 14 17 18
1 2 2 5 17 14 17 11 10 12 7 4 4 5 8 10 10 15 18 21 26 31 34 34 36 36 36 39 38 35 35 36 38 38 35 30 24 20 16 13 6 8 14 18
1 3 3 3 3 13 20 21 17 16 13 11 11 7 6 8 12 16 20 20 25 27 27 29 32 33 35 34 37 34 34 34 34 36 39 37 35 30 25 20 16 10 7 10
2 4 3 3 11 5 8 15 15 15 16 5 5 4 4 8 16 21 22 21 23 25 28 29 30 31 32 29 28 33 32 30 31 33 34 34 36 36 35 30 25 22 18 11
4 3 2 3 2 5 1 7 9 18 13 10 9 6 6 14 21 22 23 21 24 28 28 27 26 26 26 25 24 26 31 31 31 32 31 32 33 33 33 33 33 31 27 23
2 3 0 2 4 3 2 6 5 5 8 10 5 5 5 7 6 19 20 18 19 23 23 22 21 22 23 26 27 26 30 33 33 34 32 30 29 31 31 31 32 31 27 26
4 10 1 1 2 2 2 9 7 9 3 10 9 7 5 5 3 2 15 18 20 21 21 22 21 20 22 26 26 26 29 32 36 34 31 28 26 26 27 27 26 25 26 27
4 3 6 4 3 3 7 13 4 2 1 9 11 14 15 6 7 6 9 15 17 19 19 19 21 24 25 24 24 27 29 30 28 28 29 29 28 27 24 22 22 22 22 21
3 4 3 2 2 1 18 3 2 6 8 9 10 10 16 14 9 9 11 15 17 17 18 19 21 24 25 25 26 27 28 26 25 25 28 29 29 28 26 24 23 23 22 22
2 2 2 4 2 3 9 13 10 7 9 8 10 10 10 10 9 8 10 13 16 17 17 18 21 22 24 25 26 26 25 24 25 26 28 29 29 29 29 28 28 25 25 26
2 2 3 3 4 6 9 10 11 9 10 8 6 6 5 6 6 8 10 13 16 17 18 17 17 20 22 22 23 23 23 24 26 27 29 29 30 29 28 27 28 28 28 27
1 3 3 4 8 11 8 11 12 12 9 8 7 4 4 4 5 6 8 10 12 13 13 15 17 18 19 20 21 23 24 25 25 26 26 27 26 26 26 26 25 24 23 22
1 3 1 3 14 6 10 13 11 10 10 7 6 7 6 4 5 4 7 8 10 12 13 14 16 16 18 19 20 21 23 25 25 25 25 25 24 23 23 21 19 18 17 17

GFSCGP_850_spd_123.txt.gz
Wind_Speed
1 4 8 9 11 16 16 18 22 25 27 18 21 22 28 34 29 32 34 30 35 37 35 28 32 27 30 29 34 33 35 45 44 45 43 41 40 40 40 36 36 34 35 33
1 8 9 7 9 10 11 13 22 21 20 14 19 23 26 28 31 31 27 33 33 34 30 21 24 23 23 24 27 33 36 39 43 42 39 41 40 43 41 37 35 36 36 36
5 4 3 6 11 13 14 15 17 16 23 25 16 15 8 20 25 10 13 15 13 12 10 10 9 7 11 16 20 26 34 36 38 39 37 40 40 39 40 42 40 40 37 36
6 5 4 4 9 11 16 9 12 14 14 8 8 13 17 15 13 13 16 15 17 16 13 11 3 1 2 6 10 15 23 31 36 33 33 36 40 40 42 40 40 41 39 37
3 3 6 7 8 10 7 5 12 14 14 14 15 7 5 14 16 13 14 17 15 14 14 14 11 7 6 5 8 10 14 19 25 31 28 31 34 35 35 37 36 36 38 39
15 5 4 5 3 11 3 8 12 9 6 5 4 3 3 8 11 13 14 18 16 16 15 15 13 10 9 9 9 9 11 12 16 21 27 27 30 32 35 35 33 32 30 32
5 3 2 4 3 1 5 4 3 2 3 5 8 6 4 11 13 11 14 23 22 18 18 19 20 18 16 15 14 14 13 9 12 18 22 25 27 29 32 31 32 32 30 31
4 6 5 5 5 1 6 4 2 4 4 11 11 5 4 7 15 20 22 25 28 23 21 21 23 22 21 21 19 15 15 13 8 14 17 19 23 30 31 29 29 31 32 32
3 6 4 6 4 3 2 5 3 4 8 6 1 2 5 15 14 19 23 25 29 31 28 26 27 28 26 24 22 20 16 13 10 7 6 11 19 23 27 30 30 25 29 34
2 8 5 1 1 9 14 1 1 2 4 4 2 3 6 14 15 16 18 26 29 32 34 32 30 33 34 29 25 22 20 18 14 5 4 5 8 18 23 31 31 32 32 32
4 5 7 6 6 5 3 4 5 3 3 3 4 3 6 10 12 14 18 25 28 29 33 35 34 37 36 36 33 27 25 22 18 12 6 6 5 6 11 18 21 25 31 37
1 4 6 11 16 3 2 4 9 4 3 1 1 3 7 9 13 19 20 22 25 30 31 30 38 40 41 40 40 39 32 27 24 17 11 6 8 7 7 10 14 16 20 21
3 2 6 8 3 5 4 2 4 7 1 2 2 3 8 12 14 18 19 21 24 26 32 35 42 41 38 34 37 39 39 35 31 25 23 20 17 13 12 8 7 9 11 16
4 1 1 3 4 8 8 10 6 2 2 5 4 5 9 12 13 16 18 19 23 27 30 32 38 38 41 41 39 37 35 37 37 34 31 30 28 24 20 17 12 7 3 8
1 2 4 7 11 16 15 17 11 7 4 4 6 6 8 11 11 16 15 19 26 28 30 33 37 36 35 36 35 35 36 37 37 37 37 36 33 30 27 24 19 16 10 5
1 1 2 2 4 8 16 17 9 13 15 12 11 8 6 9 12 16 19 21 24 25 25 27 29 30 30 32 35 35 35 35 34 36 37 36 36 34 33 32 28 24 19 16
1 3 2 0 5 3 5 10 11 14 14 4 4 4 7 8 14 18 17 20 21 21 20 23 24 25 26 27 30 34 36 34 33 33 33 34 34 33 35 34 31 32 31 25
4 2 2 2 3 3 3 4 11 15 11 9 9 7 9 14 15 16 17 17 18 18 19 23 25 26 27 26 28 31 35 36 35 33 31 31 31 32 32 32 33 33 32 30
8 2 1 2 3 3 4 3 3 3 7 8 3 8 11 11 6 16 15 15 15 17 19 21 23 24 25 28 29 30 33 35 36 36 34 31 29 29 28 30 30 30 29 28
2 4 2 2 3 4 3 6 5 5 3 7 5 1 1 8 1 3 12 15 15 17 19 21 23 24 26 28 28 29 32 35 38 36 34 31 29 28 27 27 26 26 26 25
2 3 4 3 2 2 6 10 3 2 3 7 8 8 4 6 7 5 8 13 14 16 18 20 22 25 27 27 26 29 30 31 29 30 30 30 30 29 27 25 24 23 23 22
1 0 2 0 1 2 11 1 1 7 9 8 8 10 16 14 10 8 10 12 14 15 16 18 21 24 26 27 26 28 29 26 26 27 29 29 29 28 27 26 25 25 26 26
1 1 2 2 2 3 6 11 9 8 11 8 10 9 10 10 9 8 10 12 14 15 15 17 20 21 24 25 26 26 25 24 25 26 27 27 28 28 28 28 28 28 29 29
2 1 3 4 4 5 7 10 11 11 13 13 12 10 9 10 8 8 9 11 13 14 15 17 18 20 21 23 24 24 24 22 23 24 24 25 26 26 26 26 26 27 28 29
0 2 5 3 8 7 4 9 12 14 14 14 12 10 11 10 10 9 10 11 12 13 15 16 18 19 20 21 21 22 22 24 23 21 23 24 23 24 24 23 23 23 23 23
3 4 3 3 14 4 8 13 10 9 10 9 8 9 9 8 10 9 10 11 11 13 13 15 17 18 19 19 20 21 22 23 23 22 23 23 22 22 22 20 18 18 18 19

GFSCGP_850_spd_126.txt.gz
Wind_Speed
2 6 7 9 8 11 14 16 21 17 13 16 17 24 27 29 24 23 23 24 28 31 32 31 30 27 22 24 20 25 29 31 32 34 35 33 32 35 33 34 35 35 34 34
5 6 3 3 5 8 12 16 20 17 5 15 20 25 26 16 18 21 19 22 24 27 25 23 21 19 17 20 23 21 25 32 33 35 36 37 34 31 30 28 31 34 36 36
6 2 3 7 7 9 13 15 18 22 19 17 11 19 13 14 13 20 23 25 25 24 25 23 21 19 15 15 17 16 16 26 33 37 35 32 28 25 25 28 30 33 35 35
6 1 5 7 8 7 13 7 11 13 15 12 13 13 20 10 13 19 23 25 26 26 23 20 18 17 14 14 13 10 12 20 31 38 35 36 34 30 28 26 25 28 35 35
5 4 6 8 5 3 5 6 10 11 14 16 10 9 6 16 17 22 23 25 26 28 25 22 18 15 14 11 6 7 0 9 20 26 37 34 30 24 18 22 23 29 32 33
11 4 6 10 5 7 8 9 12 11 8 6 2 6 8 11 16 18 24 25 25 28 27 24 19 13 12 10 5 4 4 5 19 28 34 20 23 18 20 22 18 21 25 26
3 7 4 10 10 3 4 6 3 3 5 6 5 11 6 14 15 14 21 28 27 26 32 27 26 22 17 15 10 8 8 8 12 19 25 26 31 25 24 25 21 21 24 25
2 6 11 10 6 6 3 6 5 5 5 11 5 2 4 8 16 22 25 27 29 30 33 31 29 26 23 19 16 14 13 11 10 12 14 18 20 21 21 21 23 25 22 20
1 5 5 9 10 5 2 6 2 8 10 6 3 5 3 14 15 19 25 28 30 34 33 36 31 29 27 25 22 22 19 15 15 14 8 8 10 12 13 16 17 24 22 24
3 5 5 2 3 12 12 7 4 5 4 5 3 3 6 14 15 14 19 25 29 32 34 35 37 35 31 29 27 26 26 25 20 13 14 8 3 4 7 11 15 18 25 28
2 4 2 6 4 6 5 9 8 5 6 4 5 5 6 9 11 13 17 22 26 30 33 35 38 38 38 33 32 32 32 29 25 22 19 14 11 8 5 8 14 19 23 28
2 2 4 8 6 4 8 11 12 5 4 4 2 3 7 8 11 15 17 20 23 26 31 36 38 39 41 40 40 38 36 35 32 27 23 22 13 11 8 8 10 18 22 17
4 3 4 1 5 4 5 5 11 10 8 7 4 5 6 10 12 15 18 20 21 25 30 34 38 40 42 41 41 40 37 35 34 32 29 25 19 14 14 10 7 4 4 9
5 2 1 2 2 7 10 15 14 10 3 5 4 7 7 9 11 16 18 19 20 24 26 28 31 35 38 40 40 38 38 37 36 31 30 31 28 24 22 20 17 14 11 6
3 4 7 12 9 12 10 12 10 4 4 2 7 6 6 8 9 13 14 17 21 24 26 28 29 31 35 37 37 35 33 34 35 30 31 32 32 29 27 25 24 23 19 18
3 3 5 8 7 5 11 13 8 13 14 13 12 7 5 7 8 11 15 16 19 20 22 23 24 27 29 31 30 33 30 29 26 28 30 29 30 31 33 33 30 27 26 25
2 1 3 4 4 5 2 7 8 11 10 4 4 6 7 6 9 12 14 15 16 18 20 22 23 22 22 24 23 24 25 25 28 29 29 29 28 29 31 31 31 33 33 30
1 1 3 2 6 4 6 7 10 12 9 9 10 9 7 9 11 11 12 12 14 16 17 19 21 22 22 21 22 22 25 27 31 32 31 29 29 28 28 29 30 30 30 31
3 1 3 3 1 6 7 5 3 2 4 4 5 9 10 9 6 13 12 10 11 13 14 15 17 20 19 20 20 22 26 29 34 35 34 33 31 30 29 29 29 28 28 28
4 2 4 4 4 6 6 4 2 3 4 3 1 4 10 11 3 4 7 8 10 12 13 14 15 16 20 21 20 23 28 30 31 34 32 30 30 30 29 28 27 26 25 25
3 2 4 3 2 4 3 3 5 5 4 6 7 6 5 5 7 6 4 7 9 11 13 13 15 17 18 18 19 22 23 28 25 24 28 29 28 28 28 27 27 26 25 24
2 2 3 2 3 4 2 5 4 9 12 11 11 12 15 14 10 7 7 8 9 11 12 13 14 16 18 19 19 21 23 21 21 24 24 27 28 28 28 27 27 26 26 26
3 3 2 4 4 5 7 11 13 11 14 12 13 11 11 11 9 8 8 8 10 11 11 12 13 15 18 20 20 22 22 21 21 22 24 24 26 27 28 28 28 28 28 26
3 2 2 5 4 6 8 9 10 11 13 12 12 12 10 10 9 9 8 9 9 10 11 11 12 15 16 18 19 20 20 19 18 20 21 20 21 21 21 21 24 26 30 29
3 6 6 4 7 8 5 8 12 14 14 13 11 10 10 10 10 9 9 8 8 8 10 11 12 13 14 15 17 18 19 19 18 18 18 20 18 19 18 18 23 22 23 24
6 5 3 2 15 2 16 13 13 14 13 11 12 11 10 10 11 10 9 8 8 8 9 10 11 12 13 14 16 17 18 18 17 16 17 18 17 17 17 16 15 20 19 20

GFSCGP_850_spd_129.txt.gz
Wind_Speed
7 9 12 10 9 10 12 13 14 14 12 14 17 21 20 23 10 18 19 23 25 28 29 29 32 29 29 26 25 24 25 31 25 35 38 40 39 38 39 35 31 29 29 34
7 13 5 4 5 8 10 14 15 13 7 11 19 21 17 11 13 14 21 24 27 28 30 30 30 30 26 26 25 25 26 29 32 31 36 40 39 40 41 36 38 41 38 35
13 4 2 6 7 9 10 12 13 15 15 19 19 18 13 3 18 20 23 25 27 30 32 32 30 29 27 27 23 26 27 26 33 26 34 41 39 37 37 35 34 34 35 36
10 5 6 8 7 5 9 8 12 12 11 9 10 14 8 11 14 19 25 28 29 30 29 29 28 28 27 25 25 28 23 22 22 30 33 47 43 41 40 36 32 29 31 29
5 9 9 10 4 2 5 9 12 14 14 14 14 7 10 9 16 21 24 27 28 27 26 26 27 27 25 24 26 23 19 18 24 31 30 34 47 38 36 36 33 31 28 27
14 4 5 9 3 5 9 12 15 11 8 8 4 5 6 7 11 16 22 26 27 27 26 25 25 25 23 22 20 17 13 14 23 24 20 38 38 41 35 31 33 30 32 30
14 13 6 8 9 9 7 11 5 6 7 10 8 9 6 9 11 14 17 23 27 28 28 27 29 31 26 25 20 15 11 6 2 19 6 14 25 31 26 28 30 14 13 16
8 7 15 12 8 5 6 5 6 6 7 12 18 3 5 6 13 16 16 20 25 30 30 29 29 32 29 25 23 20 16 10 8 8 5 12 13 12 13 17 23 22 12 14
5 5 8 7 7 5 3 6 7 8 16 10 2 4 3 10 13 15 20 24 28 34 33 32 32 34 33 27 24 24 19 16 13 15 12 9 14 12 15 22 22 27 24 21
3 3 6 6 5 12 11 1 4 6 5 7 3 4 4 13 14 14 16 21 26 31 35 34 36 37 36 31 29 27 28 24 20 20 18 12 11 10 9 5 5 8 14 18
5 3 8 7 9 6 5 9 8 11 9 5 8 4 5 7 9 12 15 19 24 28 30 32 34 36 38 35 34 34 35 35 33 27 25 22 18 18 10 8 6 3 2 2
5 2 4 7 5 2 4 9 11 8 8 7 6 2 5 4 9 13 16 19 21 23 27 29 30 35 39 41 40 39 38 34 36 37 32 26 24 23 21 22 19 18 14 9
9 5 5 8 8 7 3 5 8 9 7 14 6 4 4 6 9 13 16 19 19 22 27 30 32 36 41 41 43 41 39 37 36 33 33 34 33 30 29 27 23 18 16 13
4 4 5 5 4 3 5 10 13 15 6 4 4 7 4 6 9 14 16 17 18 22 24 27 32 33 37 39 42 42 38 37 37 37 38 38 37 38 35 30 27 25 21 20
3 4 1 7 8 5 3 7 10 4 3 3 7 6 4 6 7 11 13 15 18 21 24 26 28 29 34 38 40 42 40 36 36 38 40 39 36 34 32 30 28 25 25 23
6 3 5 7 7 5 6 6 2 8 10 9 12 7 5 6 6 10 13 14 16 18 20 22 23 25 28 31 35 36 38 38 35 37 35 33 33 32 30 26 29 29 29 28
7 5 6 3 11 8 5 3 6 6 7 3 4 7 8 6 7 9 10 13 15 17 18 21 22 23 26 30 30 33 32 33 35 33 34 33 30 28 27 26 28 29 29 29
6 6 3 5 9 5 6 7 7 9 7 10 13 9 8 9 8 8 8 9 12 14 16 19 23 21 23 23 25 25 28 32 34 34 33 31 28 27 27 28 29 28 27 29
5 4 4 4 7 6 8 8 7 5 4 3 8 10 11 11 10 10 8 8 9 11 12 14 16 23 19 21 21 24 27 28 30 32 30 29 29 28 28 28 27 27 27 27
6 5 4 4 5 5 10 11 5 4 6 9 10 13 13 11 5 4 4 6 7 9 10 12 13 15 19 19 19 20 23 24 26 27 27 27 27 27 26 26 26 23 23 24
8 8 8 7 6 5 7 12 9 5 5 10 10 10 15 8 5 10 6 6 7 7 9 10 13 15 17 17 18 19 20 25 22 19 24 26 25 25 25 24 24 23 22 23
5 4 4 3 4 4 7 9 4 8 15 14 13 12 16 18 14 10 8 7 6 7 9 10 11 13 15 16 16 18 21 19 19 19 19 22 24 22 25 27 25 25 25 25
3 3 3 5 3 4 4 6 12 13 15 14 16 15 17 17 14 11 10 8 7 7 8 9 10 12 14 15 16 17 19 17 17 18 19 20 21 22 23 25 27 27 29 28
3 2 2 7 5 7 8 9 11 13 14 14 14 15 15 16 14 13 11 9 7 7 8 8 9 11 13 14 15 15 16 16 16 17 19 18 19 20 20 19 21 24 28 27
4 8 6 4 7 9 9 11 13 14 14 14 13 13 14 15 14 12 11 9 7 7 7 8 9 10 11 12 13 15 16 16 15 16 16 18 17 18 18 20 24 23 26 29
8 6 5 2 16 6 16 15 16 16 15 13 14 14 13 13 14 12 10 8 7 6 7 8 8 8 9 10 12 14 15 16 16 15 16 17 17 17 18 18 17 22 27 28

GFSCGP_850_spd_132.txt.gz
Wind_Speed
18 8 11 15 4 8 8 11 14 13 11 12 13 14 15 16 12 20 20 20 22 24 26 28 33 36 34 32 29 27 28 26 30 27 27 17 41 41 44 43 40 38 40 36
10 14 15 3 2 6 9 11 13 13 10 12 15 14 15 15 16 20 19 22 24 28 30 30 31 33 33 34 33 31 32 33 35 36 31 29 28 45 46 43 45 42 40 38
15 9 5 4 7 10 12 12 11 12 13 15 18 17 5 19 22 19 20 20 21 25 30 31 31 33 33 34 33 31 32 36 40 40 37 40 36 35 46 46 48 41 39 40
15 17 9 9 10 9 11 3 5 11 9 9 13 8 11 11 13 16 23 24 25 27 28 30 31 33 34 32 33 34 32 32 35 34 33 36 38 34 44 51 44 46 45 45
9 12 8 12 13 4 8 5 8 12 12 14 17 10 7 7 11 15 19 23 24 25 28 29 30 31 32 31 30 29 28 28 30 31 29 32 37 40 37 49 45 45 48 50
18 6 6 11 7 6 7 10 15 15 12 11 18 9 6 4 7 11 17 20 23 26 27 27 29 31 31 28 25 23 20 27 25 25 21 26 31 34 37 43 44 48 38 37
18 20 15 11 9 11 9 10 5 5 7 10 6 7 5 7 8 12 13 18 20 23 28 29 32 33 33 30 24 22 19 26 18 12 14 15 18 16 22 34 19 22 28 34
12 13 19 13 17 8 16 9 5 5 7 11 19 5 6 12 13 13 14 16 18 23 26 29 31 34 34 31 26 24 22 24 15 8 7 1 11 11 13 8 19 37 12 27
7 12 13 14 10 7 7 8 7 8 13 10 4 6 9 10 12 12 15 18 20 24 27 29 32 34 36 36 30 30 31 21 18 11 9 10 15 13 8 9 11 10 13 14
5 4 4 12 9 12 11 2 3 5 4 6 5 6 4 8 10 10 13 17 21 22 28 30 32 36 39 37 33 30 31 24 24 17 18 20 24 27 21 15 11 10 7 10
4 2 4 11 8 14 9 9 8 8 9 5 6 3 3 5 6 8 12 15 18 23 26 28 31 35 38 40 37 35 33 35 30 27 27 33 34 32 30 27 23 18 15 6
4 3 4 11 8 8 8 9 10 5 7 7 5 2 6 4 7 9 11 14 16 19 24 26 30 36 39 41 40 38 35 38 31 30 41 40 38 37 33 35 29 21 22 14
6 4 3 6 6 6 5 5 5 5 3 9 5 3 5 4 6 10 11 13 16 19 23 27 31 35 38 38 40 39 36 39 44 40 42 43 42 40 38 34 32 29 26 27
2 5 10 3 3 2 2 4 8 11 6 5 1 7 5 4 5 9 10 12 15 19 23 26 30 33 35 36 38 38 38 39 41 43 45 42 41 41 39 38 36 32 29 28
3 5 1 4 3 6 3 2 5 5 5 5 8 7 6 4 4 7 8 11 15 18 21 23 25 29 33 34 36 38 38 39 39 42 43 41 37 37 37 39 37 36 35 32
6 3 3 3 5 2 3 5 7 1 4 7 11 7 6 7 6 8 9 11 14 16 17 20 20 22 28 31 32 33 36 36 37 38 40 38 39 36 39 37 35 36 36 35
6 6 6 5 9 9 7 6 2 4 4 7 8 8 13 8 7 6 7 10 12 13 14 17 24 21 23 24 29 31 33 37 39 40 41 40 35 39 37 36 36 36 36 34
9 11 7 1 8 6 2 7 6 7 5 10 15 13 11 12 10 8 7 7 9 11 13 15 20 21 19 21 23 29 31 35 38 38 39 39 38 38 36 35 37 37 36 34
7 5 3 3 9 4 4 10 9 9 6 10 12 13 15 15 13 9 6 6 9 9 11 13 16 21 21 22 22 30 34 33 37 40 37 37 37 35 34 35 34 34 32 32
7 8 4 6 5 3 6 12 13 6 6 13 15 16 16 15 5 4 6 5 10 9 9 11 13 14 20 22 23 27 32 32 32 33 34 35 33 35 34 33 31 28 29 29
9 8 10 7 6 4 5 10 5 5 3 16 16 17 17 10 4 14 9 9 12 8 8 8 11 14 16 17 19 23 25 27 27 25 29 31 34 34 33 31 30 29 28 26
9 6 6 6 7 4 10 7 5 4 12 11 13 13 15 17 15 13 12 12 11 8 8 9 11 13 14 16 17 20 24 22 22 23 25 26 27 29 30 30 29 31 30 30
1 3 2 4 2 3 5 3 9 9 12 11 14 15 18 19 16 15 13 11 9 8 8 8 9 11 13 15 15 17 19 18 17 20 19 21 21 22 25 26 29 30 32 31
4 2 4 6 4 7 6 8 9 12 13 13 14 16 17 17 16 14 13 11 9 8 8 7 8 9 11 12 14 16 16 14 15 15 17 17 18 18 20 24 26 30 32 32
3 8 7 4 7 9 8 10 13 14 14 14 14 14 16 17 16 15 13 11 9 8 8 8 7 8 9 9 11 13 14 14 14 15 15 17 18 18 17 19 22 26 30 31
7 6 4 2 18 8 19 17 17 18 16 14 15 15 14 15 15 14 12 10 9 9 7 6 6 7 7 7 10 11 13 14 14 13 14 15 15 15 15 15 15 18 23 24